[[{"header":{"parameterUnit":"m.s-1","parameterCategory":1,"la1":30.6,"la2":28.766,"lo1":-90.7593,"lo2":-88.6598,"dx":0.0162,"dy":0.0183,"nx":116,"ny":114,"refTime":"2023-02-05T06:00:00:Z","depth":0,"parameterNumber":2,"parameterNumberName":"U-component_of_WINDS"},"data":[0.0,0.0,0.0,0.0,0.0,0.0,0.0,0.0,0.0,0.0,0.0,0.0,0.0,0.0,0.0,0.0,0.0,0.0,0.0,0.0,0.0,0.0,0.0,0.0,0.0,0.0,0.0,0.0,0.0,0.0,0.0,0.0,0.0,0.0,0.0,0.0,0.0,0.0,0.0,0.0,0.0,0.0,0.0,0.0,0.0,0.0,0.0,0.0,0.0,0.0,0.0,0.0,0.0,0.0,0.0,0.0,0.0,0.0,0.0,0.0,0.0,0.0,0.0,0.0,0.0,0.0,0.0,0.0,0.0,0.0,0.0,0.0,0.0,0.0,0.0,0.0,0.0,0.0,0.0,0.0,0.0,0.0,0.0,0.0,0.0,0.0,0.0,0.0,0.0,0.0,0.0,0.0,0.0,0.0,0.0,0.0,0.0,0.0,0.0,0.0,0.0,0.0,0.0,0.0,0.0,0.0,0.0,0.0,0.0,0.0,0.0,0.0,0.0,0.0,0.0,0.0,0.0,0.0,0.0,0.0,0.0,0.0,0.0,0.0,0.0,0.0,0.0,0.0,0.0,0.0,0.0,0.0,0.0,0.0,0.0,0.0,0.0,0.0,0.0,0.0,0.0,0.0,0.0,0.0,0.0,0.0,0.0,0.0,0.0,0.0,0.0,0.0,0.0,0.0,0.0,0.0,0.0,0.0,0.0,0.0,0.0,0.0,0.0,0.0,0.0,0.0,0.0,0.0,0.0,0.0,0.0,0.0,0.0,0.0,0.0,0.0,0.0,0.0,0.0,0.0,0.0,0.0,0.0,0.0,0.0,0.0,0.0,0.0,0.0,0.0,0.0,0.0,0.0,0.0,0.0,0.0,0.0,0.0,0.0,0.0,0.0,0.0,0.0,0.0,0.0,0.0,0.0,0.0,0.0,0.0,0.0,0.0,0.0,0.0,0.0,0.0,0.0,0.0,0.0,0.0,0.0,0.0,0.0,0.0,0.0,0.0,0.0,0.0,0.0,0.0,0.0,0.0,0.0,0.0,0.0,0.0,0.0,0.0,0.0,0.0,0.0,0.0,0.0,0.0,0.0,0.0,0.0,0.0,0.0,0.0,0.0,0.0,0.0,0.0,0.0,0.0,0.0,0.0,0.0,0.0,0.0,0.0,0.0,0.0,0.0,0.0,0.0,0.0,0.0,0.0,0.0,0.0,0.0,0.0,0.0,0.0,0.0,0.0,0.0,0.0,0.0,0.0,0.0,0.0,0.0,0.0,0.0,0.0,0.0,0.0,0.0,0.0,0.0,0.0,0.0,0.0,0.0,0.0,0.0,0.0,0.0,0.0,0.0,0.0,0.0,0.0,0.0,0.0,0.0,0.0,0.0,0.0,0.0,0.0,0.0,0.0,0.0,0.0,0.0,0.0,0.0,0.0,0.0,0.0,0.0,0.0,0.0,0.0,0.0,0.0,0.0,0.0,0.0,0.0,0.0,0.0,0.0,0.0,0.0,0.0,0.0,0.0,0.0,0.0,0.0,0.0,0.0,0.0,0.0,0.0,0.0,0.0,0.0,0.0,0.0,0.0,0.0,0.0,0.0,0.0,0.0,0.0,0.0,0.0,0.0,0.0,0.0,0.0,0.0,0.0,0.0,0.0,0.0,0.0,0.0,0.0,0.0,0.0,0.0,0.0,0.0,0.0,0.0,0.0,0.0,0.0,0.0,0.0,0.0,0.0,0.0,0.0,0.0,0.0,0.0,0.0,0.0,0.0,0.0,0.0,0.0,0.0,0.0,0.0,0.0,0.0,0.0,0.0,0.0,0.0,0.0,0.0,0.0,0.0,0.0,0.0,0.0,0.0,0.0,0.0,0.0,0.0,0.0,0.0,0.0,0.0,0.0,0.0,0.0,0.0,0.0,0.0,0.0,0.0,0.0,0.0,0.0,0.0,0.0,0.0,0.0,0.0,0.0,0.0,0.0,0.0,0.0,0.0,0.0,0.0,0.0,0.0,0.0,0.0,0.0,0.0,0.0,0.0,0.0,0.0,0.0,0.0,0.0,0.0,0.0,0.0,0.0,0.0,0.0,0.0,0.0,0.0,0.0,0.0,0.0,0.0,0.0,0.0,0.0,0.0,0.0,0.0,0.0,0.0,0.0,0.0,0.0,0.0,0.0,0.0,0.0,0.0,0.0,0.0,0.0,0.0,0.0,0.0,0.0,0.0,0.0,0.0,0.0,0.0,0.0,0.0,0.0,0.0,0.0,0.0,0.0,0.0,0.0,0.0,0.0,0.0,0.0,0.0,0.0,0.0,0.0,0.0,0.0,0.0,0.0,0.0,0.0,0.0,0.0,0.0,0.0,0.0,0.0,0.0,0.0,0.0,0.0,0.0,0.0,0.0,0.0,0.0,0.0,0.0,0.0,0.0,0.0,0.0,0.0,0.0,0.0,0.0,0.0,0.0,0.0,0.0,0.0,0.0,0.0,0.0,0.0,0.0,0.0,0.0,0.0,0.0,0.0,0.0,0.0,0.0,0.0,0.0,0.0,0.0,0.0,0.0,0.0,0.0,0.0,0.0,0.0,0.0,0.0,0.0,0.0,0.0,0.0,0.0,0.0,0.0,0.0,0.0,0.0,0.0,0.0,0.0,0.0,0.0,0.0,0.0,0.0,0.0,0.0,0.0,0.0,0.0,0.0,0.0,0.0,0.0,0.0,0.0,0.0,0.0,0.0,0.0,0.0,0.0,0.0,0.0,0.0,0.0,0.0,0.0,0.0,0.0,0.0,0.0,0.0,0.0,0.0,0.0,0.0,0.0,0.0,0.0,0.0,0.0,0.0,0.0,0.0,0.0,0.0,0.0,0.0,0.0,0.0,0.0,0.0,0.0,0.0,0.0,0.0,0.0,0.0,0.0,0.0,0.0,0.0,0.0,0.0,0.0,0.0,0.0,0.0,0.0,0.0,0.0,0.0,0.0,0.0,0.0,0.0,0.0,0.0,0.0,0.0,0.0,0.0,0.0,0.0,0.0,0.0,0.0,0.0,0.0,0.0,0.0,0.0,0.0,0.0,0.0,0.0,0.0,0.0,0.0,0.0,0.0,0.0,0.0,0.0,0.0,0.0,0.0,0.0,0.0,0.0,0.0,0.0,0.0,0.0,0.0,0.0,0.0,0.0,0.0,0.0,0.0,0.0,0.0,0.0,0.0,0.0,0.0,0.0,0.0,0.0,0.0,0.0,0.0,0.0,0.0,0.0,0.0,0.0,0.0,0.0,0.0,0.0,0.0,0.0,0.0,0.0,0.0,0.0,0.0,0.0,0.0,0.0,0.0,0.0,0.0,0.0,0.0,0.0,0.0,0.0,0.0,0.0,0.0,0.0,0.0,0.0,0.0,0.0,0.0,0.0,0.0,0.0,0.0,0.0,0.0,0.0,0.0,0.0,0.0,0.0,0.0,0.0,0.0,0.0,0.0,0.0,0.0,0.0,0.0,0.0,0.0,0.0,0.0,0.0,0.0,0.0,0.0,0.0,0.0,0.0,0.0,0.0,0.0,0.0,0.0,0.0,0.0,0.0,0.0,0.0,0.0,0.0,0.0,0.0,0.0,0.0,0.0,0.0,0.0,0.0,0.0,0.0,0.0,0.0,0.0,0.0,0.0,0.0,0.0,0.0,0.0,0.0,0.0,0.0,0.0,0.0,0.0,0.0,0.0,0.0,0.0,0.0,0.0,0.0,0.0,0.0,0.0,0.0,0.0,0.0,0.0,0.0,0.0,0.0,0.0,0.0,0.0,0.0,0.0,0.0,0.0,0.0,0.0,0.0,0.0,0.0,0.0,0.0,0.0,0.0,0.0,0.0,0.0,0.0,0.0,0.0,0.0,0.0,0.0,0.0,0.0,0.0,0.0,0.0,0.0,0.0,0.0,0.0,0.0,0.0,0.0,0.0,0.0,0.0,0.0,0.0,0.0,0.0,0.0,0.0,0.0,0.0,0.0,0.0,0.0,0.0,0.0,0.0,0.0,0.0,0.0,0.0,0.0,0.0,0.0,0.0,0.0,0.0,0.0,0.0,0.0,0.0,0.0,0.0,0.0,0.0,0.0,0.0,0.0,0.0,0.0,0.0,0.0,0.0,0.0,0.0,0.0,0.0,0.0,0.0,0.0,0.0,0.0,0.0,0.0,0.0,0.0,0.0,0.0,0.0,0.0,0.0,0.0,0.0,0.0,0.0,0.0,0.0,0.0,0.0,0.0,0.0,0.0,0.0,0.0,0.0,0.0,0.0,0.0,0.0,0.0,0.0,0.0,0.0,0.0,0.0,0.0,0.0,0.0,0.0,0.0,0.0,0.0,0.0,0.0,0.0,0.0,0.0,0.0,0.0,0.0,0.0,0.0,0.0,0.0,0.0,0.0,0.0,0.0,0.0,0.0,0.0,0.0,0.0,0.0,0.0,0.0,0.0,0.0,0.0,0.0,0.0,0.0,0.0,0.0,0.0,0.0,0.0,0.0,0.0,0.0,0.0,0.0,0.0,0.0,0.0,0.0,0.0,0.0,0.0,0.0,0.0,0.0,0.0,0.0,0.0,0.0,0.0,0.0,0.0,0.0,0.0,0.0,0.0,0.0,0.0,0.0,0.0,0.0,0.0,0.0,0.0,0.0,0.0,0.0,0.0,0.0,0.0,0.0,0.0,0.0,0.0,0.0,0.0,0.0,0.0,0.0,0.0,0.0,0.0,0.0,0.0,0.0,0.0,0.0,0.0,0.0,0.0,0.0,0.0,0.0,0.0,0.0,0.0,0.0,0.0,0.0,0.0,0.0,0.0,0.0,0.0,0.0,0.0,0.0,0.0,0.0,0.0,0.0,0.0,0.0,0.0,0.0,0.0,0.0,0.0,0.0,0.0,0.0,0.0,0.0,0.0,0.0,0.0,0.0,0.0,0.0,0.0,0.0,0.0,0.0,0.0,0.0,0.0,0.0,0.0,0.0,0.0,0.0,0.0,0.0,0.0,0.0,0.0,0.0,0.0,0.0,0.0,0.0,0.0,0.0,0.0,0.0,0.0,0.0,0.0,0.0,0.0,0.0,0.0,0.0,0.0,0.0,0.0,0.0,0.0,0.0,0.0,0.0,0.0,0.0,0.0,0.0,0.0,0.0,0.0,0.0,0.0,0.0,0.0,0.0,0.0,0.0,0.0,0.0,0.0,0.0,0.0,0.0,0.0,0.0,0.0,0.0,0.0,0.0,0.0,0.0,0.0,0.0,0.0,0.0,0.0,0.0,0.0,0.0,0.0,0.0,0.0,0.0,0.0,0.0,0.0,0.0,0.0,0.0,0.0,0.0,0.0,0.0,0.0,0.0,0.0,0.0,0.0,0.0,0.0,0.0,0.0,0.0,0.0,0.0,0.0,0.0,0.0,0.0,0.0,0.0,0.0,0.0,0.0,0.0,0.0,0.0,0.0,0.0,0.0,0.0,0.0,0.0,0.0,0.0,0.0,0.0,0.0,0.0,0.0,0.0,0.0,0.0,0.0,0.0,0.0,0.0,0.0,0.0,0.0,0.0,0.0,0.0,0.0,0.0,0.0,0.0,0.0,0.0,0.0,0.0,0.0,0.0,0.0,0.0,0.0,0.0,0.0,0.0,0.0,0.0,0.0,0.0,0.0,0.0,0.0,0.0,0.0,0.0,0.0,0.0,0.0,0.0,0.0,0.0,0.0,0.0,0.0,0.0,0.0,0.0,0.0,0.0,0.0,0.0,0.0,0.0,0.0,0.0,0.0,0.0,0.0,0.0,0.0,0.0,0.0,0.0,0.0,0.0,0.0,0.0,0.0,0.0,0.0,0.0,0.0,0.0,0.0,0.0,0.0,0.0,0.0,0.0,0.0,0.0,0.0,0.0,0.0,0.0,0.0,0.0,0.0,0.0,0.0,0.0,0.0,0.0,0.0,0.0,0.0,0.0,0.0,0.0,0.0,0.0,0.0,0.0,0.0,0.0,0.0,0.0,0.0,0.0,0.0,0.0,0.0,0.0,0.0,0.0,0.0,0.0,0.0,0.0,0.0,0.0,0.0,0.0,0.0,0.0,0.0,0.0,0.0,0.0,0.0,0.0,0.0,0.0,-5.9789,0.0,0.0,0.0,0.0,0.0,0.0,0.0,0.0,0.0,0.0,0.0,0.0,0.0,0.0,0.0,0.0,0.0,0.0,0.0,0.0,0.0,0.0,0.0,0.0,0.0,0.0,0.0,0.0,0.0,0.0,0.0,0.0,0.0,0.0,0.0,0.0,0.0,0.0,0.0,0.0,0.0,0.0,0.0,0.0,0.0,0.0,0.0,0.0,0.0,0.0,0.0,0.0,0.0,0.0,0.0,0.0,0.0,0.0,0.0,0.0,0.0,0.0,0.0,0.0,0.0,0.0,0.0,0.0,0.0,0.0,0.0,0.0,0.0,0.0,0.0,0.0,0.0,0.0,0.0,0.0,0.0,0.0,0.0,0.0,0.0,0.0,0.0,0.0,0.0,0.0,0.0,0.0,0.0,0.0,0.0,0.0,0.0,0.0,0.0,0.0,0.0,0.0,0.0,0.0,0.0,0.0,0.0,0.0,0.0,0.0,0.0,0.0,0.0,0.0,0.0,0.0,-6.0441,0.0,0.0,0.0,0.0,0.0,0.0,0.0,0.0,0.0,0.0,0.0,0.0,0.0,0.0,0.0,0.0,0.0,0.0,0.0,0.0,0.0,0.0,0.0,0.0,0.0,0.0,0.0,0.0,0.0,0.0,0.0,0.0,0.0,0.0,0.0,0.0,0.0,0.0,0.0,0.0,0.0,0.0,0.0,0.0,0.0,0.0,0.0,0.0,0.0,0.0,0.0,0.0,0.0,0.0,0.0,0.0,0.0,0.0,0.0,0.0,0.0,0.0,0.0,0.0,0.0,0.0,0.0,0.0,0.0,0.0,0.0,0.0,0.0,0.0,0.0,0.0,0.0,0.0,0.0,0.0,0.0,0.0,0.0,0.0,0.0,0.0,0.0,0.0,0.0,0.0,0.0,0.0,0.0,0.0,0.0,0.0,0.0,0.0,0.0,0.0,0.0,0.0,0.0,0.0,0.0,0.0,0.0,0.0,-5.519,-5.6137,-5.6736,-5.8026,-5.8852,-5.9099,-5.9099,-6.0546,-6.2747,-6.3034,0.0,0.0,0.0,0.0,0.0,0.0,0.0,0.0,0.0,0.0,0.0,0.0,0.0,0.0,0.0,0.0,0.0,0.0,0.0,0.0,0.0,0.0,0.0,0.0,0.0,0.0,0.0,0.0,0.0,0.0,0.0,0.0,0.0,0.0,0.0,0.0,0.0,0.0,-0.1235,-0.037,-0.0,-0.0,-0.0495,0.0,0.0,0.0,0.0,0.0,0.0,0.0,0.0,0.0,0.0,0.0,0.0,0.0,0.0,0.0,0.0,0.0,0.0,0.0,0.0,0.0,0.0,0.0,0.0,0.0,0.0,0.0,0.0,0.0,0.0,0.0,0.0,0.0,0.0,0.0,0.0,0.0,0.0,0.0,0.0,0.0,0.0,0.0,-4.0996,-4.2186,0.0,0.0,0.0,0.0,0.0,0.0,0.0,0.0,0.0,0.0,0.0,0.0,0.0,-4.7812,-5.0472,-4.9161,-5.0437,-5.4276,-5.3133,-5.4002,-5.6736,-5.6962,-5.7804,-5.9099,-5.9099,0.0,-6.1408,-6.2671,0.0,0.0,0.0,0.0,0.0,0.0,0.0,0.0,0.0,0.0,0.0,0.0,0.0,0.0,0.0,0.0,0.0,0.0,0.0,0.0,0.0,0.0,0.0,0.0,0.0,0.0,0.0,0.0,0.0,0.0,0.0,0.0,0.0,0.0,0.0,0.0,-0.0,-0.0,-0.0,-0.0,-0.0,-0.0,-0.0,-0.0,-0.0127,-0.1524,0.0,0.0,0.0,0.0,0.0,0.0,0.0,0.0,0.0,0.0,0.0,0.0,0.0,0.0,0.0,0.0,0.0,0.0,0.0,0.0,0.0,0.0,0.0,0.0,0.0,0.0,0.0,0.0,0.0,0.0,0.0,0.0,0.0,0.0,0.0,0.0,0.0,0.0,0.0,-4.0307,-4.0996,-4.2186,-4.2925,-4.4077,0.0,0.0,0.0,0.0,0.0,0.0,0.0,0.0,0.0,-4.6301,-4.6301,-4.7015,-4.8506,-4.8103,-4.9033,-5.1294,-5.1707,-5.27,-5.4121,-5.5878,-5.7075,-5.7804,-5.8743,-5.9877,-6.1104,-6.1679,-6.2798,-6.4209,0.0,0.0,0.0,0.0,-6.8601,-6.9217,0.0,0.0,0.0,0.0,0.0,0.0,0.0,0.0,0.0,0.0,0.0,0.0,0.0,0.0,0.0,-0.0,0.0,0.0,0.0,0.0,0.0,0.0,0.0,0.0,0.0,0.0,0.0,0.0,-0.0,-0.0,-0.0,-0.0,-0.0,-0.0,-0.0,-0.0,-0.0,-0.0,-0.0,0.0,0.0,0.0,0.0,0.0,0.0,0.0,0.0,0.0,0.0,0.0,0.0,0.0,0.0,0.0,0.0,0.0,0.0,0.0,0.0,0.0,0.0,0.0,0.0,0.0,0.0,0.0,0.0,0.0,0.0,0.0,0.0,0.0,0.0,0.0,0.0,0.0,0.0,-4.0479,-4.1022,-4.1586,-4.2544,-4.3986,0.0,0.0,0.0,0.0,0.0,0.0,-4.6301,-4.6301,-4.6301,-4.6301,-4.6301,-4.6652,-4.733,-4.7707,-4.8259,-4.8987,-5.0584,-5.1616,-5.2086,-5.4477,-5.5907,-5.6736,-5.7915,-5.9517,-6.1104,-6.1104,-6.1882,-6.3164,-6.4623,-6.4923,-6.4703,-6.6154,-6.7266,-6.8174,0.0,0.0,0.0,0.0,0.0,0.0,0.0,0.0,0.0,0.0,0.0,0.0,0.0,0.0,-0.0,-0.0,-0.0,-0.0,0.0,0.0,0.0,0.0,0.0,0.0,0.0,0.0,0.0,-0.0,-0.0,-0.0,-0.0,-0.0,-0.0,-0.0,-0.0,-0.0,-0.0,-0.0,-0.0,-0.0,0.0,0.0,0.0,0.0,0.0,0.0,0.0,0.0,0.0,0.0,0.0,0.0,0.0,0.0,0.0,0.0,0.0,0.0,0.0,0.0,0.0,0.0,0.0,0.0,0.0,0.0,0.0,0.0,0.0,0.0,0.0,0.0,0.0,0.0,0.0,0.0,0.0,0.0,0.0,-4.0105,-4.3241,0.0,0.0,0.0,0.0,-4.6301,-4.6301,-4.6301,-4.6301,-4.6301,-4.6301,-4.6301,-4.6301,-4.6803,-4.7857,-4.7883,-4.846,-4.9565,-4.9694,-5.0563,-5.1989,-5.2209,-5.3882,-5.6736,-5.6849,-5.8424,-6.1104,-6.1104,-6.1882,-6.3164,-6.4623,-6.429,-6.3394,-6.4703,-6.5219,-6.5544,0.0,0.0,0.0,0.0,0.0,0.0,0.0,0.0,0.0,0.0,0.0,0.0,0.0,-0.0,-0.0,-0.0,-0.0,-0.0,-0.0,0.0,0.0,0.0,0.0,0.0,0.0,0.0,0.3213,0.3494,0.3513,0.3429,0.3366,0.1042,-0.0,-0.0,-0.0,-0.0,-0.0,-0.0,-0.0,-0.0,-0.0,-0.0806,0.0,0.0,0.0,0.0,0.0,0.0,0.0,0.0,0.0,0.0,0.0,0.0,0.0,0.0,0.0,0.0,0.0,0.0,0.0,0.0,0.0,0.0,0.0,0.0,0.0,0.0,0.0,0.0,0.0,0.0,0.0,0.0,0.0,0.0,0.0,0.0,0.0,-4.2567,-4.2492,0.0,-4.601,-4.6301,-4.6301,-4.6301,-4.6301,-4.6301,-4.6301,-4.6301,-4.6301,-4.6301,-4.6301,-4.6828,-4.7908,-4.7908,-4.8485,-4.959,-4.959,-4.995,-5.0563,-5.1492,-5.3187,-5.5327,-5.6251,-5.8424,-6.1104,-6.1104,-6.1882,-6.3194,-6.3592,-6.3478,-6.3194,-6.3592,-6.4401,-6.5111,0.0,0.0,0.0,0.0,0.0,0.0,0.0,0.0,0.0,0.0,0.0,-0.0,-0.0,-0.0,-0.0,-0.0,-0.0,-0.0,-0.0,0.0,0.0,0.0,0.0,0.0,0.0,0.7654,0.6699,0.7046,0.7084,0.7193,0.7103,0.4754,0.226,-0.0,-0.0,-0.0,-0.0,-0.0,-0.0,-0.0,-0.0,-0.0,-0.0,0.0,0.0,0.0,0.0,0.0,0.0,0.0,0.0,0.0,0.0,0.0,0.0,0.0,0.0,0.0,0.0,0.0,0.0,0.0,0.0,0.0,0.0,0.0,0.0,0.0,0.0,0.0,0.0,0.0,0.0,0.0,0.0,0.0,0.0,0.0,-3.8953,-4.2591,-4.2146,-4.2832,-4.601,-4.6301,-4.6301,-4.6301,-4.6301,-4.6301,-4.6301,-4.6301,-4.6301,-4.6301,-4.6301,-4.6828,-4.7908,-4.7908,-4.8485,-4.959,-4.959,-4.959,-4.959,-5.0664,-5.2359,-5.4505,-5.5444,-5.7828,-6.1104,-6.1104,-6.1882,-6.3079,-6.3079,-6.3079,-6.3079,-6.3079,-6.3706,-6.4512,0.0,0.0,0.0,0.0,0.0,0.0,0.0,0.0,0.0,0.0,-0.0,-0.0,-0.0,-0.0,-0.0,-0.0,-0.0,-0.0,-0.0,0.0247,0.0,0.0,0.0,0.0,0.9781,0.9787,0.9985,1.0259,1.0545,1.0697,1.0719,1.0738,0.6991,0.0268,0.0134,-0.0,-0.0,-0.0,-0.0,-0.0,-0.0,-0.0,-0.0,0.0,0.0,0.0,0.0,0.0,0.0,0.0,0.0,0.0,0.0,0.0,0.0,0.0,0.0,0.0,0.0,0.0,0.0,0.0,0.0,0.0,0.0,0.0,0.0,0.0,0.0,0.0,0.0,0.0,0.0,0.0,0.0,0.0,-3.556,-3.7972,-3.9702,-3.9927,-4.2079,-4.4374,-4.618,-4.6301,-4.6301,-4.6301,-4.6301,-4.6301,-4.6301,-4.6301,-4.6301,-4.6301,-4.6301,-4.6828,-4.7908,-4.7908,-4.8485,-4.959,-4.959,-4.959,-4.959,-4.959,-5.1268,-5.4268,-5.4386,-5.6878,-6.0992,-6.1104,-6.1882,-6.3079,-6.3079,-6.3079,-6.3079,-6.3079,-6.3079,-6.3279,0.0,0.0,0.0,0.0,0.0,0.0,0.0,0.0,0.0,0.0,-0.0,-0.0,-0.0,-0.0,-0.0,-0.0,-0.0,-0.0,-0.0,0.0,0.0,0.0,0.0,0.0,0.9747,0.9841,1.0086,1.0236,1.0513,1.0664,1.0683,1.0738,0.9679,0.7507,0.2278,-0.0,-0.0,-0.0,-0.0,-0.0,-0.0,-0.0,-0.0,0.0,0.0,0.0,0.0,0.0,0.0,0.0,0.0,0.0,0.0,0.0,0.0,0.0,0.0,0.0,0.0,0.0,0.0,0.0,0.0,0.0,0.0,0.0,0.0,0.0,0.0,0.0,0.0,0.0,0.0,0.0,0.0,-3.4027,-3.556,-3.5995,-3.7445,-4.1173,-4.183,-4.3107,-4.6059,-4.6301,-4.6301,-4.6301,-4.6301,-4.6301,-4.6301,-4.6301,-4.6301,-4.6301,-4.6301,-4.6828,-4.7908,-4.7908,-4.8485,-4.959,-4.959,-4.959,-4.959,-4.959,-5.0664,-5.27,-5.391,-5.6265,-5.9479,-6.0624,-6.1882,-6.3079,-6.3079,-6.3079,-6.3079,-6.3079,-6.3079,-6.3279,0.0,0.0,0.0,0.0,0.0,0.0,0.0,0.0,0.0,0.0,-0.0,-0.0,-0.0,-0.0,-0.0,-0.0,-0.0,0.1111,0.3956,0.0,0.0,0.0,0.0,0.9883,0.9937,1.0012,1.0154,1.0371,1.0453,1.0568,1.0717,1.0731,1.0744,1.0485,0.6297,0.2814,-0.0,-0.0,-0.0,-0.0,-0.0,-0.0,-0.0,-0.0,-0.0,-0.0,-0.0,-0.2684,-0.6581,-0.8584,0.0,0.0,0.0,0.0,0.0,0.0,0.0,0.0,0.0,0.0,0.0,0.0,0.0,0.0,0.0,0.0,0.0,0.0,0.0,0.0,0.0,0.0,0.0,0.0,-3.2988,-3.3776,-3.4612,-3.4764,-3.6078,-3.9826,-4.0828,-4.2201,-4.489,-4.5914,-4.6301,-4.6301,-4.6301,-4.6301,-4.6301,-4.6301,-4.6301,-4.6301,-4.6301,-4.6828,-4.7908,-4.7908,-4.8485,-4.959,-4.959,-4.959,-4.959,-4.959,-5.0436,-5.2086,-5.2944,-5.5408,-5.8725,-5.9739,-6.1253,0.0,0.0,0.0,0.0,0.0,-6.3079,-6.3164,0.0,0.0,0.0,0.0,0.0,0.0,0.0,0.0,0.0,0.0,0.0,-0.0,-0.0,-0.0,-0.0,-0.0,0.0617,0.3586,0.0,0.0,0.0,0.9856,0.9856,0.991,1.0046,1.0066,1.0215,1.0493,1.0507,1.0588,1.0717,1.0717,1.0731,1.0751,1.0751,0.7107,0.1207,0.0402,-0.0,-0.0,-0.0,-0.0,-0.0,-0.0,-0.0,-0.0,-0.0,-0.0,-0.0671,-0.4815,0.0,0.0,0.0,0.0,0.0,0.0,0.0,0.0,0.0,0.0,0.0,0.0,0.0,0.0,0.0,0.0,0.0,0.0,0.0,0.0,0.0,0.0,0.0,0.0,-3.3144,-3.3437,-3.3496,-3.418,-3.5321,-3.7064,-3.943,-4.1693,-4.3482,-4.5135,-4.6059,-4.6301,-4.6301,-4.6301,-4.6301,0.0,0.0,0.0,0.0,-4.6828,-4.7908,-4.7908,-4.8485,-4.959,-4.959,-4.959,-4.959,-4.959,-5.0436,-5.1741,-5.1989,-5.4324,-5.8226,-5.8608,-6.0472,-6.3079,-6.3079,-6.3079,-6.3079,-6.3079,-6.3079,-6.3079,0.0,0.0,0.0,0.0,0.0,0.0,0.0,0.0,0.0,-0.0,-0.0,-0.0,-0.0,-0.0,-0.0,-0.0,0.4827,0.8453,0.0,0.0,0.9747,0.9856,0.9836,0.9897,1.0046,1.0175,1.0324,1.0493,1.0616,1.069,1.0717,1.0717,1.0724,1.0724,1.0744,0.9952,0.8215,0.2414,-0.0,-0.0,-0.0,-0.0,-0.0,-0.0,-0.0,-0.0,-0.0,-0.0,-0.0134,-0.1073,-0.5499,-1.0785,-1.115,0.0,0.0,0.0,0.0,0.0,0.0,0.0,0.0,0.0,0.0,0.0,0.0,0.0,0.0,0.0,0.0,0.0,0.0,0.0,0.0,-3.2793,-3.3144,-3.3535,-3.3887,-3.4375,-3.5321,-3.7064,-3.8421,-4.0278,-4.3333,-4.3979,-4.4767,-4.618,-4.6301,-4.6301,-4.6301,-4.6301,-4.6301,-4.6301,-4.6301,-4.6828,-4.7908,-4.7908,-4.8485,-4.959,0.0,0.0,-4.959,-4.959,-4.9719,-5.0206,-5.1367,-5.2997,-5.4916,-5.7633,-6.0472,-6.3079,-6.3079,-6.3079,-6.3079,-6.3079,-6.3079,-6.3079,0.0,0.0,0.0,0.0,0.0,0.0,0.0,0.0,0.0,0.0,-0.0,-0.0,-0.0,-0.0,-0.0,-0.0,0.6068,0.0,0.0,0.9761,0.9849,0.9836,0.9829,0.993,1.0161,1.0243,1.0385,1.0609,1.0683,1.0717,1.0717,1.0717,1.0717,1.0717,1.0731,1.0751,1.0372,0.4961,0.1609,-0.0,-0.0,-0.0,-0.0,-0.0,-0.0,-0.0,-0.0,-0.0,-0.0,-0.0,-0.2415,-0.5908,-0.954,-1.1269,-1.2173,0.0,0.0,0.0,0.0,0.0,0.0,0.0,0.0,0.0,0.0,0.0,0.0,0.0,0.0,-2.716,0.0,0.0,-3.1816,-3.2941,-3.3281,-3.3574,-3.4004,-3.4434,-3.5159,-3.6274,-3.7674,-3.9627,-4.2201,-4.3208,-4.4374,-4.618,-4.6301,-4.6301,-4.6301,-4.6301,-4.6301,-4.6301,-4.6301,-4.6828,-4.7908,-4.7908,-4.8485,-4.959,-4.959,-4.959,-4.959,-4.959,-4.959,-4.959,-5.0436,-5.1918,-5.4113,-5.8043,-6.094,-6.3079,-6.3079,-6.3079,-6.3079,-6.3079,-6.3079,-6.3079,0.0,0.0,0.0,0.0,0.0,0.0,0.0,0.0,0.0,0.0,-0.0,-0.0,-0.0,-0.0,-0.0,0.0,0.0,0.0,0.0,0.9747,0.9842,0.9822,0.9849,0.9998,1.0276,1.031,1.0453,1.0717,1.0717,1.0717,1.0717,1.0717,1.0717,1.0717,1.0717,1.0738,1.0492,0.7655,0.389,-0.0,-0.0,-0.0,-0.0,-0.0,-0.0,-0.0,-0.0,-0.0,-0.0,-0.0,-0.0,-0.1072,-0.6836,-0.9534,-1.101,-1.2429,-1.2808,0.0,0.0,0.0,0.0,0.0,0.0,0.0,0.0,0.0,-2.1724,-2.2004,-2.336,-2.5245,-2.7393,-2.9153,-3.0937,-3.3107,-3.3496,-3.3691,-3.4141,-3.457,-3.5,-3.5469,-3.7104,-3.8861,-4.1052,-4.2454,-4.4103,-4.618,-4.6301,-4.6301,-4.6301,-4.6301,-4.6301,-4.6301,-4.6301,-4.6828,-4.7908,-4.7908,-4.8485,-4.959,-4.959,-4.959,-4.959,-4.959,-4.959,-4.9615,-5.0178,-5.1871,-5.4646,-5.8814,-6.1525,-6.3079,-6.3079,-6.3079,-6.3079,-6.3079,-6.3079,-6.3079,0.0,0.0,0.0,0.0,0.0,0.0,0.0,0.0,0.0,0.0,0.0,0.0,0.0,0.0,0.0,0.0,0.0,0.0,0.9658,0.9856,0.9822,0.9822,0.9951,1.0107,1.0276,1.0405,1.0555,1.0717,1.0717,1.0717,1.0717,1.0717,1.0717,1.0717,1.0717,1.0751,1.0665,1.0257,0.6187,-0.0,-0.0,-0.0,-0.0,-0.0,-0.0,-0.0,-0.0,-0.0,-0.0,-0.0,-0.0,-0.0134,-0.0939,-0.5626,-1.0751,-1.0877,0.0,-1.0982,-1.124,-1.124,-1.163,-1.3193,-1.5147,-1.7007,0.0,0.0,-2.2017,-2.2311,-2.3804,-2.5596,-2.7785,-2.9535,-3.1377,-3.3146,-3.375,-3.4141,-3.457,-3.5019,-3.5469,-3.5898,-3.6112,-3.7575,-4.0924,-4.1309,-4.2832,-4.6059,-4.6301,-4.6301,-4.6301,-4.6301,-4.6301,-4.6301,-4.6301,-4.6828,-4.7908,-4.7908,-4.8485,-4.959,-4.959,-4.959,-4.959,-4.959,-4.959,-4.9769,-5.2206,-5.4306,-5.6237,-5.9208,-6.1525,-6.3079,-6.3079,-6.3079,-6.3079,-6.3079,-6.3079,-6.3079,0.0,0.0,0.0,0.0,0.0,0.0,0.0,0.0,0.0,0.0,0.0,0.0,0.0,0.0,0.0,0.0,0.0,0.0,0.9406,0.9741,0.9836,0.9822,0.9964,1.012,1.0276,1.0419,1.0568,1.0717,1.0717,1.0717,1.0717,1.0717,1.0717,1.0717,1.0717,1.0738,1.0505,0.8472,0.7134,0.5796,0.1615,-0.0,-0.0,-0.0,-0.0,-0.0,-0.0,-0.0,0.0,0.0,-0.0,-0.0403,-0.2417,-0.5232,-0.8051,-1.0079,-1.0738,-1.0738,-1.0826,-1.0853,-1.1001,-1.1887,-1.4379,-1.6748,-1.769,-2.0112,-2.2325,-2.2619,-2.3337,-2.4429,-2.629,-2.7222,-2.874,0.0,-3.2357,-3.3105,-3.4868,-3.5273,-3.5547,-3.5976,-3.6016,-3.7307,-4.0924,-4.2074,-4.3731,-4.618,-4.6301,-4.6301,-4.6301,-4.6301,-4.6301,-4.6301,-4.6301,-4.6828,-4.7908,-4.7908,-4.8485,-4.959,-4.959,-4.959,-4.959,-4.959,-4.959,-4.9769,-5.2592,-5.479,-5.6482,-5.933,-6.1525,-6.3079,-6.3079,-6.3079,-6.3079,-6.3079,-6.3079,-6.3079,0.0,0.0,0.0,0.0,0.0,0.0,0.0,0.0,0.0,0.0,0.0,0.0,0.0,0.0,0.0,0.0,0.0,0.0,0.0,0.8757,0.9856,0.9829,0.9895,1.0168,1.0276,1.046,1.0609,1.0717,1.0717,1.0717,1.0717,1.0717,1.0717,1.0717,1.0724,1.0744,1.0498,0.7932,0.7268,0.7286,0.2153,-0.0,-0.0,-0.0,-0.0,-0.0,-0.0,-0.0,0.0,0.0,-0.0,-0.0673,-0.4327,-0.5541,-0.6207,-0.9777,-1.0867,-1.0867,-1.0975,-1.1009,-1.1029,-1.1138,-1.3642,-1.6167,-1.6874,-1.9449,-2.2049,-2.2682,-2.2859,-2.3393,-2.5113,-2.5517,-2.6816,-3.0786,-3.1493,-3.2482,-3.5006,-3.5488,-3.5684,-3.5996,-3.6403,-3.7709,-4.0278,-4.2074,-4.3979,-4.618,-4.6301,-4.6301,-4.6301,-4.6301,-4.6301,-4.6301,-4.6301,-4.6828,-4.7908,-4.7908,-4.8485,-4.959,-4.959,-4.959,-4.959,-4.959,-4.959,-4.9769,-5.2592,-5.479,-5.6482,-5.933,-6.1525,-6.3079,-6.3079,-6.3079,-6.3079,-6.3079,-6.3079,-6.3079,0.0,0.0,0.0,0.0,0.0,0.0,0.0,0.0,0.0,0.0,0.0,0.0,0.0,0.0,0.0,0.0,0.0,0.0,0.0,0.6285,0.9767,0.9856,1.0015,1.0169,1.0283,1.0568,1.0717,1.0717,1.0717,1.0717,1.0717,1.0717,1.0717,1.0724,1.0744,1.0638,1.0672,1.0558,0.6606,0.0269,0.0135,-0.0,-0.0,-0.0,-0.0,-0.0,-0.0,0.0,0.0,0.0,-0.0,-0.0675,-0.4521,-0.5765,0.0,-1.0052,-1.1192,0.0,0.0,0.0,-1.1158,-1.1158,-1.2781,-1.4692,-1.6639,-1.8611,-2.0743,-2.2572,-2.2859,-2.3393,-2.5113,-2.5517,-2.6816,-3.0786,-3.1727,-3.2814,-3.5045,-3.5742,-3.5996,-3.6016,-3.7441,-3.8597,0.0,-4.0278,-4.2706,-4.6059,-4.6301,-4.6301,-4.6301,-4.6301,-4.6301,-4.6301,-4.6301,-4.6828,-4.7908,-4.7908,-4.8485,-4.959,-4.959,-4.959,-4.959,-4.959,-4.959,-4.9769,-5.2592,-5.479,-5.6482,-5.933,-6.1525,-6.3079,-6.3079,-6.3079,-6.3079,-6.3079,-6.3079,-6.3079,0.0,0.0,0.0,0.0,0.0,0.0,0.0,0.0,0.0,0.0,0.0,0.0,0.0,0.0,0.0,0.0,0.0,0.0,0.0,0.2092,0.4324,0.6478,0.8672,0.9986,1.0344,1.0518,1.0744,1.0744,1.0724,1.0717,1.0717,1.0717,1.0717,1.0724,1.0744,0.9407,0.7393,0.9728,0.6606,-0.0,-0.0,-0.0,-0.0,-0.0,-0.0,-0.0,0.0,0.0,0.0,0.0,0.0,0.0,-0.9232,0.0,0.0,-1.0191,0.0,0.0,0.0,0.0,-1.1341,-1.1443,-1.2894,-1.4472,-1.5176,-1.7746,-2.034,-2.0894,-2.2022,-2.3133,-2.3665,-2.3969,-2.5418,-2.9395,-3.0463,-3.182,-3.5317,-3.5937,-3.6016,-3.6016,-3.6539,0.0,0.0,0.0,0.0,-4.4497,-4.5671,-4.6301,-4.6301,-4.6301,-4.6301,-4.6301,-4.6301,-4.6828,-4.7908,-4.7908,-4.8485,-4.959,-4.959,-4.959,-4.959,-4.959,-4.959,-4.9769,-5.2592,-5.479,-5.6482,-5.933,-6.1525,-6.3079,-6.3079,-6.3079,-6.3079,-6.3079,-6.3079,-6.3079,0.0,0.0,0.0,0.0,0.0,0.0,0.0,0.0,0.0,0.0,0.0,0.0,0.0,0.0,0.0,0.0,0.0,0.0,0.0,0.0,0.0991,0.3013,0.5231,0.7002,0.8296,0.8668,0.9407,1.0638,1.0744,1.0738,1.0751,1.0731,1.0731,1.0751,1.0765,0.9419,0.7263,0.7009,0.4174,-0.0,-0.0,-0.0,-0.0,-0.0,-0.0,0.0,0.0,0.0,0.0,0.0,0.0,0.0,0.0,0.0,0.0,0.0,0.0,0.0,0.0,-1.147,-1.1497,-1.1592,-1.2466,-1.3587,-1.429,-1.6263,-1.8508,-1.9773,-2.1118,-2.2315,-2.2881,-2.3273,-2.4525,-2.7988,-2.8782,-3.0316,-3.4396,-3.5021,-3.5314,-3.5879,-3.6016,-3.6403,0.0,0.0,0.0,-4.2706,-4.4374,-4.5403,-4.5403,-4.5914,-4.6301,-4.6301,-4.6301,-4.6828,-4.7908,-4.7908,-4.8485,-4.959,-4.959,-4.959,-4.959,-4.959,-4.959,-4.9769,-5.2001,-5.4187,-5.6482,-5.872,-6.1019,-6.3079,-6.3079,-6.3079,-6.3079,-6.3079,-6.3079,-6.3079,0.0,0.0,0.0,0.0,0.0,0.0,0.0,0.0,0.0,0.0,0.0,0.0,0.0,0.0,0.0,0.0,0.0,0.0,0.0,0.0,0.0,-0.0,-0.0,0.1423,0.4595,0.4926,0.6715,1.0124,1.0365,1.0498,1.0672,1.0478,1.0485,1.0672,1.0672,1.0685,1.029,0.3096,-0.0,-0.0,-0.0,-0.0,-0.0,-0.0,0.0,0.0,0.0,0.0,0.0,0.0,0.0,0.0,0.0,0.0,0.0,0.0,0.0,-1.1619,-1.1619,-1.1619,-1.1619,-1.1619,-1.1619,-1.2043,-1.3872,-1.429,-1.5416,-1.9228,-2.0274,-2.1016,0.0,0.0,-2.4575,-2.678,-2.7124,-2.8648,-3.282,-3.3309,-3.402,0.0,0.0,0.0,0.0,0.0,0.0,-4.0795,0.0,-4.3606,-4.3606,-4.5281,-4.6301,-4.618,-4.6301,-4.6828,-4.7908,-4.7958,-4.8535,-4.959,-4.959,-4.959,-4.959,-4.959,-4.959,-4.9665,-5.0902,-5.3243,-5.636,-5.7605,-6.0144,-6.3079,-6.3079,-6.3079,-6.3079,-6.3079,-6.3079,-6.3079,0.0,0.0,0.0,0.0,0.0,0.0,0.0,0.0,0.0,0.0,0.0,0.0,0.0,0.0,0.0,0.0,0.0,0.0,0.0,0.0,0.0,0.0,0.0,0.0,0.0,0.0,0.0,0.2684,0.5362,0.8066,1.0672,0.7922,0.8195,1.0672,1.0692,1.0699,1.029,0.3096,-0.0,-0.0,0.0,-0.0,-0.0,0.0,0.0,0.0,0.0,0.0,0.0,0.0,0.0,0.0,0.0,-0.4933,-0.7856,0.0,0.0,-1.1647,-1.1647,-1.1633,-1.1619,-1.1619,-1.1619,-1.1763,-1.218,-1.3452,-1.5177,-1.7744,-1.9543,-2.1217,-2.3324,-2.3901,-2.5226,-2.8646,-2.9292,0.0,-3.4727,-3.5314,0.0,-3.5879,0.0,-3.6016,-3.6016,-3.6403,0.0,0.0,-4.1287,-4.3208,-4.1947,-4.4645,-4.5671,-4.4374,-4.5671,-4.6828,-4.7908,-4.8736,-4.9314,-4.959,-4.959,-4.959,-4.959,-4.959,-4.959,-4.9769,-5.2104,-5.4313,-5.6482,-5.8843,-6.1139,-6.3079,-6.3079,-6.3079,-6.3079,-6.3079,-6.3079,-6.3079,0.0,0.0,0.0,0.0,0.0,0.0,0.0,0.0,0.0,0.0,0.0,0.0,0.0,0.0,0.0,0.0,0.0,0.0,0.0,0.0,0.0,0.0,0.0,0.0,0.0,0.0,0.0,0.0,0.0,0.0,0.6053,0.5637,0.5637,0.6191,0.9326,0.8923,0.5796,0.1749,0.0,0.0,0.0,0.0,0.0,0.0,0.0,0.0,0.0,0.0,0.0,0.0,0.0,-0.0,-0.0,-0.1454,-0.3631,-0.5818,0.0,-1.0173,-1.1358,-1.1633,-1.1619,-1.1619,-1.1619,-1.1619,-1.1619,-1.2517,-1.4153,-1.7132,-1.8742,-2.0382,-2.3484,-2.4195,-2.5098,0.0,0.0,0.0,-3.3013,-3.4158,-3.5021,0.0,-3.6016,0.0,-3.6016,-3.6016,-3.6016,0.0,-3.9366,-4.103,-4.0148,-4.3357,-4.4743,-4.3731,-4.5403,-4.6828,-4.7908,-4.9038,-4.959,-4.959,-4.959,-4.959,-4.959,-4.959,-4.9715,-5.0122,0.0,-5.4952,-5.687,-5.9444,-6.1525,-6.3079,-6.3079,-6.3079,-6.3079,-6.3079,-6.3079,-6.3079,0.0,0.0,0.0,0.0,0.0,0.0,0.0,0.0,0.0,0.0,0.0,0.0,0.0,0.0,0.0,0.0,0.0,0.0,0.0,0.0,0.0,0.0,0.0,0.0,0.0,0.0,0.0,0.0,0.0,0.0,0.0,0.0,0.0,0.0,0.0,0.0,0.0,0.0,0.0,0.0,0.0,0.0,0.0,0.0,0.0,0.0,0.0,0.0,0.0,0.0,-0.0,-0.0,-0.0,-0.0,-0.0,-0.0,-0.319,-0.7391,-1.0768,-1.1647,-1.1619,-1.1619,-1.1619,-1.1626,-1.164,-1.1887,-1.3283,-1.6942,-1.8258,-1.9878,-2.3508,-2.4462,-2.4636,-2.4918,0.0,-2.8485,-3.0451,-3.2316,-3.4176,-3.5879,-3.6016,-3.6016,-3.6016,-3.6016,-3.6016,-3.6016,-3.7441,-3.8221,-3.8221,-4.167,-4.3879,-4.4099,-4.5698,-4.7004,-4.8008,-4.9063,-4.959,-4.959,-4.959,-4.959,-4.959,-4.959,-4.9891,-5.0575,-5.3083,-5.5267,-5.7397,-5.9858,-6.1762,-6.3079,-6.3079,-6.3079,-6.3079,-6.3079,-6.3079,-6.3079,0.0,0.0,0.0,0.0,0.0,0.0,0.0,0.0,0.0,0.0,0.0,0.0,0.0,0.0,0.0,0.0,0.0,0.0,0.0,0.0,0.0,0.0,0.0,0.0,0.0,0.0,0.0,0.0,0.0,0.0,0.0,0.0,0.0,0.0,0.0,0.0,0.0,0.0,0.0,0.0,0.0,0.0,0.0,0.0,0.0,0.0,0.0,0.0,0.0,0.0,-0.0,-0.0,-0.0,-0.0,-0.0,-0.0,-0.0582,-0.2903,-0.9769,-1.1529,-1.1647,-1.1626,-1.1619,-1.1647,-1.1769,-1.3107,0.0,-1.7595,-1.9654,-2.1567,-2.4061,-2.4609,-2.5065,-2.6794,-2.8629,-3.0451,-3.2455,-3.4314,-3.5587,0.0,-3.6016,-3.6016,-3.6016,-3.6016,0.0,0.0,-3.6287,-3.6403,-3.6403,-4.103,-4.4567,-4.6439,-4.7282,-4.7958,-4.8611,-4.9264,-4.959,-4.959,-4.959,-4.959,-4.959,-4.959,-4.9891,-5.0575,-5.4298,0.0,-5.7521,-6.1144,-6.2817,-6.3079,-6.3079,-6.3079,-6.3079,-6.3079,-6.3079,-6.3079,0.0,0.0,0.0,0.0,0.0,0.0,0.0,0.0,0.0,0.0,0.0,0.0,0.0,0.0,0.0,0.0,0.0,0.0,0.0,0.0,0.0,0.0,0.0,0.0,0.0,0.0,0.0,0.0,0.0,0.0,0.0,0.0,0.0,0.0,0.0,0.0,0.0,0.0,0.0,0.0,0.0,0.0,0.0,0.0,0.0,0.0,0.0,0.0,0.0,0.0,-0.0,-0.0,-0.0,-0.0,-0.0,-0.0,-0.0,-0.1307,-0.6982,-1.0047,-1.1647,-1.1626,-1.1619,-1.1653,-1.1796,0.0,0.0,-1.7862,-1.9966,-2.2202,-2.4153,-2.4636,-2.4918,-2.5786,-2.847,-3.0593,-3.1597,-3.4158,-3.6016,-3.6016,-3.6016,-3.6016,-3.6016,-3.6016,-3.6016,-3.6016,-3.6016,-3.6016,-3.6016,-4.0018,-4.3844,-4.6982,-4.7631,-4.8184,-4.8761,-4.9314,-4.959,-4.959,-4.959,-4.959,-4.959,-4.959,-5.0067,-5.1135,-5.4683,-5.6802,-5.7841,-6.1556,-6.3079,-6.3079,-6.3079,-6.3079,-6.3079,-6.3079,-6.3079,-6.3079,0.0,0.0,0.0,0.0,0.0,0.0,0.0,0.0,0.0,0.0,0.0,0.0,0.0,0.0,0.0,0.0,0.0,0.0,0.0,0.0,0.0,0.0,0.0,0.0,0.0,0.0,0.0,0.0,0.0,0.0,0.0,0.0,0.0,0.0,0.0,0.0,0.0,0.0,0.0,0.0,0.0,0.0,0.0,0.0,0.0,0.0,0.0,0.0,0.0,0.0,-0.0,-0.0292,-0.1896,-0.1313,-0.0,-0.0,-0.0,-0.0872,-0.4791,-0.8579,-1.166,-1.1626,-1.1619,-1.1804,-1.2415,-1.4155,-1.6379,-1.8546,-2.0705,-2.2657,-2.4327,-2.4636,-2.4636,0.0,-2.7475,-2.9884,-3.031,-3.3291,-3.5587,-3.6016,-3.6016,0.0,-3.6016,-3.6016,0.0,-3.6016,-3.6016,-3.6268,-3.7059,-3.9866,-4.3228,-4.7157,-4.7807,-4.836,-4.8937,-4.9389,-4.959,-4.959,-4.959,-4.959,-4.959,-4.9715,-5.0318,-5.1405,-5.4574,-5.6734,-5.8257,-6.1287,-6.2817,-6.3079,-6.3079,-6.3079,-6.3079,-6.3079,-6.3079,-6.3079,0.0,0.0,0.0,0.0,0.0,0.0,0.0,0.0,0.0,0.0,0.0,0.0,0.0,0.0,0.0,0.0,0.0,0.0,0.0,0.0,0.0,0.0,0.0,0.0,0.0,0.0,0.0,0.0,0.0,0.0,0.0,0.0,0.0,0.0,0.0,0.0,0.0,0.0,0.0,0.0,0.0,0.0,0.0,0.0,0.0,0.0,0.0,0.0,0.0,0.0,0.0,-0.1167,-0.8334,-0.5693,-0.0,-0.0,0.0,0.0,-0.4794,-0.8594,-1.1543,-1.1633,-1.1619,-1.2121,-1.4302,0.0,-1.8466,-2.0854,-2.2942,-2.4341,-2.4636,-2.4636,-2.4636,0.0,0.0,-2.8341,-3.0026,-3.2158,-3.402,-3.5743,0.0,0.0,-3.6016,-3.6016,-3.6016,-3.6016,-3.6016,-3.7441,-4.0537,-4.1477,-4.3764,-4.7683,-4.8385,-4.8962,-4.9515,-4.9565,-4.959,-4.959,-4.959,-4.959,-4.9615,-5.0117,-5.0695,-5.1431,-5.3766,-5.5976,0.0,-5.9994,-6.1644,-6.3079,-6.3079,-6.3079,-6.3079,-6.3079,-6.3079,-6.3079,0.0,0.0,0.0,0.0,0.0,0.0,0.0,0.0,0.0,0.0,0.0,0.0,0.0,0.0,0.0,0.0,0.0,0.0,0.0,0.0,0.0,0.0,0.0,0.0,0.0,0.0,0.0,0.0,0.0,0.0,0.0,0.0,0.0,0.0,0.0,0.0,0.0,0.0,0.0,0.0,0.0,0.0,0.0,0.0,0.0,0.0,0.0,0.0,0.0,0.0,0.0,0.0,-0.9216,-0.9512,0.0,0.0,-0.0,-0.0875,-0.4794,-0.8594,-1.1549,-1.1633,-1.1619,-1.2265,-1.462,0.0,-1.877,-2.1186,-2.3264,-2.4636,-2.4636,-2.4636,-2.4636,0.0,0.0,0.0,-3.0026,-3.2018,-3.3882,-3.5743,-3.6016,-3.6016,0.0,0.0,-3.6016,-3.6016,-3.6016,-3.7697,-4.1477,-4.1938,-4.3834,-4.7758,-4.846,-4.9038,-4.959,-4.959,-4.959,-4.959,-4.959,-4.959,-4.9615,-5.0167,-5.0745,-5.1431,-5.4724,-5.6795,0.0,-6.0899,-6.2438,-6.3079,-6.3079,-6.3079,-6.3079,-6.3079,-6.3079,-6.3079,0.0,0.0,0.0,0.0,0.0,0.0,0.0,0.0,0.0,0.0,0.0,0.0,0.0,0.0,0.0,0.0,0.0,0.0,0.0,0.0,0.0,0.0,0.0,0.0,0.0,0.0,0.0,0.0,0.0,0.0,0.0,0.0,0.0,0.0,0.0,0.0,0.0,0.0,0.0,0.0,0.0,0.0,0.0,0.0,0.0,0.0,0.0,0.0,0.0,0.0,0.0,0.0,0.0,0.0,0.0,0.0,-0.0,-0.0874,-0.4794,-0.8594,-1.1549,-1.1633,-1.1619,-1.241,-1.5345,-1.7038,-1.8916,-2.1941,-2.3574,-2.4636,-2.4636,-2.4636,-2.4636,0.0,0.0,-2.8213,-3.0026,-3.2018,-3.3882,-3.5743,0.0,-3.6016,-3.6016,-3.6016,-3.6016,-3.6016,-3.6016,-3.7779,-4.1767,-4.2186,-4.4044,-4.8008,-4.8711,-4.9213,-4.959,-4.959,-4.959,-4.959,-4.959,-4.959,-4.9615,-5.0343,-5.0896,-5.1456,-5.5168,-5.7212,0.0,-6.1139,-6.2672,-6.3079,-6.3079,-6.3079,-6.3079,-6.3079,-6.3079,-6.3079,0.0,0.0,0.0,0.0,0.0,0.0,0.0,0.0,0.0,0.0,0.0,0.0,0.0,0.0,0.0,0.0,0.0,0.0,0.0,0.0,0.0,0.0,0.0,0.0,0.0,0.0,0.0,0.0,0.0,0.0,0.0,0.0,0.0,0.0,0.0,0.0,0.0,0.0,0.0,0.0,0.0,0.0,0.0,0.0,0.0,0.0,0.0,0.0,0.0,0.0,0.0,0.0,0.0,0.0,0.0,0.0,-0.0,-0.0871,-0.4791,-0.8594,-1.1549,-1.1633,-1.1619,-1.2691,-1.7088,-1.8061,-1.9355,-2.3606,-2.4636,-2.4636,-2.4636,-2.4636,-2.4636,-2.4636,-2.621,0.0,-3.0026,-3.2018,-3.3882,0.0,-3.6016,-3.6016,-3.6016,-3.6016,-3.6016,-3.6016,-3.6016,0.0,-4.1767,-4.2478,-4.4687,-4.8609,-4.9289,-4.959,-4.959,-4.959,-4.959,-4.959,-4.959,-4.959,-4.964,-5.0745,-5.1272,-5.1456,-5.4181,-5.644,0.0,-5.9872,-6.1525,-6.3079,-6.3079,-6.3079,-6.3079,-6.3079,-6.3079,-6.3079,0.0,0.0,0.0,0.0,0.0,0.0,0.0,0.0,0.0,0.0,0.0,0.0,0.0,0.0,0.0,0.0,0.0,0.0,0.0,0.0,0.0,0.0,0.0,0.0,0.0,0.0,0.0,0.0,0.0,0.0,0.0,0.0,0.0,0.0,0.0,0.0,0.0,0.0,0.0,0.0,0.0,0.0,0.0,0.0,0.0,0.0,0.0,0.0,0.0,0.0,0.0,0.0,0.0,0.0,0.0,0.0,0.0,0.0,-0.8719,-1.063,-1.166,-1.1626,-1.1619,-1.2691,-1.7088,-1.8061,-1.9355,-2.3754,-2.4636,-2.4636,-2.4636,-2.4636,-2.4636,-2.4636,-2.621,-2.8213,0.0,0.0,0.0,-3.5743,-3.6016,-3.6016,0.0,0.0,-3.6016,-3.6016,-3.7455,-3.9516,-4.2368,-4.4186,-4.6285,-4.8761,-4.9314,-4.959,-4.959,-4.959,-4.959,-4.959,-4.959,-4.9791,-5.0167,-5.0946,-5.1498,-5.201,-5.5625,-5.7496,-5.8257,-6.1139,-6.2555,-6.3079,-6.3079,-6.3079,-6.3079,-6.3079,-6.3079,-6.3139,0.0,0.0,0.0,0.0,0.0,0.0,0.0,0.0,0.0,0.0,0.0,0.0,0.0,0.0,0.0,0.0,0.0,0.0,0.0,0.0,0.0,0.0,0.0,0.0,0.0,0.0,0.0,0.0,0.0,0.0,0.0,0.0,0.0,0.0,0.0,0.0,0.0,0.0,0.0,0.0,0.0,0.0,-0.0269,0.0,0.0,0.0,0.0,0.0,0.0,0.0,0.0,0.0,0.0,0.0,0.0,0.0,0.0,0.0,0.0,-1.1653,-1.1647,-1.1626,-1.1619,-1.2691,-1.7088,-1.8061,-1.9355,-2.3754,-2.4636,-2.4636,-2.4636,-2.4636,-2.477,-2.5639,-2.7346,-2.9186,0.0,0.0,0.0,-3.5879,0.0,0.0,0.0,-3.6016,-3.6016,-3.6016,-3.8118,-4.0399,-4.2703,-4.4944,-4.7094,-4.9063,-4.9414,-4.959,-4.959,-4.959,-4.959,-4.959,-4.959,-4.9891,-5.0444,-5.1021,-5.1949,-5.3258,-5.6611,-5.8383,0.0,-6.1939,-6.3079,-6.3079,-6.3079,-6.3079,-6.3079,-6.3079,-6.3079,-6.3169,0.0,0.0,0.0,0.0,0.0,0.0,0.0,0.0,0.0,0.0,0.0,0.0,0.0,0.0,0.0,0.0,0.0,0.0,0.0,0.0,0.0,0.0,0.0,0.0,0.0,0.0,0.0,-0.0,-0.0,-0.0,-0.0,0.0,0.0,0.0,0.0,0.0,0.0,0.0,0.0,0.0,0.0,0.0,0.0,0.0,0.0,0.0,0.0,0.0,0.0,0.0,0.0,0.0,0.0,0.0,0.0,0.0,0.0,0.0,0.0,0.0,0.0,0.0,-1.1763,0.0,-1.7088,-1.8207,0.0,-2.3754,-2.4636,-2.4636,-2.4636,-2.4636,-2.5212,-2.7215,-2.9043,-3.1017,0.0,-3.4883,0.0,0.0,-3.6016,0.0,-3.6016,-3.6016,-3.6035,-3.6055,-3.8294,-4.0576,-4.277,-4.5146,-4.7418,-4.9565,-4.959,-4.959,-4.959,-4.959,-4.959,-4.959,-4.964,-4.9941,-5.0494,-5.1071,-5.2613,0.0,-5.6995,-5.898,0.0,-6.2409,-6.3079,-6.3079,-6.3079,-6.3079,-6.3079,-6.3079,-6.3109,-6.3228,0.0,0.0,0.0,0.0,0.0,0.0,0.0,0.0,0.0,0.0,0.0,0.0,0.0,0.0,0.0,0.0,0.0,0.0,0.0,0.0,0.0,0.0,0.0,0.0,0.0,0.0,0.0,-0.0,-0.0,-0.0,-0.0,-0.0,0.0,0.0,0.0,0.0,0.0,0.0,0.0,0.0,0.0,0.0,0.0,0.0,0.0,0.0,-0.9974,-1.0391,0.0,0.0,0.0,0.0,0.0,0.0,0.0,0.0,-1.1619,0.0,0.0,0.0,0.0,0.0,0.0,0.0,0.0,0.0,0.0,0.0,0.0,0.0,0.0,-2.4636,-2.5212,-2.7215,-2.9043,-3.1017,-3.2874,0.0,0.0,-3.6016,-3.6016,-3.6016,-3.6016,-3.6016,-3.6152,-3.6484,-3.9926,-4.2393,-4.3153,-4.6789,-4.9053,-4.959,-4.959,-4.959,-4.959,-4.959,-4.959,-4.959,-5.0017,-5.0519,-5.1096,-5.1649,-5.3069,-5.5366,-5.7159,-5.898,-6.06,-6.2409,-6.3079,-6.3079,-6.3079,-6.3079,-6.3079,-6.3079,-6.3378,-6.3887,0.0,0.0,0.0,0.0,0.0,0.0,0.0,0.0,0.0,0.0,0.0,0.0,0.0,0.0,0.0,0.0,0.0,0.0,0.0,0.0,0.0,0.0,0.0,0.0,0.0,0.0,0.0,0.0,0.0,-0.0,0.0,0.0,0.0,0.0,0.0,0.0,0.0,0.0,0.0,0.0,-1.0705,0.0,0.0,0.0,0.0,0.0,-1.0846,-1.1002,0.0,-1.1267,-1.1436,-1.1619,0.0,0.0,0.0,0.0,-1.1619,0.0,0.0,0.0,0.0,-1.2602,-1.3587,-1.5239,0.0,0.0,0.0,0.0,0.0,0.0,0.0,0.0,-2.6502,-2.8485,-3.0326,0.0,0.0,0.0,-3.6016,-3.6016,-3.6016,-3.6016,0.0,-3.6654,-3.7375,-3.7955,-4.1684,-4.4163,-4.4671,-4.7792,-4.959,-4.959,-4.959,-4.959,-4.959,-4.959,-4.959,-4.9615,-5.0142,-5.072,-5.1297,-5.2578,-5.4525,-5.6699,-5.8355,-6.0144,-6.1762,-6.2672,-6.3079,-6.3079,-6.3079,-6.3079,-6.3079,-6.3079,-6.3468,-6.4096,0.0,0.0,0.0,0.0,0.0,0.0,0.0,0.0,0.0,0.0,0.0,0.0,0.0,0.0,0.0,0.0,0.0,0.0,0.0,0.0,0.0,0.0,0.0,0.0,0.0,0.0,0.0,0.0,0.0,0.0,0.0,0.0,-0.0,0.0,0.0,-0.0,-0.0,-0.0,0.0,-0.9875,-1.0424,0.0,0.0,0.0,0.0,0.0,0.0,0.0,0.0,-1.1158,-1.1629,-1.2015,-1.1613,0.0,0.0,0.0,0.0,0.0,0.0,-1.3729,-1.2888,-1.4432,-1.4991,-1.6226,-1.998,0.0,0.0,0.0,0.0,0.0,0.0,-2.6357,0.0,0.0,0.0,0.0,-3.5743,-3.6016,-3.6016,-3.6016,-3.6287,0.0,-3.6403,-3.7955,-3.9205,-3.9869,-4.331,-4.5667,-4.6264,-4.8361,-4.959,-4.959,-4.959,-4.959,-4.959,-4.959,-4.959,-4.9615,-5.0243,-5.082,-5.1431,-5.3661,-5.5982,-5.8131,0.0,0.0,-6.3079,-6.3079,-6.3079,-6.3079,-6.3079,-6.3079,-6.3079,-6.3079,-6.3528,-6.4393,0.0,0.0,0.0,0.0,0.0,0.0,0.0,0.0,0.0,0.0,0.0,0.0,0.0,0.0,0.0,0.0,0.0,0.0,0.0,0.0,0.0,0.0,0.0,0.0,0.0,0.0,0.0,0.0,0.0,0.0,-0.0,-0.0,-0.0,-0.0,0.0,-0.0,-0.0,-0.0,-0.2418,-0.6447,-0.9442,0.0,0.0,0.0,0.0,0.0,0.0,0.0,0.0,-1.1124,-1.2373,-1.3528,-1.2144,0.0,0.0,0.0,0.0,0.0,-1.6263,-1.6545,-1.6413,-1.6685,-1.7949,-1.9481,-2.0697,-2.2144,0.0,0.0,0.0,0.0,0.0,-2.736,-2.8629,0.0,0.0,-3.5724,0.0,0.0,-3.6016,-3.6016,0.0,-3.8221,-3.8221,-3.9758,-4.115,-4.206,-4.417,-4.5811,-4.6632,-4.8558,-4.959,-4.959,-4.959,-4.959,-4.959,-4.959,-4.959,-4.9615,-5.0645,-5.1197,-5.1431,-5.4077,-5.6229,-5.8131,0.0,-6.1525,-6.3079,-6.3079,-6.3079,-6.3079,-6.3079,-6.3079,-6.3079,-6.3079,-6.3827,-6.5349,0.0,0.0,0.0,0.0,0.0,0.0,0.0,0.0,0.0,0.0,0.0,0.0,0.0,0.0,0.0,0.0,0.0,0.0,0.0,0.0,0.0,0.0,0.0,0.0,0.0,0.0,0.0,0.0,0.0,-0.0,-0.0,-0.0,-0.0,-0.0,0.0,-0.0,-0.0269,-0.4174,-0.5647,-0.5767,0.0,0.0,0.0,0.0,0.0,0.0,0.0,0.0,0.0,0.0,-1.3319,-1.4178,-1.4523,0.0,0.0,0.0,0.0,0.0,-1.8229,-1.8798,-1.9077,-2.0051,-2.0296,-2.065,-2.2199,-2.3288,0.0,0.0,0.0,0.0,0.0,0.0,-3.0326,-3.402,0.0,-3.6016,-3.6016,-3.6016,-3.6016,0.0,0.0,-3.8597,-3.8597,-4.1052,-4.2997,-4.3993,-4.579,-4.7194,-4.8273,-4.9177,-4.959,-4.959,-4.959,-4.959,-4.959,-4.959,-4.9741,-5.0042,-5.087,-5.1448,-5.1884,-5.5181,-5.7213,-5.8131,0.0,-6.2409,-6.3079,-6.3079,-6.3079,-6.3079,-6.3079,-6.3079,-6.3169,-6.3857,-6.4515,-6.5648,0.0,0.0,0.0,0.0,0.0,0.0,0.0,0.0,0.0,0.0,0.0,0.0,0.0,0.0,0.0,0.0,0.0,0.0,0.0,0.0,0.0,0.0,0.0,0.0,0.0,0.0,-0.0,-0.0,-0.0,-0.0,-0.0,-0.0,-0.0,0.0,-0.0,-0.0,-0.0404,-0.7694,-0.918,-0.6849,0.0,0.0,0.0,0.0,0.0,0.0,0.0,0.0,0.0,0.0,0.0,0.0,0.0,0.0,0.0,-1.7809,-1.7809,-1.8239,-2.0201,-2.0756,-2.1032,-2.2585,0.0,-2.1579,-2.339,-2.3941,0.0,0.0,0.0,0.0,0.0,-3.0326,0.0,-3.5587,-3.6016,-3.6152,-3.6539,-3.6674,-3.6789,-3.7193,-3.8729,-3.9758,-3.9758,-4.2673,-4.4929,-4.5845,-4.7381,-4.8535,-4.954,-4.959,-4.959,-4.959,-4.959,-4.959,-4.959,-4.959,-4.9866,-5.0419,-5.0996,-5.1574,-5.2261,-5.6224,-5.8005,-5.8257,-6.1673,-6.3079,-6.3079,-6.3079,-6.3079,-6.3079,-6.3079,-6.3079,-6.3228,-6.4545,-6.5024,-6.5648,0.0,0.0,0.0,0.0,0.0,0.0,0.0,0.0,0.0,0.0,0.0,0.0,0.0,0.0,0.0,0.0,0.0,0.0,0.0,0.0,0.0,0.0,0.0,0.0,0.0,-0.0,-0.0,-0.0,-0.0,-0.0,-0.0,-0.0,-0.0,-0.0,-0.0,-0.0,-0.0404,-0.7694,-1.0551,-1.0391,-1.0632,0.0,0.0,0.0,0.0,0.0,0.0,0.0,0.0,0.0,0.0,0.0,0.0,0.0,0.0,-1.9912,-1.9912,-2.034,-2.216,-2.2722,-2.2722,-2.2859,-2.2873,0.0,-2.3634,-2.3781,0.0,-2.6808,0.0,0.0,0.0,-3.4314,-3.5724,-3.6016,-3.6016,-3.6539,-3.8221,0.0,-3.8993,-4.0666,-4.2328,-4.3333,-4.3333,-4.5477,-4.7059,-4.7733,-4.841,-4.8962,-4.9565,-4.959,-4.959,-4.959,-4.959,-4.959,-4.959,-4.959,-4.9866,-5.0419,-5.0996,-5.1574,-5.2261,-5.6224,-5.8005,-5.8257,-6.1673,-6.3079,-6.3079,-6.3079,-6.3079,-6.3079,-6.3079,-6.3079,-6.3228,-6.4545,-6.5024,-6.5648,0.0,0.0,0.0,0.0,0.0,0.0,0.0,0.0,0.0,0.0,0.0,0.0,0.0,0.0,0.0,0.0,0.0,0.0,0.0,0.0,0.0,0.0,0.0,-0.0,-0.0,-0.0,-0.0,-0.0,-0.0,-0.0,-0.0,-0.0,0.0,0.0,-0.0,-0.0,-0.0269,-0.5242,-0.8622,-1.0672,-1.0751,-1.0731,0.0,0.0,0.0,0.0,0.0,0.0,0.0,0.0,-1.7389,-1.9504,-2.0448,-2.1321,-2.1872,-2.1872,-2.1872,-2.2022,-2.2722,-2.2859,-2.2859,-2.2859,-2.3006,0.0,0.0,-2.5696,-2.6511,-2.8806,-2.9186,0.0,0.0,0.0,-3.6016,-3.6016,-3.6016,-3.6674,-3.8353,-3.8597,-3.9256,-4.1052,-4.2706,-4.3731,-4.3731,-4.5749,-4.7355,-4.7857,-4.8435,-4.9012,-4.9565,-4.959,-4.959,-4.959,-4.959,-4.959,-4.959,-4.959,-5.0067,-5.0946,-5.1172,-5.2368,-5.423,-5.6875,-5.8634,-5.9749,-6.2057,-6.3079,-6.3079,-6.3079,-6.3079,-6.3079,-6.3079,-6.3318,-6.3767,-6.4695,-6.5827,-6.7389,0.0,0.0,0.0,0.0,0.0,0.0,0.0,0.0,0.0,0.0,0.0,0.0,0.0,0.0,0.0,0.0,0.0,0.0,0.0,0.0,0.0,0.0,0.0,-0.0,-0.0,-0.0,-0.0,-0.0,-0.0,-0.0,-0.0,0.0,0.0,0.0,0.0,-0.0,-0.0269,-0.389,-0.7393,-1.0665,-1.0744,-1.0717,0.0,0.0,0.0,0.0,0.0,0.0,0.0,0.0,-1.8329,-2.0585,-2.2387,-2.2859,-2.2859,-2.2859,-2.2859,-2.2859,-2.2859,-2.2859,-2.2996,0.0,0.0,0.0,-2.7645,-2.771,-2.7768,-3.0667,-3.1738,-3.2455,-3.3882,0.0,0.0,0.0,-3.6403,-3.7441,-3.9125,-3.9888,-4.0924,-4.258,-4.3855,-4.4497,-4.4497,-4.6291,-4.7531,-4.7883,-4.8611,-4.9188,-4.9565,-4.959,-4.959,-4.959,-4.959,-4.959,-4.959,-4.959,-5.0167,-5.1272,-5.1885,-5.3214,-5.5419,-5.7213,-5.8856,-6.06,-6.2292,-6.3079,-6.3079,-6.3079,-6.3079,-6.3079,-6.3079,-6.3468,-6.4066,-6.4784,-6.63,-6.85,0.0,0.0,0.0,0.0,0.0,0.0,0.0,0.0,0.0,0.0,0.0,0.0,0.0,0.0,0.0,0.0,0.0,0.0,0.0,0.0,0.0,0.0,0.0,-0.0,-0.0,-0.0,-0.0,-0.0,-0.0,-0.0,-0.0,-0.0,0.0,0.0,0.0,0.0,-0.0269,-0.389,-0.7393,-1.0665,-1.0744,-1.0717,-1.0717,0.0,0.0,0.0,0.0,0.0,0.0,0.0,-1.9142,-2.2084,-2.2672,-2.2859,-2.2859,-2.2859,-2.2859,-2.2859,-2.2859,-2.2859,-2.3393,0.0,0.0,0.0,-3.1219,-2.9517,-2.8193,-3.2367,-3.4727,-3.6016,-3.6016,-3.6016,0.0,-3.6016,-3.7441,-3.9256,-4.0924,-4.258,-4.4374,-4.6059,-4.6301,-4.6301,-4.6301,-4.728,-4.7908,-4.7908,-4.8962,-4.959,-4.959,-4.959,-4.959,-4.959,-4.959,-4.959,-4.959,-4.959,-5.0167,-5.1272,-5.2984,-5.444,-5.5419,-5.7213,-5.898,-6.06,-6.2292,-6.3079,-6.3079,-6.3079,-6.3079,-6.3079,-6.3079,-6.3468,-6.4066,-6.4784,-6.6417,-6.85,0.0,0.0,0.0,0.0,0.0,0.0,0.0,0.0,0.0,0.0,0.0,0.0,0.0,0.0,0.0,0.0,0.0,0.0,0.0,0.0,0.0,0.0,0.0,0.0,0.0,0.0,-0.0,-0.0,-0.0,-0.0,0.0,0.0,0.0,-0.0,0.0,0.0,-0.0135,-0.1208,-0.5101,-1.0672,-1.0758,-1.0731,-1.0717,0.0,0.0,0.0,0.0,0.0,0.0,0.0,0.0,0.0,-2.2432,-2.2699,-2.2859,-2.2859,-2.2859,-2.2859,-2.2859,-2.3788,0.0,-2.5383,0.0,0.0,0.0,-3.159,0.0,0.0,-3.5587,-3.6016,-3.6016,-3.6016,0.0,-3.6016,-3.7441,-3.9256,-4.0924,-4.258,-4.4374,-4.6059,-4.6301,-4.6301,-4.6301,-4.728,-4.7908,-4.7908,-4.8962,-4.959,-4.959,-4.959,-4.959,-4.959,-4.959,-4.959,-4.959,-4.959,-5.0167,-5.1272,-5.2984,-5.5055,-5.7341,-5.898,-6.075,-6.2409,-6.2817,-6.3079,-6.3079,-6.3079,-6.3079,-6.3079,-6.3079,-6.3468,-6.4066,-6.4784,-6.7051,-6.9886,0.0,0.0,0.0,0.0,0.0,0.0,0.0,0.0,0.0,0.0,0.0,0.0,0.0,0.0,0.0,0.0,0.0,0.0,0.0,0.0,0.0,0.0,0.0,0.0,0.0,-0.0,-0.0,0.0,0.0,0.0,0.0,0.0,0.0,-0.0,0.0,-0.0,-0.0,-0.0,-0.3354,-0.875,-1.0085,-1.0738,-1.0717,0.0,0.0,0.0,0.0,0.0,0.0,0.0,0.0,0.0,0.0,0.0,-2.2859,-2.2859,-2.2859,-2.2859,-2.2859,-2.4196,0.0,-2.6439,-2.8325,-3.0594,-3.285,0.0,0.0,0.0,-3.6016,-3.6016,-3.6016,-3.6016,0.0,-3.6016,-3.8088,-4.0018,-4.1052,-4.3232,-4.5135,-4.618,-4.6301,-4.6301,-4.6301,-4.728,-4.7908,-4.7908,-4.8962,-4.959,-4.959,-4.959,-4.959,-4.959,-4.959,-4.959,-4.959,-4.959,-5.0532,-5.2254,-5.3959,-5.6292,-5.898,-5.9994,-6.1407,-6.3079,-6.3079,-6.3079,-6.3079,-6.3079,-6.3079,-6.3079,-6.3079,-6.3468,-6.4066,-6.4784,-6.7249,-7.0535,0.0,0.0,0.0,0.0,0.0,0.0,0.0,0.0,0.0,0.0,0.0,0.0,0.0,0.0,0.0,0.0,0.0,0.0,0.0,0.0,0.0,0.0,0.0,0.0,0.0,0.0,0.0,0.0,0.0,0.0,0.0,0.0,-0.0,-0.0,0.0,-0.0,-0.0,-0.0672,-0.2682,-0.5767,-0.9267,-1.0738,-1.0717,-1.0717,0.0,0.0,0.0,0.0,0.0,0.0,0.0,0.0,-2.2298,-2.2605,-2.2859,-2.2859,-2.2859,-2.2996,-2.3133,-2.4452,-2.6172,-2.8032,-3.0066,0.0,-3.4776,-3.5723,-3.6016,-3.6016,0.0,-3.6016,-3.6016,-3.6016,-3.6016,-3.6016,-3.8993,-4.1181,-4.1181,-4.4127,-4.6301,-4.6301,-4.6301,-4.6301,-4.6301,-4.723,-4.7857,-4.7908,-4.8912,-4.954,-4.959,-4.959,-4.959,-4.959,-4.959,-4.9719,-4.9847,-4.9719,-5.1101,-5.398,-5.5511,-5.7744,-6.0393,-6.06,-6.1644,-6.3079,-6.3079,-6.3079,-6.3079,-6.3079,-6.3079,-6.3079,-6.3079,-6.3438,-6.4006,-6.4843,-6.7332,-7.0439,0.0,0.0,0.0,0.0,0.0,0.0,0.0,0.0,0.0,0.0,0.0,0.0,0.0,0.0,0.0,0.0,0.0,0.0,0.0,0.0,0.0,0.0,0.0,0.0,0.0,-0.0,0.0,0.0,0.0,0.0,0.0,0.0,0.0,-0.0,0.0,-0.0,-0.0404,-0.6061,-0.7268,-0.5767,-0.9267,-1.0738,-1.0717,-1.0717,-1.0717,0.0,0.0,0.0,0.0,0.0,0.0,0.0,-2.2058,-2.2432,-2.2859,-2.2859,-2.2859,-2.327,-2.4588,-2.6306,0.0,0.0,-3.2115,-3.4293,-3.5121,-3.5723,-3.6016,-3.6016,-3.6016,-3.6016,-3.6016,-3.6016,-3.6016,-3.6016,-3.8993,-4.1181,-4.1181,-4.4127,-4.6301,-4.6301,-4.6301,-4.6301,-4.6301,-4.6903,-4.7481,-4.7883,-4.856,-4.9138,-4.9565,-4.959,-4.959,-4.959,-4.959,-5.0181,-5.1492,-5.0181,-5.1379,0.0,-5.5811,-5.7519,-5.976,-6.1674,-6.2701,-6.3079,-6.3079,-6.3079,-6.3079,-6.3079,-6.3079,-6.3079,-6.3079,-6.3169,-6.3524,-6.5849,-6.7966,-6.9978,0.0,0.0,0.0,0.0,0.0,0.0,0.0,0.0,0.0,0.0,0.0,0.0,0.0,0.0,0.0,0.0,0.0,0.0,0.0,0.0,0.0,0.0,0.3885,-0.0,-0.0,-0.0,-0.0,0.0,0.0,0.0,0.0,0.0,0.0,-0.0,0.0,-0.0,-0.0269,-0.4039,-0.6464,-0.8071,-0.9965,-1.0758,-1.0717,-1.0717,-1.0717,-1.085,-1.1637,0.0,0.0,0.0,0.0,0.0,0.0,0.0,-2.2859,-2.2859,-2.2859,-2.3256,0.0,0.0,0.0,-3.1433,0.0,-3.4766,-3.5,-3.5566,-3.6016,-3.6016,-3.6016,-3.6016,-3.6016,-3.6016,-3.6016,-3.6016,-3.8993,-4.1181,-4.1181,-4.4127,-4.6301,-4.6301,-4.6301,-4.6301,-4.6301,-4.6803,-4.7355,-4.7857,-4.8435,-4.9012,-4.9565,-4.959,-4.959,-4.959,-4.959,-5.0308,-5.1989,-5.1142,-5.2625,-5.6463,-5.7084,-5.8742,-6.1292,-6.2523,-6.3079,-6.3079,-6.3079,-6.3079,-6.3079,-6.3079,-6.3079,-6.3079,-6.3079,-6.3079,-6.3429,-6.6211,-6.8092,-6.9785,0.0,0.0,0.0,0.0,0.0,0.0,0.0,0.0,0.0,0.0,0.0,0.0,0.0,0.0,0.0,0.0,0.0,0.0,0.0,0.0,0.0,0.0,0.4958,0.1206,-0.0,-0.0,-0.0,0.0,0.0,0.0,0.0,0.0,0.0,-0.0,0.0,-0.0,-0.0,-0.0,-0.336,-0.9029,-1.0251,-1.0632,-1.0724,-1.0724,-1.0717,-1.085,-1.2281,-1.4101,-1.6172,0.0,0.0,0.0,0.0,0.0,-2.2859,-2.2859,-2.3133,0.0,0.0,0.0,-2.9752,-3.2638,-3.4062,0.0,-3.4707,-3.5391,-3.6016,-3.6016,-3.6016,-3.6016,-3.6016,-3.6016,-3.6016,-3.6016,-3.8993,-4.1181,-4.1181,-4.4127,-4.6301,-4.6301,-4.6301,-4.6301,-4.6301,-4.6728,-4.7255,-4.7857,-4.836,-4.8912,-4.9565,-4.959,-4.959,-4.959,-4.959,-5.0563,-5.2332,-5.2086,-5.4008,-5.8,-5.8755,-6.0529,-6.3079,-6.3079,-6.3079,-6.3079,-6.3079,-6.3079,-6.3079,-6.3079,-6.3079,-6.3079,-6.3079,-6.3279,-6.3743,-6.6517,-6.8527,-7.0235,0.0,0.0,0.0,0.0,0.0,0.0,0.0,0.0,0.0,0.0,0.0,0.0,0.0,0.0,0.0,0.0,0.0,0.0,0.0,0.0,0.0,0.0,0.9806,0.6297,0.0134,-0.0,-0.0,0.0,0.0,0.0,0.0,0.0,0.0,-0.0,0.0,0.0,-0.0,-0.0,-0.0537,-0.2012,-0.8189,-1.0758,-1.0744,-1.0724,-1.0717,-1.0717,-1.0982,-1.3193,-1.5913,-1.6172,-1.8853,0.0,0.0,0.0,-2.2859,-2.2859,-2.3924,0.0,0.0,0.0,-3.2765,0.0,-3.4062,-3.4707,0.0,0.0,-3.6016,0.0,-3.6016,-3.6016,-3.6016,-3.6016,-3.6016,-3.6016,-3.8993,-4.1181,-4.1181,-4.4127,-4.6301,-4.6301,-4.6301,-4.6301,-4.6301,-4.6376,-4.6828,-4.7832,-4.7983,-4.8485,-4.954,-4.959,-4.959,-4.959,-4.959,-5.1042,-5.4029,-5.27,-5.4268,-5.8892,-6.0142,-6.1565,-6.3079,-6.3079,-6.3079,-6.3079,-6.3079,-6.3079,-6.3079,-6.3079,-6.3079,-6.3079,-6.3079,-6.3789,-6.5187,-6.8021,-7.0008,-7.1622,0.0,0.0,0.0,0.0,0.0,0.0,0.0,0.0,0.0,0.0,0.0,0.0,0.0,0.0,0.0,0.0,0.0,0.0,0.0,0.0,0.0,0.0,0.0,0.9262,0.603,0.201,0.0,0.0,0.0,0.0,0.0,-0.0,-0.0,0.0,0.0,0.0,0.0,-0.0,-0.0,-0.0268,-0.3483,-0.7111,-1.0645,-1.0751,-1.0738,-1.0871,-1.1769,-1.3709,-1.6043,-1.7087,-1.9277,-2.1777,-2.1937,0.0,0.0,0.0,-2.4196,0.0,-2.8935,-3.1451,-3.3418,0.0,-3.4062,-3.4707,-3.4707,-3.5391,-3.6016,-3.6016,-3.6016,-3.6016,-3.6016,-3.6016,-3.6016,-3.6016,-3.8993,-4.1181,-4.1181,-4.4127,-4.6301,-4.6301,-4.6301,-4.6301,-4.6301,-4.6301,-4.6753,-4.7832,-4.7908,-4.841,-4.954,-4.959,-4.995,-5.0916,-5.0916,-5.2455,-5.5676,-5.4948,-5.6308,-5.9668,-6.0655,-6.1613,-6.254,-6.2899,-6.3079,-6.3079,-6.3079,-6.3079,-6.3194,-6.3902,-6.4209,-6.432,-6.5142,-6.5728,-6.6628,-6.9491,-7.0992,-7.1952,0.0,0.0,0.0,0.0,0.0,0.0,0.0,0.0,0.0,0.0,0.0,0.0,0.0,0.0,0.0,0.0,0.0,0.0,0.0,0.0,0.0,0.0,0.0,0.0,1.0751,0.5492,0.0,0.0,0.0,0.0,-0.0,-0.0,-0.0,0.0,-0.0,0.0,0.0,0.0,0.0,0.0,-0.0,-0.322,-0.8076,-0.9267,-1.0206,-1.0884,-1.2165,0.0,0.0,-1.7216,-1.9205,-2.1072,-2.1753,-2.2178,0.0,0.0,0.0,0.0,0.0,0.0,-3.3418,-3.3418,-3.4062,-3.4707,0.0,0.0,-3.6016,0.0,-3.6016,-3.6016,-3.6016,-3.6016,-3.6016,-3.6016,-3.8597,-4.0666,-4.1181,-4.3731,-4.5793,-4.6301,-4.6301,-4.6301,-4.6301,-4.6301,-4.6702,-4.7631,-4.7832,-4.8335,-4.9339,-4.9515,-5.0308,-5.1989,-5.1989,-5.3522,-5.6707,-5.7075,-5.8238,-6.0086,-6.0775,-6.1463,-6.2121,-6.278,-6.3079,-6.3079,-6.3079,-6.3079,-6.3164,-6.4512,-6.5111,-6.5219,-6.6679,-6.7368,-6.8068,-7.0567,-7.1754,-7.2344,0.0,0.0,0.0,0.0,0.0,0.0,0.0,0.0,0.0,0.0,0.0,0.0,0.0,0.0,0.0,0.0,0.0,0.0,0.0,0.0,0.0,0.0,0.0,0.0,0.0,0.0,0.0,0.0,0.0,0.0,-0.0,-0.0,-0.0,-0.0,-0.0,-0.0,-0.0,0.0,0.0,0.0,0.0,-0.0268,-0.1072,-0.5615,0.0,-1.0751,-1.0857,0.0,0.0,0.0,-1.7369,-1.947,-2.1358,-2.2178,-2.2472,0.0,0.0,0.0,0.0,-3.3292,0.0,-3.3418,-3.4062,-3.4707,0.0,0.0,-3.6016,-3.6016,-3.6016,-3.6016,-3.6016,-3.6016,-3.6016,-3.6016,-3.7575,-3.9256,-4.0924,-4.2706,-4.4497,-4.6059,-4.6301,-4.6301,-4.6301,-4.6301,-4.6552,-4.7129,-4.7631,-4.8184,-4.8786,-4.9314,-5.0308,-5.1989,-5.1989,-5.3522,-5.6707,-5.8166,-5.9319,-6.0086,-6.0775,-6.1463,-6.2121,-6.278,-6.3079,-6.3079,-6.3079,-6.3079,-6.3164,-6.4512,-6.5111,-6.5219,-6.6679,-6.7974,-6.9285,-7.0897,-7.2338,-7.3587,0.0,0.0,0.0,0.0,0.0,0.0,0.0,0.0,0.0,0.0,0.0,0.0,0.0,0.0,0.0,0.0,0.0,0.0,0.0,0.0,0.0,0.0,0.0,0.0,0.0,0.0,0.0,0.0,0.0,0.4565,-0.0,-0.0,-0.0,-0.0,-0.0,-0.0,-0.0,-0.0,0.0,0.0,0.0,0.0,0.0,0.0,0.0,0.0,0.0,0.0,0.0,0.0,-1.7141,-1.9112,-2.1293,-2.2058,-2.2617,-2.5501,-2.7238,0.0,0.0,0.0,0.0,-3.3418,-3.3867,-3.4375,-3.4629,-3.5176,-3.5703,-3.5957,-3.6016,-3.6016,-3.6016,-3.6016,-3.6016,-3.6016,-3.8353,-4.0537,-4.1052,-4.3606,-4.5646,-4.618,-4.6301,-4.6301,-4.6301,-4.6301,-4.6552,-4.7104,-4.7606,-4.8159,-4.8736,-4.9289,-5.079,-5.3429,-5.3549,-5.5094,-5.8166,-5.8852,-5.9219,-5.9458,-6.0595,-6.1253,-6.1493,-6.26,-6.3079,-6.3079,-6.3079,-6.3592,-6.4512,-6.5835,-6.6958,-6.7874,-6.925,-7.017,-7.0742,-7.2217,-7.307,-7.368,0.0,0.0,0.0,0.0,0.0,0.0,0.0,0.0,0.0,0.0,0.0,0.0,0.0,0.0,0.0,0.0,0.0,0.0,0.0,0.0,0.0,0.0,0.0,0.0,0.0,0.0,0.0,0.0,0.0,0.0,0.0,0.2412,0.1208,-0.0,-0.0,-0.0,0.0,0.0,0.0,-0.0,0.0,0.0,-0.0269,0.0,0.0,0.0,0.0,0.0,0.0,0.0,-1.5944,-1.7391,-2.0352,-2.1658,-2.3006,-2.6315,-2.7768,0.0,-3.1707,0.0,0.0,0.0,-3.375,-3.418,-3.4609,-3.5059,-3.5508,-3.5937,-3.6016,-3.6016,-3.6016,-3.6539,-3.6674,-3.6152,-3.8465,-4.0537,-4.1181,-4.3606,-4.5646,-4.618,-4.6301,-4.6301,-4.6301,-4.6301,-4.6451,-4.6828,-4.7355,0.0,-4.846,-4.9495,-5.168,-5.5094,-5.5704,-5.6991,-5.9099,-5.9099,-5.9099,-5.9129,-6.0236,-6.0894,-6.1164,-6.2241,-6.3183,-6.3789,-6.3789,-6.432,-6.5219,-6.6679,-6.7974,-6.9313,-7.0791,-7.1312,-7.1481,-7.2935,-7.3477,-7.368,0.0,0.0,0.0,0.0,0.0,0.0,0.0,0.0,0.0,0.0,0.0,0.0,0.0,0.0,0.0,0.0,0.0,0.0,0.0,0.0,0.0,0.0,0.0,0.0,0.0,0.0,0.0,0.0,0.0,0.0,0.0,0.0,0.3758,0.0269,0.0269,0.0134,-0.0,0.0,-0.0,-0.0,0.0,-0.0,-0.0,0.0,0.0,0.0,-1.0638,-1.0846,0.0,-1.2949,0.0,-1.4446,-1.8347,-2.1096,-2.3256,-2.4979,-2.6839,0.0,0.0,0.0,0.0,0.0,0.0,0.0,-3.459,0.0,-3.5488,-3.5918,-3.6016,-3.6016,-3.6016,-3.7441,-3.8088,-3.6403,-3.7575,-3.9366,-4.1052,-4.2706,-4.4374,-4.6059,-4.6301,-4.6301,-4.6301,-4.6301,-4.6301,-4.6301,-4.6828,-4.7355,-4.7857,-5.0097,-5.2951,-5.6593,-5.8276,-5.9099,-5.9099,-5.9099,-5.9099,-5.9129,-5.9757,-6.0446,-6.1134,-6.1792,-6.3152,-6.5111,-6.5111,-6.5111,-6.5328,-6.6679,-6.8074,-6.9409,-7.0791,-7.1312,-7.1481,-7.2935,-7.3477,-7.368,0.0,0.0,0.0,0.0,0.0,0.0,0.0,0.0,0.0,0.0,0.0,0.0,0.0,0.0,0.0,0.0,0.0,0.0,0.0,0.0,0.0,0.0,0.0,0.0,0.0,0.0,0.0,0.0,0.0,0.0,0.0,0.0,0.0,0.0,0.5388,0.2624,-0.0,-0.0,0.0,-0.0,-0.0,-0.0,0.0,0.0,0.0,0.0,0.0,-1.0879,-1.1269,0.0,-1.3696,-1.4446,0.0,0.0,0.0,0.0,0.0,0.0,-3.0384,0.0,0.0,0.0,0.0,0.0,0.0,0.0,-3.5019,-3.5469,-3.5801,-3.6403,-3.7709,-3.8221,-3.8861,-3.9627,-4.1158,-4.2454,-4.2958,-4.4497,-4.5793,-4.618,-4.6301,-4.6301,-4.6301,-4.6301,-4.6301,0.0,-4.6828,-4.7643,-4.8901,-5.2431,-5.5168,-5.6707,-5.8276,-5.9099,-5.9099,-5.9099,-5.9099,-5.9129,-5.9757,-6.0446,-6.1134,-6.1792,-6.3152,-6.5111,-6.5111,-6.6259,-6.8074,-6.8503,-6.9442,-7.0791,-7.1098,-7.1312,-7.1481,-7.2935,-7.3477,-7.368,0.0,0.0,0.0,0.0,0.0,0.0,0.0,0.0,0.0,0.0,0.0,0.0,0.0,0.0,0.0,0.0,0.0,0.0,0.0,0.0,0.0,0.0,0.0,0.0,0.0,0.0,0.0,0.0,0.0,0.0,0.0,0.0,0.0,0.0,0.0,0.0,0.0,0.0,0.0,0.0,-0.0,0.0,0.0,-0.0,-0.0962,0.0,0.0,0.0,-1.1212,-1.2343,-1.3905,0.0,0.0,0.0,0.0,0.0,0.0,0.0,0.0,0.0,0.0,0.0,0.0,0.0,-3.4199,-3.4531,-3.4883,-3.5527,-3.5859,-3.6539,-3.8221,-3.9256,-4.0278,-4.1947,-4.3731,-4.4497,-4.3855,-4.5159,-4.6301,-4.6301,-4.6301,-4.6301,-4.6301,-4.6301,-4.6301,-4.6301,-4.6602,-4.7872,-5.0605,-5.4008,-5.6355,-5.7664,-5.8634,-5.9099,-5.9099,-5.9099,-5.9099,-5.9099,-6.0076,-6.0663,-6.1134,-6.2622,-6.4319,-6.6048,-6.6543,-6.8074,-7.0043,-7.0043,-7.0574,-7.1312,-7.1312,-7.1515,-7.1921,-7.3071,-7.368,-7.4119,0.0,0.0,0.0,0.0,0.0,0.0,0.0,0.0,0.0,0.0,0.0,0.0,0.0,0.0,0.0,0.0,0.0,0.0,0.0,0.0,0.0,0.0,0.0,0.0,0.0,0.0,0.0,0.0,0.0,0.0,0.0,0.0,0.0,0.0,0.0,0.0,0.0,0.0,0.0,-0.0,-0.0,-0.0,0.0,0.0,-0.2105,-0.5337,-0.6166,-0.8418,-1.1141,-1.1382,-1.3883,0.0,0.0,0.0,0.0,0.0,-2.5248,0.0,0.0,0.0,0.0,0.0,-3.3418,0.0,-3.4394,-3.4629,-3.4922,-3.5703,-3.5957,-3.6539,-3.8465,-4.0148,-4.182,-4.3731,-4.5281,-4.5793,-4.4251,-4.5281,-4.6301,-4.6301,-4.6301,-4.6301,-4.6301,-4.6301,-4.6301,-4.6301,-4.6636,-4.8564,-5.2626,-5.4768,-5.6932,-5.8979,-5.9069,-5.9099,-5.9099,-5.9099,-5.9099,-5.9099,-6.0432,-6.1138,-6.1408,-6.39,-6.5952,-6.747,-6.8699,-7.0043,-7.1312,-7.1312,-7.1312,-7.1312,-7.1312,-7.1751,-7.2496,-7.3206,-7.395,-7.4728,0.0,0.0,0.0,0.0,0.0,0.0,0.0,0.0,0.0,0.0,0.0,0.0,0.0,0.0,0.0,0.0,0.0,0.0,0.0,0.0,0.0,0.0,0.0,0.0,0.0,0.0,0.0,0.0,0.0,0.0,0.0,0.0,0.0,0.0,0.0,0.0,0.0,0.0,0.0,-0.0,-0.0,0.0,-0.0,-0.0,-0.0424,-0.1995,-0.8277,-1.0941,-1.1462,-1.1579,-1.3001,-1.5274,0.0,0.0,0.0,-2.2448,0.0,0.0,0.0,0.0,0.0,0.0,0.0,0.0,-3.3633,-3.4199,-3.4746,-3.4922,-3.5527,-3.6924,-4.0148,-4.0924,-4.2201,-4.5281,-4.6059,-4.618,-4.5793,-4.6059,-4.6301,-4.6301,-4.6301,-4.6301,-4.6301,-4.6301,-4.6301,-4.6301,-4.8505,-5.0905,-5.3537,-5.5694,-5.7255,-5.8291,-5.883,-5.9099,-5.9099,-5.9099,-5.9099,-5.9099,-6.0432,-6.1629,-6.2747,-6.4381,-6.645,-6.8797,-6.9121,-7.0043,-7.1312,-7.1312,-7.1312,-7.1312,-7.1312,-7.1751,-7.2496,-7.3206,-7.395,-7.4728,0.0,0.0,0.0,0.0,0.0,0.0,0.0,0.0,0.0,0.0,0.0,0.0,0.0,0.0,0.0,0.0,0.0,0.0,0.0,0.0,0.0,0.0,0.0,0.0,0.0,0.0,0.0,0.0,0.0,0.0,0.0,0.0,0.0,0.0,0.0,0.0,0.0,0.0,0.9358,0.5454,0.1562,0.0,-0.0,-0.0,-0.0,-0.0722,-0.6649,-1.0023,-1.166,-1.1545,-1.2813,0.0,0.0,-1.8508,-2.0479,0.0,-2.4196,-2.5905,0.0,0.0,0.0,-3.2892,0.0,0.0,0.0,-3.4238,-3.4766,-3.5,-3.5566,-3.7059,-4.0537,-4.1181,-4.2328,-4.5793,-4.6301,-4.6301,-4.6301,-4.6301,-4.6301,-4.6301,-4.6301,-4.6301,-4.6301,-4.6301,-4.6636,-4.7298,-5.0184,-5.2414,-5.3827,-5.5942,-5.7423,-5.8112,-5.877,-5.9099,-5.9099,-5.9099,-5.9392,-6.0045,-6.1395,-6.2531,-6.3672,-6.6029,-6.7669,-6.869,-6.9783,-7.0666,-7.1312,-7.1312,-7.1312,-7.1312,-7.1312,-7.1988,-7.2969,-7.3341,-7.4187,-7.5202,0.0,0.0,0.0,0.0,0.0,0.0,0.0,0.0,0.0,0.0,0.0,0.0,0.0,0.0,0.0,0.0,0.0,0.0,0.0,0.0,0.0,0.0,0.0,1.5,0.0,0.0,0.0,0.0,0.0,0.0,0.0,0.0,0.0,0.0,0.0,0.0,0.0,0.0,0.0,1.1063,0.0,0.1288,-0.0,-0.0,-0.0,-0.0438,-0.4369,-0.83,-1.164,-1.1491,-1.2492,-1.4148,-1.6122,-1.7949,0.0,0.0,0.0,0.0,0.0,0.0,0.0,0.0,0.0,-3.3535,0.0,0.0,0.0,-3.5293,-3.5723,-3.6924,-4.0148,0.0,0.0,-4.5011,0.0,0.0,0.0,-4.6175,0.0,-4.6301,-4.6301,-4.6301,-4.6301,-4.6541,-4.7298,-4.8851,-5.1428,-5.3299,-5.411,-5.587,-5.7244,-5.7902,-5.856,-5.9057,-5.9469,-5.9499,-6.015,-6.1395,-6.2779,-6.3741,-6.4449,-6.7668,-6.8887,-6.8606,-7.0489,-7.1312,-7.1312,-7.1312,-7.1312,-7.1312,-7.1312,-7.2191,-7.3477,-7.3477,-7.4424,-7.5709,1.6944,1.5063,0.0,0.0,0.0,0.0,0.0,0.0,0.0,0.0,0.0,0.0,0.0,0.0,0.0,0.0,0.0,0.0,1.9912,0.0,0.0,0.0,0.0,0.0,1.6826,0.0,0.0,0.0,0.0,0.0,0.0,0.0,0.0,0.0,1.1619,0.0,0.0,0.0,1.1653,0.0,1.0649,0.6098,0.0,-0.0,-0.0,-0.0438,-0.4361,-0.83,-1.1543,0.0,-1.1749,-1.218,0.0,-1.5981,-1.7949,-1.9912,0.0,0.0,0.0,0.0,0.0,0.0,-3.2237,0.0,-3.3965,0.0,-3.4824,-3.5293,0.0,0.0,0.0,0.0,0.0,0.0,0.0,0.0,-4.4945,-4.5673,-4.6301,-4.6301,-4.6301,-4.6301,-4.6301,-4.7534,-4.8851,-5.038,-5.2051,-5.3547,-5.4964,-5.5795,-5.6555,-5.7184,-5.7872,-5.9078,-6.0815,-6.0815,-6.1395,-6.2779,-6.4012,-6.5082,-6.5805,-6.8059,-6.9397,-7.0018,-7.0884,-7.1312,-7.1312,-7.1312,-7.1312,-7.1312,-7.1312,-7.2191,-7.3477,-7.3477,-7.4424,-7.5709,1.8857,1.6909,0.0,0.0,0.0,0.0,0.0,0.0,0.0,0.0,0.0,0.0,0.0,0.0,0.0,0.0,0.0,2.2585,0.0,0.0,0.0,0.0,0.0,0.0,0.0,0.0,0.0,0.0,1.3587,0.0,0.0,0.0,0.0,0.0,1.1619,0.0,1.1619,0.0,1.1633,0.0,0.0,0.0,0.0,0.0874,-0.0,-0.0438,-0.4361,-0.83,-1.1549,0.0,-1.1619,0.0,0.0,0.0,0.0,-2.0894,0.0,0.0,0.0,0.0,0.0,0.0,0.0,0.0,-3.3766,0.0,-3.5156,0.0,0.0,0.0,0.0,0.0,0.0,0.0,-4.4841,0.0,0.0,0.0,-4.6301,-4.6301,0.0,0.0,-4.7534,-4.8965,-5.038,-5.1943,-5.3413,-5.4509,-5.5179,-5.5807,-5.6466,-5.7064,-5.7752,-5.8987,-6.0989,-6.0989,-6.2063,-6.4137,-6.4597,-6.5425,-6.6531,-6.8243,-6.9282,-6.962,-7.0804,-7.1312,-7.1312,-7.1312,-7.1312,-7.1312,-7.1312,-7.2191,-7.3477,-7.3477,-7.4424,-7.5709,0.0,0.0,0.0,0.0,0.0,0.0,0.0,0.0,0.0,0.0,0.0,0.0,2.2859,2.2859,0.0,0.0,2.2859,2.2859,0.0,0.0,2.2953,0.0,0.0,0.0,0.0,0.0,0.0,0.0,0.0,0.0,0.0,0.0,0.0,0.0,0.0,1.1653,1.1619,0.0,1.1626,1.1352,0.8579,0.6108,0.3925,0.1021,-0.0,-0.0438,-0.3197,-0.7421,-1.1549,-1.1647,-1.1626,0.0,-1.4867,0.0,-1.7669,0.0,0.0,0.0,-2.4452,0.0,0.0,0.0,0.0,0.0,0.0,0.0,0.0,0.0,0.0,0.0,0.0,0.0,0.0,0.0,0.0,-4.62,0.0,-4.6125,-4.6301,0.0,0.0,0.0,0.0,-4.9847,-5.1372,-5.2857,-5.4406,-5.5179,-5.5179,-5.6003,-5.6839,-5.7656,-5.8449,-5.988,-6.2063,-6.2063,-6.3227,-6.547,-6.547,-6.5942,-6.688,-6.8402,-6.9113,-6.918,-7.0669,-7.1312,-7.1312,-7.1312,-7.1312,-7.1312,-7.1312,-7.2191,-7.3477,-7.3477,-7.4424,-7.5709,2.2846,2.1308,0.0,0.0,0.0,0.0,0.0,0.0,0.0,0.0,0.0,0.0,0.0,0.0,0.0,0.0,0.0,2.2859,2.2859,0.0,2.318,0.0,0.0,2.3466,0.0,0.0,0.0,0.0,0.0,0.0,0.0,0.0,0.0,0.0,1.1823,1.1748,1.1619,1.1619,1.1653,1.1556,1.1411,0.6853,0.0146,0.0,-0.0,-0.0,-0.0145,0.0,0.0,-1.1667,-1.164,0.0,0.0,0.0,0.0,0.0,0.0,0.0,0.0,0.0,0.0,-2.8325,0.0,0.0,0.0,0.0,-3.5508,0.0,0.0,0.0,0.0,0.0,0.0,0.0,0.0,0.0,0.0,0.0,-4.6301,-4.6301,0.0,0.0,0.0,-4.9847,-5.1372,-5.2857,-5.4406,-5.5179,-5.5179,-5.628,-5.7642,-5.8975,-6.017,-6.2123,-6.4778,-6.4778,-6.547,-6.6728,-6.6728,-6.6728,-6.688,-6.8402,-6.9113,-6.918,-7.0669,-7.1312,-7.1312,-7.1312,-7.1312,-7.1312,-7.1312,-7.2191,-7.3477,-7.3477,-7.4424,-7.5709,0.0,0.0,0.0,0.0,0.0,0.0,0.0,2.2294,0.0,0.0,0.0,0.0,0.0,2.346,2.346,0.0,0.0,2.346,2.346,2.3567,0.0,0.0,0.0,2.3728,0.0,0.0,0.0,0.0,0.0,0.0,0.0,0.0,0.0,0.0,0.0,1.1898,0.0,0.0,0.0,0.0,0.0,0.4657,-0.0,0.0,-0.0,-0.0,-0.0,-0.3341,0.0,-1.0775,-1.164,-1.1756,-1.3024,-1.5141,-1.7388,-1.8787,-2.0894,0.0,0.0,0.0,-2.4592,-2.6649,0.0,0.0,0.0,0.0,0.0,0.0,0.0,0.0,0.0,0.0,0.0,0.0,0.0,0.0,0.0,0.0,-4.6301,-4.6301,0.0,0.0,0.0,0.0,-5.2828,-5.4304,-5.4976,-5.5551,-5.6347,-5.68,-5.7776,-5.9538,-6.045,-6.1989,-6.4177,-6.4638,-6.5559,-6.6812,-6.6812,-6.6812,-6.688,-6.8402,-6.9113,-6.918,-7.0669,-7.1312,-7.1312,-7.1312,-7.1312,-7.1312,-7.1312,-7.2191,-7.3477,-7.3477,-7.4424,-7.5709,2.3487,0.0,0.0,0.0,0.0,0.0,0.0,0.0,0.0,0.0,2.3768,0.0,2.3768,0.0,2.3768,0.0,2.3768,2.3768,2.3768,2.3875,0.0,2.3768,2.3968,0.0,0.0,0.0,0.0,0.0,0.0,1.9474,0.0,0.0,0.0,0.0,0.0,1.206,1.1911,1.1857,1.1782,0.0,0.0,0.3492,0.0,0.0,-0.0,-0.0,0.0,-0.247,-0.6391,-1.0342,-1.1647,-1.1756,-1.3024,-1.5141,-1.7409,-1.8898,-2.1041,-2.31,-2.3407,-2.3487,0.0,-2.6032,-2.8208,0.0,-3.2325,0.0,0.0,0.0,0.0,0.0,0.0,0.0,0.0,0.0,0.0,0.0,0.0,-4.6755,0.0,0.0,-4.786,-4.908,0.0,-5.2051,-5.3623,-5.5078,-5.5651,-5.6183,-5.6991,-5.7807,-5.8919,-6.0469,-6.1629,-6.2881,-6.4461,-6.5193,-6.5942,-6.6812,-6.6812,-6.6812,-6.688,-6.8402,-6.9113,-6.918,-7.0669,-7.1312,-7.1312,-7.1312,-7.1312,-7.1312,-7.1312,-7.2191,-7.3477,-7.3477,-7.4424,-7.5709,0.0,0.0,0.0,0.0,2.1138,0.0,0.0,0.0,2.3808,0.0,2.3808,2.3808,2.3808,2.3808,2.3808,2.3808,2.3808,2.3808,2.3808,2.4075,0.0,0.0,2.4342,2.4502,2.4235,0.0,0.0,0.0,0.0,0.0,0.0,0.0,0.0,0.0,1.2298,0.0,1.206,1.1918,1.1717,1.1283,0.7331,0.3502,-0.0,-0.0,-0.0,-0.0,-0.0,-0.2474,-0.6395,-1.0221,-1.1667,-1.1619,-1.1626,-1.4173,-1.7168,-1.7531,-2.0332,-2.3267,-2.3714,-2.3794,-2.4276,-2.6369,0.0,0.0,0.0,0.0,-3.6016,0.0,0.0,0.0,0.0,0.0,0.0,0.0,0.0,0.0,0.0,0.0,-4.8416,0.0,-4.8532,-4.9194,-5.0713,-5.2187,-5.3727,-5.5078,-5.6378,-5.7086,0.0,-5.9314,-6.0915,-6.1745,-6.3616,-6.4918,-6.5628,-6.6406,-6.6812,-6.6812,-6.6812,-6.6812,-6.688,-6.8368,-6.9079,-6.918,-7.0635,-7.1278,-7.1312,-7.1312,-7.1312,-7.1312,-7.1312,-7.2191,-7.351,-7.3578,-7.4492,-7.5709,2.4088,2.4262,2.4263,0.0,2.3482,2.3562,0.0,0.0,0.0,0.0,2.4409,2.4409,2.4409,2.4409,2.4409,2.4409,2.4409,0.0,0.0,0.0,0.0,2.4422,2.4556,2.4596,2.4529,2.4596,0.0,2.4636,0.0,0.0,2.0692,0.0,0.0,0.0,0.0,1.2366,1.223,1.2189,1.1971,1.1431,0.748,0.3417,-0.0,0.0,-0.0,-0.0,-0.0,-0.2474,-0.6395,-1.0221,-1.1667,-1.164,-1.1742,-1.3359,-1.5687,-1.7319,-1.9559,-2.1808,-2.3563,-2.4088,-2.43,-2.5007,-2.7772,-3.0335,0.0,0.0,0.0,0.0,0.0,0.0,0.0,0.0,0.0,0.0,0.0,0.0,0.0,0.0,0.0,-4.8416,-4.9508,-5.0713,-5.2295,-5.3727,-5.4743,-5.5179,-5.6378,-5.7339,-5.8268,0.0,-6.1136,-6.2219,-6.3741,-6.4681,-6.4884,-6.617,-6.6812,-6.6812,-6.6812,-6.6812,-6.6846,-6.7793,-6.8538,-6.9147,-7.006,-7.0804,-7.1312,-7.1312,-7.1312,-7.1312,-7.1312,-7.2191,-7.3612,-7.4728,-7.5371,-7.5709,2.4396,0.0,0.0,2.4636,0.0,0.0,2.4609,2.4636,0.0,2.4636,2.4636,0.0,2.4636,2.4636,2.4636,2.4636,2.4636,0.0,2.4636,0.0,0.0,2.4636,2.4636,2.4636,2.4636,2.4636,0.0,2.4636,0.0,0.0,2.023,0.0,0.0,0.0,0.0,1.2461,1.2379,1.2318,1.2216,1.1795,0.9516,0.5107,0.0,-0.0,-0.0,-0.0,-0.0,-0.2653,-0.6589,-1.045,-1.1809,-1.1823,-1.1904,-1.3243,-1.5156,-1.739,-1.9376,-2.1352,-2.3718,-2.4396,-2.4436,-2.4596,-2.7475,-3.031,-3.031,-3.3291,-3.6016,0.0,0.0,0.0,0.0,0.0,0.0,0.0,0.0,0.0,0.0,0.0,0.0,0.0,-5.0823,-5.2295,-5.386,-5.4743,-5.5451,-5.5918,-5.7086,-5.836,-5.9522,0.0,-6.1676,-6.2381,-6.3531,-6.4275,-6.4613,-6.573,-6.6474,-6.6812,-6.6812,-6.6812,-6.6846,-6.7557,-6.8335,-6.9147,-6.9857,-7.0635,-7.1312,-7.1312,-7.1312,-7.1379,-7.2022,-7.3096,-7.4364,-7.5869,-7.6114,-7.5865,2.4636,0.0,0.0,0.0,0.0,0.0,0.0,2.4636,0.0,2.4636,0.0,2.4636,2.4636,2.4636,2.4636,2.4636,0.0,2.4636,2.4636,2.4636,2.4636,2.4636,2.4636,2.4636,2.4636,2.4636,2.4636,0.0,0.0,2.2509,1.9327,0.0,0.0,0.0,0.0,0.0,0.0,1.2372,1.2257,1.2162,1.2196,0.7893,0.1514,0.0455,-0.0,-0.0,-0.0,-0.2699,-0.6973,-1.0884,-1.2155,-1.2067,-1.2088,-1.3267,-1.5058,-1.7615,-1.9467,-2.1467,-2.3953,-2.4636,-2.4636,-2.4636,-2.7475,-3.031,-3.031,-3.3291,-3.6016,-3.6016,-3.6016,-3.6016,0.0,0.0,0.0,0.0,0.0,0.0,0.0,0.0,0.0,0.0,0.0,0.0,-5.5078,-5.5381,-5.5918,-5.6896,-5.8268,-5.9522,-6.0501,0.0,-6.2381,-6.2381,-6.3125,-6.3869,-6.458,-6.5324,-6.6068,-6.6812,-6.6812,-6.6812,-6.6846,-6.7455,-6.8267,-6.9147,-6.9931,-7.0677,-7.1312,-7.1457,-7.1457,-7.1681,-7.3322,-7.4513,-7.5477,-7.7178,-7.7071,-7.645,2.4636,0.0,0.0,0.0,0.0,2.4636,2.4636,2.4636,2.4636,2.4636,2.4636,2.4636,2.4636,2.4636,2.4636,2.4636,2.4636,0.0,0.0,0.0,0.0,2.4636,2.4636,2.4636,2.4636,2.4636,2.4636,2.4636,2.2967,2.2657,2.3426,0.0,0.0,0.0,0.0,0.0,1.2501,1.2474,0.0,1.2474,1.2353,1.1522,0.9566,0.2613,-0.0,-0.0,-0.0,-0.2714,-0.6915,-1.1033,-1.2244,-1.2088,-1.221,-1.2546,-1.3476,-1.7397,-1.8813,-1.9886,-2.3561,-2.4636,-2.4636,-2.4636,-2.7475,-3.031,-3.031,-3.3291,-3.6016,-3.6016,-3.6016,-3.6016,-3.6016,0.0,0.0,0.0,0.0,0.0,0.0,0.0,0.0,0.0,0.0,-5.3623,-5.5078,-5.6085,-5.68,-5.6991,-5.9081,-6.0417,-6.0586,0.0,-6.2381,0.0,-6.3125,0.0,0.0,0.0,-6.6068,-6.6812,-6.6812,-6.6812,-6.6812,-6.6948,-6.776,-6.92,-7.0099,-7.0789,-7.1401,-7.2228,-7.2498,-7.2804,-7.5137,-7.6217,-7.6631,-7.9119,-7.938,-7.8494,0.0,0.0,0.0,0.0,0.0,0.0,0.0,2.4636,0.0,2.4636,2.4636,2.4636,2.4636,2.4636,2.4636,2.4636,2.4636,2.4636,2.4636,2.4636,2.4636,2.4636,2.4636,2.4636,2.4636,2.4636,2.4636,2.4636,2.3574,2.3116,0.0,0.0,0.0,1.6904,0.0,1.2501,0.0,0.0,0.0,1.2238,1.0197,1.0508,1.1585,0.3113,-0.0,-0.0,-0.0,-0.2771,-0.6911,-1.1048,-1.2436,-1.2305,-1.2379,-1.24,-1.3166,-1.7331,-1.8572,-1.9478,-2.3574,-2.4636,-2.4636,-2.4636,-2.6779,-2.9043,-3.0026,-3.2455,-3.4883,-3.5743,-3.6016,-3.6287,-3.7193,-3.9518,0.0,0.0,0.0,0.0,0.0,0.0,-4.908,0.0,0.0,0.0,0.0,0.0,0.0,0.0,0.0,-6.087,-6.148,0.0,-6.2381,0.0,0.0,0.0,-6.458,0.0,0.0,-6.6812,-6.6812,-6.7029,-6.7501,-6.7501,-6.8647,-7.0625,-7.114,-7.1936,-7.288,-7.3412,-7.3571,-7.3791,-7.5854,-7.692,-7.7661,-7.9828,-8.0292,-7.988,0.0,2.4636,0.0,0.0,2.4636,0.0,2.4636,2.4636,2.4636,2.4636,2.4636,2.4636,2.4636,2.4636,2.4636,2.4636,2.4636,2.4636,2.4636,2.4636,2.4636,2.4636,2.4636,2.4636,2.4636,2.4636,2.4636,2.4636,2.4636,2.3696,0.0,0.0,0.0,0.0,0.0,0.0,0.0,0.0,1.2528,1.2089,0.7981,0.7686,0.913,0.2512,-0.0,-0.0,-0.0,-0.2664,-0.6874,-1.1041,-1.2461,-1.2501,-1.2501,-1.2501,-1.3259,-1.736,-1.8572,-1.9478,-2.3574,-2.4636,-2.4636,-2.4636,-2.6064,-2.7924,-2.9329,-3.1456,-3.3605,-3.5158,-3.5743,-3.6539,-3.8221,-4.0018,0.0,0.0,0.0,0.0,0.0,0.0,0.0,0.0,0.0,0.0,-5.5078,0.0,0.0,0.0,0.0,-6.1399,-6.2381,-6.2381,-6.2381,0.0,0.0,-6.3091,-6.458,0.0,-6.5617,-6.7078,-6.7325,-6.7822,-6.8496,-6.8496,-6.9788,-7.2009,-7.2227,-7.3188,-7.461,-7.461,-7.461,-7.4787,-7.6542,-7.7775,-7.8771,-8.0332,-8.0911,-8.1089,0.0,0.0,0.0,0.0,0.0,0.0,2.4636,2.4636,2.4636,2.4636,2.4636,2.4636,2.4636,2.4636,2.4636,2.4636,2.4636,2.4636,2.4636,2.4636,2.4636,2.4636,2.4636,2.4636,2.4636,2.4636,2.4636,0.0,2.4636,2.4356,0.0,0.0,0.0,0.0,0.0,0.0,0.0,1.2501,1.2542,1.2122,0.7985,0.4227,0.1099,0.0314,-0.0,-0.0,-0.0,-0.2664,-0.6885,-1.1149,-1.2549,-1.2501,-1.2501,-1.2501,-1.3259,-1.736,-1.8572,-1.9478,-2.3574,-2.4636,-2.4636,-2.4636,-2.6064,-2.7505,-2.778,-3.0626,-3.3309,-3.3448,-3.4883,-3.6539,-3.8221,-4.0018,-4.1693,0.0,0.0,0.0,0.0,0.0,-5.0602,-5.0713,0.0,0.0,-5.5179,-5.7371,0.0,0.0,-6.0953,-6.2302,-6.2381,-6.2381,-6.2381,-6.2381,-6.2381,-6.3091,-6.458,-6.5474,-6.6623,-6.8068,-6.8947,-6.9493,-6.9565,-6.9565,-7.045,-7.2082,-7.2932,-7.4276,-7.5649,-7.5649,-7.5649,-7.5898,-7.8515,-7.9535,-7.9819,-8.1432,-8.2055,-8.2018,0.0,0.0,0.0,0.0,0.0,0.0,0.0,2.4636,2.4636,2.4636,2.4636,2.4636,2.4636,2.4636,2.4636,2.4636,2.4636,2.4636,2.4636,2.4636,2.4636,2.4636,2.4636,2.4636,2.4636,2.4636,2.4636,0.0,0.0,0.0,0.0,0.0,0.0,0.0,0.0,1.3259,1.2501,1.2501,1.2542,1.2128,0.7989,0.3758,-0.0,-0.0,-0.0,-0.0628,-0.5655,-0.706,-0.6881,-1.1143,-1.2542,-1.2501,-1.2501,-1.3259,-1.4935,-1.7815,-1.9478,-2.0991,-2.387,-2.4636,-2.4636,-2.4636,-2.5212,-2.6064,-2.7215,-2.9615,-3.1738,-3.3031,-3.4727,-3.6789,-3.9649,-4.0666,-4.2074,0.0,0.0,0.0,0.0,0.0,0.0,-5.0713,0.0,-5.5179,-5.5179,-5.7371,0.0,0.0,0.0,-6.2381,-6.2381,-6.2381,-6.2381,-6.2381,0.0,-6.3091,-6.458,-6.5551,-6.6774,-6.8189,-6.9241,-6.9989,-7.0535,-7.0535,-7.1729,-7.3812,-7.5216,-7.6109,-7.6728,-7.6728,-7.6728,-7.6838,-7.8463,-7.936,-7.991,-8.1048,-8.1782,-8.2186,2.4636,0.0,2.4636,0.0,2.4636,2.4636,2.4636,2.4636,2.4636,2.4636,2.4636,2.4636,2.4636,2.4636,2.4636,2.4636,2.4636,2.4636,2.4636,2.4636,2.4636,2.4636,2.4636,0.0,2.4636,2.4636,2.4636,2.4636,2.4636,0.0,0.0,0.0,0.0,0.0,1.4935,1.3112,1.2501,1.2501,1.2542,1.2128,0.7989,0.3758,-0.0,-0.0,-0.0,-0.1099,-0.9448,-1.0543,-0.8618,-1.1448,-1.2528,-1.2501,-1.2501,-1.3868,-1.5837,-1.7967,-2.008,-2.2049,-2.4031,-2.4636,-2.4636,-2.4636,-2.4636,-2.4918,-2.6357,-2.8485,-3.1017,-3.3448,-3.5021,-3.7059,-4.0537,-4.1181,-4.2328,-4.5793,0.0,0.0,0.0,-4.8851,0.0,-5.0713,-5.3384,-5.5179,-5.5179,-5.7371,0.0,0.0,0.0,-6.2381,-6.2381,-6.2381,-6.2537,0.0,0.0,0.0,-6.4994,-6.5971,-6.7113,-6.8648,-6.9883,-7.0901,-7.1511,-7.1983,-7.3202,-7.4992,-7.6607,-7.7304,-7.7304,-7.7304,-7.7304,-7.7414,-7.8259,-7.9066,-7.9874,-8.0718,-8.1525,-8.2186,2.4636,2.4636,2.4636,2.4636,2.4636,2.4636,2.4636,2.4636,2.4636,2.4636,2.4636,2.4636,2.4636,2.4636,2.4636,2.4636,2.4636,2.4636,2.4636,2.4636,2.4636,0.0,0.0,2.4636,2.4636,2.4636,2.4636,2.4636,0.0,0.0,2.4209,0.0,2.0307,1.8572,1.6447,1.4322,1.2501,1.2501,1.2542,1.2128,0.7989,0.3758,-0.0,-0.0,-0.0,-0.1099,-0.9448,-1.2467,-1.244,-1.2407,-1.2528,-1.2501,-1.2501,-1.3868,-1.5837,-1.7967,-2.008,-2.2049,-2.4031,-2.4636,-2.4636,-2.4636,-2.4636,-2.4636,-2.4636,-2.762,-3.1439,-3.5158,-3.6016,-3.7059,-4.0537,-4.1181,-4.2328,-4.5793,0.0,0.0,0.0,-4.8851,0.0,-5.0713,-5.3384,-5.5179,-5.5179,-5.7371,0.0,0.0,0.0,0.0,0.0,0.0,0.0,-6.3647,-6.2855,0.0,-6.5896,-6.6919,-6.8184,-6.9708,-7.1573,-7.2496,-7.2569,-7.4147,-7.4882,-7.4992,-7.6607,-7.7304,-7.7304,-7.7304,-7.7304,-7.7414,-7.8259,-7.9066,-7.9874,-8.0718,-8.1525,-8.2186,2.4636,2.4636,2.4636,2.4636,2.4636,2.4636,2.4636,2.4636,2.4636,2.4636,2.4636,2.4636,2.4636,2.4636,2.4636,0.0,2.4636,2.4636,0.0,2.4636,2.4636,2.4636,2.4636,2.4636,2.4636,2.4636,2.4636,2.4636,0.0,0.0,0.0,2.1026,1.9103,1.8421,1.4935,1.3112,1.2501,1.2501,1.2542,1.2128,0.7989,0.3758,-0.0,-0.0,-0.0,-0.0785,-0.6271,-1.0057,-1.244,-1.2535,-1.2508,-1.2501,-1.2501,-1.4782,-1.7815,-1.8421,-2.0991,-2.3722,-2.4488,-2.4636,-2.4636,-2.4636,-2.4636,-2.4636,-2.4636,-2.762,-3.1439,-3.5158,-3.6016,-3.7059,-4.0537,-4.1181,-4.2328,-4.5793,-4.6301,0.0,-4.6301,0.0,-5.0713,-5.0713,-5.3384,-5.5179,-5.5179,-5.7371,0.0,0.0,0.0,0.0,0.0,0.0,0.0,0.0,-6.3462,0.0,-6.6813,-6.7843,-6.9125,-7.0668,-7.1951,-7.2496,-7.2569,-7.4184,-7.4918,-7.4992,-7.6607,-7.7304,-7.7304,-7.7304,-7.7304,-7.7341,-7.7635,-7.8589,-7.98,-8.0094,-8.1048,-8.2186,2.4636,2.4636,2.4636,2.4636,2.4636,2.4636,2.4636,2.4636,2.4636,2.4636,2.4636,2.4636,2.4636,2.4636,0.0,2.4636,2.4636,2.4636,2.4636,2.4636,2.4636,2.4636,2.4636,2.4636,2.4636,2.4636,0.0,2.4636,2.4636,2.4636,2.4488,2.0542,1.8572,1.8421,1.433,1.2501,1.2501,1.2501,1.2542,1.2128,0.7989,0.3758,-0.0,-0.0,-0.1885,-0.4868,-0.5949,-0.8929,-1.2576,-1.2522,-1.2501,-1.2656,-1.3414,-1.5998,-1.8572,-1.8572,-2.1452,-2.4636,-2.4636,-2.4636,-2.4636,-2.4636,-2.4636,-2.4918,-2.6342,-2.9186,-3.2298,-3.5314,-3.6016,-3.7059,-4.0537,-4.1181,-4.2328,-4.5793,-4.6301,-4.6301,-4.6301,0.0,-5.0713,0.0,0.0,0.0,0.0,-5.7621,-5.8992,0.0,0.0,0.0,0.0,0.0,0.0,-6.4148,-6.3829,0.0,-6.7807,-6.8462,-6.9543,-7.1095,-7.2071,-7.2496,-7.2532,-7.3854,-7.4625,-7.4992,-7.6276,-7.7047,-7.7304,-7.7304,-7.7304,-7.7304,-7.7304,-7.8332,-7.98,-7.98,-8.0791,-8.2186,2.4636,2.4636,2.4636,0.0,2.4636,0.0,2.4636,2.4636,2.4636,2.4636,2.4636,2.4636,2.4636,2.4636,2.4636,2.4636,0.0,0.0,0.0,2.4636,2.4636,2.4636,2.4636,2.4636,2.4636,2.4636,2.4636,2.4636,2.4636,2.4636,2.4488,2.0542,1.8572,1.8421,1.433,1.2501,1.2501,1.2501,1.2542,1.2128,0.7989,0.3758,-0.0,-0.0,-0.5184,-1.1998,-0.815,-0.9236,-1.2549,-1.2515,-1.2501,-1.2804,-1.4935,-1.6904,-1.8572,-1.8723,-2.1601,-2.4636,-2.4636,-2.4636,-2.4636,-2.4636,-2.4636,-2.5772,-2.9456,-3.1738,-3.3743,-3.5587,-3.6016,-3.7059,-4.0537,-4.1181,-4.2328,-4.5793,-4.6301,-4.6301,-4.6421,-4.8939,-5.0713,0.0,0.0,0.0,0.0,-5.8085,-5.9258,0.0,0.0,0.0,0.0,0.0,-6.3165,-6.4933,-6.4218,-6.5371,-6.8749,-6.8811,-6.9668,-7.1223,-7.2071,-7.2496,-7.2532,-7.334,-7.4147,-7.4955,-7.5763,-7.657,-7.7304,-7.7304,-7.7304,-7.7304,-7.7304,-7.8332,-7.98,-7.98,-8.0791,-8.2186,0.0,0.0,2.4636,2.4636,2.4636,2.4636,2.4636,2.4636,2.4636,2.4636,2.4636,2.4636,2.4636,2.4636,2.4636,2.4636,2.4636,2.4636,2.4636,2.4636,2.4636,2.4636,2.4636,2.4636,2.4636,2.4636,2.4636,2.4636,2.4636,2.4636,2.4488,2.0542,1.8572,1.8421,1.433,1.2501,1.2501,1.2501,1.2542,1.2128,0.7989,0.3758,-0.0,-0.0,-0.5184,-1.2318,-1.1335,-1.1622,-1.2549,-1.2515,-1.2501,-1.2804,-1.4935,-1.6904,-1.8874,-2.0391,-2.2657,-2.4636,-2.4636,-2.4636,-2.4636,-2.4636,-2.5786,-2.749,-2.9741,-3.1738,-3.3743,-3.5587,-3.6016,-3.7059,-4.0537,-4.1181,-4.2328,-4.5793,-4.6301,-4.6636,-4.786,-4.9508,-5.1153,0.0,-5.4068,-5.528,-5.5651,-5.7527,-5.8902,0.0,0.0,0.0,0.0,-6.2381,-6.3165,-6.4933,-6.4799,-6.6303,-6.9754,-6.9754,-7.0558,-7.2167,-7.238,-7.2496,-7.2532,-7.334,-7.4147,-7.4955,-7.5763,-7.657,-7.7304,-7.7304,-7.7304,-7.7304,-7.7304,-7.8332,-7.98,-7.98,-8.0791,-8.2186,2.4918,2.4636,2.4636,2.4636,2.4636,2.4636,2.4636,2.4636,2.4636,2.4636,2.4636,2.4636,2.4636,2.4636,2.4636,2.4636,2.4636,2.4636,2.4636,2.4636,2.4636,2.4636,2.4636,2.4636,2.4636,2.4636,2.4636,2.4636,2.4636,2.4636,2.4488,2.0542,1.8572,1.8421,1.433,1.2501,1.2501,1.2501,1.2542,1.2128,0.7989,0.3758,-0.0,-0.0,-0.4079,-0.9901,-1.181,-1.2569,-1.2528,-1.2508,-1.3112,-1.4176,-1.6294,-1.827,-2.0391,-2.236,-2.3722,-2.4636,-2.4636,-2.4636,-2.477,-2.5639,-2.7346,-2.9329,-3.1175,-3.317,-3.4727,-3.5743,-3.6016,-3.7059,-4.0537,-4.1181,-4.2328,-4.5793,-4.6301,-4.6874,-4.8326,-4.9734,-5.1263,-5.2857,-5.4304,-5.5651,-5.6735,-5.7993,-5.9258,-6.0332,-6.1676,0.0,-6.2381,-6.2381,-6.3165,-6.4933,-6.4999,-6.6621,-7.0073,-7.0844,-7.1651,-7.2496,-7.2496,-7.2496,-7.2496,-7.2936,-7.378,-7.4918,-7.5359,-7.624,-7.7304,-7.7304,-7.7304,-7.7304,-7.7304,-7.8112,-7.9286,-7.9653,-8.0571,-8.1709,2.5345,2.4784,2.4636,2.4636,2.4636,2.4636,2.4636,2.4636,2.4636,2.4636,2.4636,2.4636,2.4636,2.4636,2.4636,2.4636,2.4636,2.4636,2.4636,2.4636,2.4636,2.4636,2.4636,2.4636,2.4636,2.4636,2.4636,2.4636,2.4636,2.4636,2.4488,2.0542,1.8572,1.8421,1.433,1.2501,1.2501,1.2508,1.2549,1.2128,0.8622,0.4385,-0.0,-0.0,-0.2664,-0.6885,-1.1005,-1.2562,-1.2501,-1.2501,-1.3868,-1.5845,-1.7967,-1.993,-2.2049,-2.4031,-2.4636,-2.4636,-2.4636,-2.4636,-2.5065,-2.707,-2.89,-3.0876,-3.2735,-3.459,-3.6016,-3.6016,-3.6152,-3.7307,-4.0666,-4.1437,-4.258,-4.5793,-4.6301,-4.6849,-4.8647,0.0,-5.1372,-5.3069,-5.4406,-5.6017,-5.8085,-5.8632,-5.961,-6.1676,-6.2189,-6.2381,-6.2381,-6.2381,-6.309,-6.4732,-6.5039,-6.6801,-7.0257,-7.1762,-7.2496,-7.2496,-7.2496,-7.2496,-7.2496,-7.2496,-7.3377,-7.4918,-7.4918,-7.5836,-7.7304,-7.7304,-7.7304,-7.7304,-7.7304,-7.7855,-7.8699,-7.9507,-8.0314,-8.1122,2.736,2.5786,2.4636,2.4636,2.4636,2.4636,2.4636,2.4636,2.4636,2.4636,2.4636,2.4636,2.4636,2.4636,2.4636,2.4636,2.4636,2.4636,2.4636,2.4636,2.4636,2.4636,2.4636,2.4636,2.4636,2.4636,2.4636,2.4636,2.4636,2.4636,2.4488,2.0542,1.8572,1.8421,1.433,1.2501,1.2501,1.2535,1.2569,1.2447,1.1823,0.6915,-0.0,-0.0,-0.2664,-0.6885,-1.1005,-1.2562,-1.2501,-1.2501,-1.3868,-1.5845,-1.7967,-1.993,-2.2049,-2.4031,-2.4636,-2.4636,-2.4636,-2.4636,-2.5065,-2.707,-2.89,-3.0876,-3.2735,-3.459,-3.6016,-3.6016,-3.7193,-3.8861,-4.0795,-4.2328,-4.3979,-4.5939,-4.6301,-4.7298,-4.9932,0.0,-5.1699,-5.4509,-5.5078,-5.5381,-5.575,-5.7652,-5.8992,-5.9346,-6.1235,-6.2381,-6.2381,-6.2381,-6.2855,-6.3829,-6.5265,-6.7625,-7.1101,-7.2055,-7.2496,-7.2496,-7.2496,-7.2496,-7.2496,-7.2496,-7.3377,-7.4918,-7.4918,-7.5836,-7.7304,-7.7304,-7.7304,-7.7304,-7.7304,-7.7855,-7.8699,-7.9507,-8.0314,-8.1122,2.8068,2.6779,2.5786,2.4784,2.4636,2.4636,2.4636,2.4636,2.4636,2.4636,2.4636,2.4636,2.4636,2.4636,2.4636,2.4636,2.4636,2.4636,2.4636,2.4636,2.4636,2.4636,2.4636,2.4636,2.4636,2.4636,2.4636,2.4636,2.4636,2.4636,2.4488,2.0542,1.8572,1.8421,1.433,1.2501,1.2501,1.2535,1.1137,0.9412,1.1666,0.755,-0.0471,-0.5027,-0.6587,-0.6885,-1.0987,-1.2542,-1.2501,-1.2501,-1.4629,-1.736,-1.827,-2.0692,-2.3413,-2.4327,-2.4636,-2.4636,-2.4636,-2.5359,-2.6634,-2.8485,-3.0468,-3.2316,-3.4296,-3.5451,-3.6016,-3.6016,-3.7441,-3.9125,-4.0924,-4.258,-4.4251,-4.6059,-4.6301,0.0,0.0,-5.0713,-5.1835,-5.4845,-5.5179,-5.5451,-5.6085,-5.7714,-5.9081,-5.9697,-6.1399,-6.2381,-6.2381,-6.2381,-6.2581,-6.3007,-6.5999,-6.8811,-7.1321,-7.2092,-7.2496,-7.2496,-7.2496,-7.2496,-7.2496,-7.2496,-7.3377,-7.4918,-7.4918,-7.5836,-7.7304,-7.7304,-7.7304,-7.7304,-7.7304,-7.7561,-7.8075,-7.9323,-8.0021,-8.0534,2.8772,2.778,2.6925,2.4918,2.4636,2.4636,2.4636,2.4636,2.4636,2.4636,2.4636,2.4636,2.4636,2.4636,2.4636,2.4636,2.4636,2.4636,2.4636,2.4636,2.4636,2.4636,2.4636,2.4636,2.4636,2.4636,2.4636,2.4636,2.4636,2.4327,2.387,2.0241,1.827,1.7663,1.4176,1.2501,1.2508,1.2549,1.003,0.6414,0.8646,0.5811,-0.0942,-0.9291,-1.0543,-0.8145,-1.1293,-1.2528,-1.2501,-1.2501,-1.5242,-1.8572,-1.8572,-2.1291,-2.4636,-2.4636,-2.4636,-2.4636,-2.4636,-2.6064,-2.7924,-2.9884,-3.1738,-3.3743,-3.5587,-3.6016,-3.6152,-3.6539,-3.7955,-3.9758,-4.1437,-4.3208,-4.4767,-4.6059,0.0,0.0,0.0,-5.0713,-5.1835,-5.4845,-5.5179,-5.5651,-5.6896,-5.8085,-5.9258,-6.0501,-6.1756,-6.2381,-6.2381,-6.2381,-6.2673,-6.3212,-6.6666,-6.9343,-7.1253,-7.205,-7.2496,-7.2496,-7.2496,-7.2496,-7.2496,-7.2496,-7.3377,-7.4918,-7.4918,-7.5836,-7.7304,-7.7304,-7.7304,-7.7304,-7.7304,-7.7304,-7.7488,-7.8956,-7.9617,-7.9984,3.0451,2.8629,2.6925,2.4918,2.4636,2.4636,2.4636,2.4636,2.4636,2.4636,2.4636,2.4636,2.4636,2.4636,2.4636,2.4636,2.4636,2.4636,2.4636,2.4636,2.4636,2.4636,2.4636,2.4636,2.4636,2.4636,2.4636,2.4636,2.4636,2.3722,2.1751,1.9629,1.7512,1.5693,1.3414,1.2501,1.2508,1.2569,1.0047,0.5945,0.2352,0.0628,-0.0942,-0.9291,-1.2304,-1.2122,-1.2407,-1.2528,-1.2501,-1.2501,-1.5242,-1.8572,-1.8572,-2.1291,-2.4636,-2.4636,-2.4636,-2.4636,-2.4636,-2.6064,-2.7924,-2.9884,-3.1738,-3.3743,-3.5587,-3.6016,-3.6403,-3.8088,-3.9758,-4.1565,-4.3208,-4.489,-4.618,-4.6301,0.0,0.0,-5.0268,-5.0713,-5.1835,-5.4845,-5.5179,-5.5651,-5.6896,-5.8085,-5.9258,-6.0501,-6.1756,-6.2381,-6.2381,-6.2381,-6.3392,-6.5654,-6.6919,-6.8689,-7.1115,-7.2034,-7.2496,-7.2496,-7.2496,-7.2496,-7.2496,-7.2496,-7.3377,-7.4918,-7.4918,-7.5836,-7.7304,-7.7304,-7.7304,-7.7304,-7.7304,-7.7304,-7.7414,-7.8369,-7.914,-7.991,3.4018,3.1328,2.8629,2.6779,2.5345,2.4636,2.4636,2.4636,2.4636,2.4636,2.4636,2.4636,2.4636,2.4636,2.4636,2.4636,2.4636,2.4636,2.4636,2.4636,2.4636,2.4636,2.4636,2.4636,2.4636,2.4636,2.4636,2.4636,2.3413,2.236,2.1601,1.827,1.6294,1.5387,1.3414,1.2515,1.2535,1.2427,1.1654,0.9589,0.2668,-0.314,-0.7863,-0.848,-1.0202,-1.2569,-1.2535,-1.2515,-1.2656,-1.3868,-1.6294,-1.8874,-2.008,-2.236,-2.4636,-2.4636,-2.4636,-2.4918,-2.6064,-2.778,-2.9757,-3.1597,-3.3586,-3.5158,-3.5879,-3.6016,-3.6539,-3.8221,-4.0018,-4.1693,-4.3333,-4.5135,-4.6301,-4.6301,0.0,-4.7298,-5.0268,-5.0713,-5.1835,-5.4845,-5.5179,-5.5651,-5.6896,-5.8085,-5.9258,-6.0501,-6.1756,-6.2381,-6.2381,-6.2821,-6.3937,-6.5902,-6.7376,-6.9055,-7.1059,-7.2011,-7.2496,-7.2496,-7.2496,-7.2496,-7.2496,-7.2496,-7.3377,-7.4918,-7.4918,-7.5836,-7.7304,-7.7304,-7.7304,-7.7304,-7.7304,-7.7304,-7.7414,-7.8295,-7.9103,-7.991,3.5951,3.3178,2.9949,2.7097,2.5437,2.4636,2.4636,2.4636,2.4636,2.4636,2.4636,2.4636,2.4636,2.4636,2.4636,2.4636,2.4636,2.4636,2.4636,2.4636,2.4636,2.4636,2.4636,2.4636,2.4636,2.4636,2.4636,2.4636,2.2657,2.1291,2.0542,1.7056,1.5234,1.4475,1.3112,1.2522,1.2393,1.1149,1.1335,1.1842,0.3297,-0.5027,-1.2161,-0.9261,-1.003,-1.2549,-1.2515,-1.2501,-1.2804,-1.4782,-1.6904,-1.9025,-2.0991,-2.2967,-2.4636,-2.4636,-2.5065,-2.5932,-2.7924,-2.9757,-3.1597,-3.2874,-3.459,-3.6016,-3.6016,-3.6403,-3.7307,-3.9125,-4.0795,-4.2454,-4.4251,-4.5525,-4.6301,-4.6301,-4.6636,-4.786,-5.038,-5.1153,-5.2373,-5.4845,-5.5179,-5.5651,-5.6896,-5.8085,-5.9258,-6.0501,-6.1756,-6.2381,-6.2381,-6.3328,-6.4359,-6.5516,-6.7796,-6.9489,-7.0668,-7.1854,-7.2496,-7.2496,-7.2496,-7.2496,-7.2496,-7.2496,-7.3377,-7.4918,-7.4918,-7.5836,-7.7304,-7.7304,-7.7304,-7.7304,-7.7304,-7.7304,-7.7378,-7.7965,-7.8883,-7.9874,3.5951,3.3902,3.0617,2.558,2.4596,2.4636,2.4636,2.4636,2.4636,2.4636,2.4636,2.4636,2.4636,2.4636,2.4636,2.4636,2.4636,2.4636,2.4636,2.4636,2.4636,2.4636,2.4636,2.4636,2.4636,2.4636,2.4636,2.4636,2.2509,2.0542,1.8572,1.6447,1.4475,1.2501,1.2501,1.2522,1.2238,0.8136,0.8632,1.1679,0.3297,-0.5027,-1.2474,-1.2454,-1.2427,-1.2549,-1.2515,-1.2501,-1.2804,-1.4782,-1.6904,-1.9025,-2.0991,-2.2967,-2.4636,-2.4636,-2.5932,-2.7924,-2.9741,-3.1738,-3.317,-3.317,-3.459,-3.6016,-3.6016,-3.7307,-3.9125,-4.0795,-4.258,-4.4251,-4.5914,-4.6301,-4.6301,-4.6301,-4.7534,-4.8965,-5.0491,-5.2051,-5.3518,-5.4976,-5.5179,-5.5651,-5.6896,-5.8085,-5.9258,-6.0501,-6.1756,-6.2381,-6.2415,-6.3802,-6.4613,-6.4613,-6.7915,-6.9708,-6.9708,-7.1609,-7.2496,-7.2496,-7.2496,-7.2496,-7.2496,-7.2496,-7.3377,-7.4918,-7.4918,-7.5836,-7.7304,-7.7304,-7.7304,-7.7304,-7.7304,-7.7304,-7.7304,-7.7304,-7.8369,-7.9764,3.6035,3.5382,3.3513,2.9392,2.6402,2.4555,2.4609,2.4636,2.4636,2.4636,2.4636,2.4636,2.4636,2.4636,2.4636,2.4636,2.4636,2.4636,2.4636,2.4636,2.4636,2.4636,2.4636,2.4636,2.4636,2.4636,2.387,2.2509,2.0542,1.8421,1.6447,1.433,1.3112,1.2501,1.2528,1.2556,1.2434,1.1173,0.8015,0.2982,-0.5338,-0.8485,-0.8466,-1.146,-1.2549,-1.2515,-1.2508,-1.2501,-1.2958,-1.6447,-1.8118,-1.9176,-2.2657,-2.4179,-2.4918,-2.621,-2.707,-2.8213,-3.1456,-3.2735,-3.3448,-3.4883,-3.5587,-3.6016,-3.6016,-3.7307,-3.9125,-4.0795,-4.258,-4.4251,-4.5914,-4.6301,-4.6301,-4.6301,-4.7534,-4.8965,-5.0491,-5.2051,-5.3518,-5.4976,-5.5179,-5.5651,-5.6896,-5.8085,-5.9258,-6.0501,-6.1756,-6.2618,-6.3159,-6.4072,-6.5107,-6.6342,-6.7857,-6.9278,-7.0668,-7.1854,-7.2496,-7.2496,-7.2496,-7.2496,-7.2496,-7.2496,-7.3377,-7.4918,-7.4918,-7.5836,-7.7304,-7.7304,-7.7304,-7.7304,-7.7304,-7.7304,-7.7304,-7.7304,-7.8002,-7.9029,3.6016,3.6053,3.5274,3.3021,2.8105,2.4607,2.4596,2.4636,2.4636,2.4636,2.4636,2.4636,2.4636,2.4636,2.4636,2.4636,2.4636,2.4636,2.4636,2.4636,2.4636,2.4636,2.4636,2.4179,2.3413,2.4179,2.3264,2.0391,1.9176,1.7512,1.5387,1.3414,1.2501,1.2501,1.2535,1.161,1.0208,1.1829,0.7706,-0.0785,-0.913,-1.1023,-0.909,-1.161,-1.2535,-1.2501,-1.2501,-1.2958,-1.4176,-1.7512,-1.9629,-2.144,-2.387,-2.4636,-2.4918,-2.6925,-2.8068,-2.9329,-3.2316,-3.3743,-3.459,-3.5743,-3.6016,-3.6152,-3.6924,-3.8353,-4.0148,-4.182,-4.3482,-4.5013,-4.6059,-4.6301,-4.6541,-4.7087,-4.8416,-4.9847,-5.1372,-5.2934,-5.42,-5.5078,-5.5179,-5.5651,-5.6896,-5.8085,-5.9522,-6.1235,-6.203,-6.2719,-6.3463,-6.4208,-6.5209,-6.6495,-6.8037,-6.9386,-7.0535,-7.1854,-7.2496,-7.2496,-7.2496,-7.2496,-7.2496,-7.2496,-7.3377,-7.4918,-7.4918,-7.5836,-7.7304,-7.7304,-7.7304,-7.7304,-7.7304,-7.7304,-7.7304,-7.7304,-7.7855,-7.8699,3.6016,3.6014,3.5965,3.5944,2.9728,2.4539,2.4583,2.4609,2.4609,2.4636,2.4636,2.4636,2.4636,2.4636,2.4636,2.4636,2.4636,2.4636,2.4636,2.4636,2.4636,2.4636,2.4636,2.3574,2.144,2.3264,2.236,1.827,1.827,1.7208,1.5234,1.3414,1.2501,1.2508,1.2542,1.0347,0.7045,1.0074,0.6598,-0.1728,-0.8973,-1.2141,-1.244,-1.2562,-1.2528,-1.2501,-1.2501,-1.3722,-1.5845,-1.8118,-2.1452,-2.4636,-2.4636,-2.4636,-2.5065,-2.707,-2.89,-3.0734,-3.2874,-3.4727,-3.6016,-3.6016,-3.6152,-3.6674,-3.8221,-3.9888,-4.1693,-4.3333,-4.5135,-4.6301,-4.6301,-4.6301,-4.6755,-4.8326,-4.9734,-5.1263,-5.2751,-5.4304,-5.5179,-5.5179,-5.5179,-5.5651,-5.6896,-5.8177,-5.9903,-6.2223,-6.2448,-6.2821,-6.3565,-6.4309,-6.5019,-6.5764,-6.8258,-6.9637,-6.9708,-7.1448,-7.2438,-7.2496,-7.2496,-7.2496,-7.2496,-7.2569,-7.345,-7.4918,-7.4992,-7.5909,-7.7304,-7.7304,-7.7304,-7.7304,-7.7304,-7.7304,-7.7304,-7.7304,-7.7818,-7.8626,3.6016,3.5957,3.5935,3.6047,2.9623,2.4648,2.4676,2.4596,2.4528,2.4609,2.4636,2.4636,2.4636,2.4636,2.4636,2.4636,2.4636,2.4636,2.4636,2.4636,2.4636,2.4636,2.4636,2.2967,1.9327,2.1291,2.023,1.6142,1.6142,1.5081,1.3112,1.2656,1.2515,1.2542,1.242,1.1972,1.071,0.5181,-0.2196,-0.9604,-0.8159,-0.9563,-1.2562,-1.2528,-1.2508,-1.2501,-1.2501,-1.3722,-1.5989,-1.9779,-2.2509,-2.4636,-2.4636,-2.4636,-2.5198,-2.8757,-3.0026,-3.1017,-3.4452,-3.5724,-3.6016,-3.6016,-3.7059,-3.8088,-3.8465,-3.9888,-4.1693,-4.3333,-4.5135,-4.6301,-4.6301,-4.6301,-4.6755,-4.8326,-4.9734,-5.1263,-5.2751,-5.4304,-5.5179,-5.5179,-5.5179,-5.5651,-5.6896,-5.8992,-6.087,-6.2302,-6.2956,-6.3599,-6.4343,-6.5053,-6.5797,-6.6542,-6.7842,-6.8873,-6.9708,-7.08,-7.1794,-7.2496,-7.2496,-7.2496,-7.2532,-7.3156,-7.3964,-7.4955,-7.5579,-7.6423,-7.7304,-7.7304,-7.7304,-7.7304,-7.7304,-7.7304,-7.7304,-7.7304,-7.7451,-7.7818,3.6016,3.6016,3.6074,3.594,2.9675,2.5877,2.9533,2.6939,2.4607,2.4596,2.4636,2.4636,2.4636,2.4636,2.4636,2.4636,2.4636,2.4636,2.4636,2.4636,2.4636,2.4636,2.3722,2.1751,1.8723,1.8723,1.7208,1.4022,1.5089,1.4475,1.2501,1.2501,1.2522,1.2393,1.0353,1.0693,1.1679,-0.0783,-0.8498,-1.2318,-1.0197,-1.0497,-1.2549,-1.2515,-1.2501,-1.2656,-1.3568,-1.5845,-1.8874,-2.2049,-2.3722,-2.4636,-2.4636,-2.5212,-2.6488,-2.9456,-3.1017,-3.2316,-3.5158,-3.6016,-3.6016,-3.6016,-3.7307,-3.8861,-3.9627,-4.1181,-4.2832,-4.462,-4.5671,-4.6301,-4.6301,-4.6301,-4.6968,-4.9167,-5.0157,-5.1481,-5.3727,-5.4743,-5.5179,-5.5179,-5.575,-5.6704,-5.851,-6.0417,-6.1756,-6.2381,-6.3091,-6.3835,-6.4546,-6.529,-6.6034,-6.6779,-6.818,-6.9168,-6.9708,-7.1095,-7.2011,-7.2496,-7.2496,-7.2496,-7.2532,-7.334,-7.4147,-7.4955,-7.5763,-7.657,-7.7304,-7.7304,-7.7304,-7.7304,-7.7304,-7.7304,-7.7304,-7.7304,-7.7561,-7.8112,3.6016,3.6016,3.5996,3.597,3.0821,2.8723,3.4974,2.9504,2.4553,2.4596,2.4636,2.4636,2.4636,2.4636,2.4636,2.4636,2.4636,2.4636,2.4636,2.4636,2.4488,2.4031,2.2509,2.053,1.8118,1.6447,1.4475,1.2501,1.4176,1.4176,1.2501,1.2508,1.2528,1.24,0.8929,0.8476,0.9286,-0.5958,-1.2481,-1.2474,-1.2576,-1.2549,-1.2542,-1.2515,-1.2649,-1.3267,-1.4935,-1.8118,-2.19,-2.387,-2.4636,-2.4636,-2.4636,-2.5932,-2.7924,-2.9757,-3.1738,-3.3586,-3.5451,-3.6016,-3.6016,-3.6403,-3.7709,-3.9518,-4.1181,-4.2706,-4.4227,-4.5914,-4.6301,-4.6301,-4.6301,-4.6301,-4.7298,-5.0268,-5.0713,-5.1699,-5.4743,-5.5179,-5.5179,-5.5179,-5.6445,-5.8145,-6.0417,-6.1676,-6.2448,-6.2584,-6.326,-6.4005,-6.4749,-6.5493,-6.617,-6.6779,-6.8682,-6.9708,-6.9708,-7.1573,-7.2496,-7.2496,-7.2496,-7.2496,-7.2532,-7.3487,-7.4258,-7.4955,-7.5909,-7.668,-7.7304,-7.7304,-7.7304,-7.7304,-7.7304,-7.7304,-7.7304,-7.7304,-7.7781,-7.8479,3.6016,3.6016,3.5996,3.597,3.5154,3.4796,3.5843,2.9441,2.4597,2.4569,2.4636,2.4636,2.4636,2.4636,2.4636,2.4636,2.4636,2.4636,2.4636,2.4636,2.387,2.2049,2.1751,1.9779,1.5989,1.5693,1.4475,1.2501,1.2804,1.2804,1.2501,1.2535,1.2562,1.244,1.1979,0.802,0.1099,-0.8494,-1.2467,-1.2447,-1.2569,-1.2535,-1.2508,-1.2501,-1.3568,-1.5081,-1.5387,-1.8118,-2.19,-2.387,-2.4636,-2.4636,-2.4636,-2.5932,-2.7924,-2.9757,-3.1738,-3.3586,-3.5451,-3.6016,-3.6403,-3.7822,-3.9518,-4.1309,-4.2958,-4.3606,-4.4227,-4.5914,-4.6301,-4.6301,-4.6301,-4.6301,-4.7298,-5.0268,-5.0713,-5.1699,-5.4743,-5.5179,-5.5179,-5.5179,-5.7181,-5.9081,-6.0501,-6.1676,-6.2651,-6.3294,-6.4038,-6.4783,-6.5493,-6.6271,-6.6711,-6.6812,-6.8682,-6.9708,-6.9708,-7.1573,-7.2496,-7.2496,-7.2496,-7.2496,-7.2569,-7.4074,-7.4808,-7.4992,-7.6497,-7.7231,-7.7304,-7.7304,-7.7304,-7.7304,-7.7304,-7.7304,-7.7304,-7.7304,-7.7378,-7.7598,3.6016,3.6016,3.5938,3.5976,3.5996,3.6053,3.601,2.9567,2.4556,2.4556,2.4636,2.4636,2.4636,2.4636,2.4636,2.4636,2.4636,2.4636,2.4636,2.4636,2.3722,2.1751,2.0542,1.8572,1.554,1.4322,1.3414,1.2501,1.2501,1.2501,1.2501,1.2535,1.1293,0.91,1.1504,0.5176,-0.7072,-0.848,-1.0364,-1.2569,-1.2535,-1.2515,-1.2501,-1.2501,-1.3722,-1.5845,-1.8118,-2.0841,-2.3426,-2.4327,-2.4636,-2.477,-2.5932,-2.749,-2.9472,-3.1316,-3.3309,-3.4883,-3.5743,-3.6016,-3.6403,-3.8221,-3.9888,-4.1693,-4.3357,-4.4497,-4.5403,-4.618,-4.6301,-4.6301,-4.6301,-4.6968,-4.8184,-5.038,-5.1372,-5.2722,-5.4845,-5.5179,-5.575,-5.6991,-5.8177,-5.9522,-6.1399,-6.211,-6.2719,-6.3463,-6.4174,-6.4918,-6.5662,-6.6406,-6.6812,-6.6812,-6.8682,-6.9708,-6.9708,-7.1573,-7.2496,-7.2496,-7.2496,-7.2496,-7.2569,-7.4184,-7.4918,-7.4992,-7.6607,-7.7304,-7.7304,-7.7304,-7.7304,-7.7304,-7.7304,-7.7304,-7.7304,-7.7304,-7.7304,-7.7451]},{"header":{"parameterUnit":"m.s-1","parameterCategory":1,"la1":30.6,"la2":28.766,"lo1":-90.7593,"lo2":-88.6598,"dx":0.0162,"dy":0.0183,"nx":116,"ny":114,"refTime":"2023-02-05T06:00:00:Z","depth":0,"parameterNumber":3,"parameterNumberName":"V-component_of_WINDS"},"data":[0.0,0.0,0.0,0.0,0.0,0.0,0.0,0.0,0.0,0.0,0.0,0.0,0.0,0.0,0.0,0.0,0.0,0.0,0.0,0.0,0.0,0.0,0.0,0.0,0.0,0.0,0.0,0.0,0.0,0.0,0.0,0.0,0.0,0.0,0.0,0.0,0.0,0.0,0.0,0.0,0.0,0.0,0.0,0.0,0.0,0.0,0.0,0.0,0.0,0.0,0.0,0.0,0.0,0.0,0.0,0.0,0.0,0.0,0.0,0.0,0.0,0.0,0.0,0.0,0.0,0.0,0.0,0.0,0.0,0.0,0.0,0.0,0.0,0.0,0.0,0.0,0.0,0.0,0.0,0.0,0.0,0.0,0.0,0.0,0.0,0.0,0.0,0.0,0.0,0.0,0.0,0.0,0.0,0.0,0.0,0.0,0.0,0.0,0.0,0.0,0.0,0.0,0.0,0.0,0.0,0.0,0.0,0.0,0.0,0.0,0.0,0.0,0.0,0.0,0.0,0.0,0.0,0.0,0.0,0.0,0.0,0.0,0.0,0.0,0.0,0.0,0.0,0.0,0.0,0.0,0.0,0.0,0.0,0.0,0.0,0.0,0.0,0.0,0.0,0.0,0.0,0.0,0.0,0.0,0.0,0.0,0.0,0.0,0.0,0.0,0.0,0.0,0.0,0.0,0.0,0.0,0.0,0.0,0.0,0.0,0.0,0.0,0.0,0.0,0.0,0.0,0.0,0.0,0.0,0.0,0.0,0.0,0.0,0.0,0.0,0.0,0.0,0.0,0.0,0.0,0.0,0.0,0.0,0.0,0.0,0.0,0.0,0.0,0.0,0.0,0.0,0.0,0.0,0.0,0.0,0.0,0.0,0.0,0.0,0.0,0.0,0.0,0.0,0.0,0.0,0.0,0.0,0.0,0.0,0.0,0.0,0.0,0.0,0.0,0.0,0.0,0.0,0.0,0.0,0.0,0.0,0.0,0.0,0.0,0.0,0.0,0.0,0.0,0.0,0.0,0.0,0.0,0.0,0.0,0.0,0.0,0.0,0.0,0.0,0.0,0.0,0.0,0.0,0.0,0.0,0.0,0.0,0.0,0.0,0.0,0.0,0.0,0.0,0.0,0.0,0.0,0.0,0.0,0.0,0.0,0.0,0.0,0.0,0.0,0.0,0.0,0.0,0.0,0.0,0.0,0.0,0.0,0.0,0.0,0.0,0.0,0.0,0.0,0.0,0.0,0.0,0.0,0.0,0.0,0.0,0.0,0.0,0.0,0.0,0.0,0.0,0.0,0.0,0.0,0.0,0.0,0.0,0.0,0.0,0.0,0.0,0.0,0.0,0.0,0.0,0.0,0.0,0.0,0.0,0.0,0.0,0.0,0.0,0.0,0.0,0.0,0.0,0.0,0.0,0.0,0.0,0.0,0.0,0.0,0.0,0.0,0.0,0.0,0.0,0.0,0.0,0.0,0.0,0.0,0.0,0.0,0.0,0.0,0.0,0.0,0.0,0.0,0.0,0.0,0.0,0.0,0.0,0.0,0.0,0.0,0.0,0.0,0.0,0.0,0.0,0.0,0.0,0.0,0.0,0.0,0.0,0.0,0.0,0.0,0.0,0.0,0.0,0.0,0.0,0.0,0.0,0.0,0.0,0.0,0.0,0.0,0.0,0.0,0.0,0.0,0.0,0.0,0.0,0.0,0.0,0.0,0.0,0.0,0.0,0.0,0.0,0.0,0.0,0.0,0.0,0.0,0.0,0.0,0.0,0.0,0.0,0.0,0.0,0.0,0.0,0.0,0.0,0.0,0.0,0.0,0.0,0.0,0.0,0.0,0.0,0.0,0.0,0.0,0.0,0.0,0.0,0.0,0.0,0.0,0.0,0.0,0.0,0.0,0.0,0.0,0.0,0.0,0.0,0.0,0.0,0.0,0.0,0.0,0.0,0.0,0.0,0.0,0.0,0.0,0.0,0.0,0.0,0.0,0.0,0.0,0.0,0.0,0.0,0.0,0.0,0.0,0.0,0.0,0.0,0.0,0.0,0.0,0.0,0.0,0.0,0.0,0.0,0.0,0.0,0.0,0.0,0.0,0.0,0.0,0.0,0.0,0.0,0.0,0.0,0.0,0.0,0.0,0.0,0.0,0.0,0.0,0.0,0.0,0.0,0.0,0.0,0.0,0.0,0.0,0.0,0.0,0.0,0.0,0.0,0.0,0.0,0.0,0.0,0.0,0.0,0.0,0.0,0.0,0.0,0.0,0.0,0.0,0.0,0.0,0.0,0.0,0.0,0.0,0.0,0.0,0.0,0.0,0.0,0.0,0.0,0.0,0.0,0.0,0.0,0.0,0.0,0.0,0.0,0.0,0.0,0.0,0.0,0.0,0.0,0.0,0.0,0.0,0.0,0.0,0.0,0.0,0.0,0.0,0.0,0.0,0.0,0.0,0.0,0.0,0.0,0.0,0.0,0.0,0.0,0.0,0.0,0.0,0.0,0.0,0.0,0.0,0.0,0.0,0.0,0.0,0.0,0.0,0.0,0.0,0.0,0.0,0.0,0.0,0.0,0.0,0.0,0.0,0.0,0.0,0.0,0.0,0.0,0.0,0.0,0.0,0.0,0.0,0.0,0.0,0.0,0.0,0.0,0.0,0.0,0.0,0.0,0.0,0.0,0.0,0.0,0.0,0.0,0.0,0.0,0.0,0.0,0.0,0.0,0.0,0.0,0.0,0.0,0.0,0.0,0.0,0.0,0.0,0.0,0.0,0.0,0.0,0.0,0.0,0.0,0.0,0.0,0.0,0.0,0.0,0.0,0.0,0.0,0.0,0.0,0.0,0.0,0.0,0.0,0.0,0.0,0.0,0.0,0.0,0.0,0.0,0.0,0.0,0.0,0.0,0.0,0.0,0.0,0.0,0.0,0.0,0.0,0.0,0.0,0.0,0.0,0.0,0.0,0.0,0.0,0.0,0.0,0.0,0.0,0.0,0.0,0.0,0.0,0.0,0.0,0.0,0.0,0.0,0.0,0.0,0.0,0.0,0.0,0.0,0.0,0.0,0.0,0.0,0.0,0.0,0.0,0.0,0.0,0.0,0.0,0.0,0.0,0.0,0.0,0.0,0.0,0.0,0.0,0.0,0.0,0.0,0.0,0.0,0.0,0.0,0.0,0.0,0.0,0.0,0.0,0.0,0.0,0.0,0.0,0.0,0.0,0.0,0.0,0.0,0.0,0.0,0.0,0.0,0.0,0.0,0.0,0.0,0.0,0.0,0.0,0.0,0.0,0.0,0.0,0.0,0.0,0.0,0.0,0.0,0.0,0.0,0.0,0.0,0.0,0.0,0.0,0.0,0.0,0.0,0.0,0.0,0.0,0.0,0.0,0.0,0.0,0.0,0.0,0.0,0.0,0.0,0.0,0.0,0.0,0.0,0.0,0.0,0.0,0.0,0.0,0.0,0.0,0.0,0.0,0.0,0.0,0.0,0.0,0.0,0.0,0.0,0.0,0.0,0.0,0.0,0.0,0.0,0.0,0.0,0.0,0.0,0.0,0.0,0.0,0.0,0.0,0.0,0.0,0.0,0.0,0.0,0.0,0.0,0.0,0.0,0.0,0.0,0.0,0.0,0.0,0.0,0.0,0.0,0.0,0.0,0.0,0.0,0.0,0.0,0.0,0.0,0.0,0.0,0.0,0.0,0.0,0.0,0.0,0.0,0.0,0.0,0.0,0.0,0.0,0.0,0.0,0.0,0.0,0.0,0.0,0.0,0.0,0.0,0.0,0.0,0.0,0.0,0.0,0.0,0.0,0.0,0.0,0.0,0.0,0.0,0.0,0.0,0.0,0.0,0.0,0.0,0.0,0.0,0.0,0.0,0.0,0.0,0.0,0.0,0.0,0.0,0.0,0.0,0.0,0.0,0.0,0.0,0.0,0.0,0.0,0.0,0.0,0.0,0.0,0.0,0.0,0.0,0.0,0.0,0.0,0.0,0.0,0.0,0.0,0.0,0.0,0.0,0.0,0.0,0.0,0.0,0.0,0.0,0.0,0.0,0.0,0.0,0.0,0.0,0.0,0.0,0.0,0.0,0.0,0.0,0.0,0.0,0.0,0.0,0.0,0.0,0.0,0.0,0.0,0.0,0.0,0.0,0.0,0.0,0.0,0.0,0.0,0.0,0.0,0.0,0.0,0.0,0.0,0.0,0.0,0.0,0.0,0.0,0.0,0.0,0.0,0.0,0.0,0.0,0.0,0.0,0.0,0.0,0.0,0.0,0.0,0.0,0.0,0.0,0.0,0.0,0.0,0.0,0.0,0.0,0.0,0.0,0.0,0.0,0.0,0.0,0.0,0.0,0.0,0.0,0.0,0.0,0.0,0.0,0.0,0.0,0.0,0.0,0.0,0.0,0.0,0.0,0.0,0.0,0.0,0.0,0.0,0.0,0.0,0.0,0.0,0.0,0.0,0.0,0.0,0.0,0.0,0.0,0.0,0.0,0.0,0.0,0.0,0.0,0.0,0.0,0.0,0.0,0.0,0.0,0.0,0.0,0.0,0.0,0.0,0.0,0.0,0.0,0.0,0.0,0.0,0.0,0.0,0.0,0.0,0.0,0.0,0.0,0.0,0.0,0.0,0.0,0.0,0.0,0.0,0.0,0.0,0.0,0.0,0.0,0.0,0.0,0.0,0.0,0.0,0.0,0.0,0.0,0.0,0.0,0.0,0.0,0.0,0.0,0.0,0.0,0.0,0.0,0.0,0.0,0.0,0.0,0.0,0.0,0.0,0.0,0.0,0.0,0.0,0.0,0.0,0.0,0.0,0.0,0.0,0.0,0.0,0.0,0.0,0.0,0.0,0.0,0.0,0.0,0.0,0.0,0.0,0.0,0.0,0.0,0.0,0.0,0.0,0.0,0.0,0.0,0.0,0.0,0.0,0.0,0.0,0.0,0.0,0.0,0.0,0.0,0.0,0.0,0.0,0.0,0.0,0.0,0.0,0.0,0.0,0.0,0.0,0.0,0.0,0.0,0.0,0.0,0.0,0.0,0.0,0.0,0.0,0.0,0.0,0.0,0.0,0.0,0.0,0.0,0.0,0.0,0.0,0.0,0.0,0.0,0.0,0.0,0.0,0.0,0.0,0.0,0.0,0.0,0.0,0.0,0.0,0.0,0.0,0.0,0.0,0.0,0.0,0.0,0.0,0.0,0.0,0.0,0.0,0.0,0.0,0.0,0.0,0.0,0.0,0.0,0.0,0.0,0.0,0.0,0.0,0.0,0.0,0.0,0.0,0.0,0.0,0.0,0.0,0.0,0.0,0.0,0.0,0.0,0.0,0.0,0.0,0.0,0.0,0.0,0.0,0.0,0.0,0.0,0.0,0.0,0.0,0.0,0.0,0.0,0.0,0.0,0.0,0.0,0.0,0.0,0.0,0.0,0.0,0.0,0.0,0.0,0.0,0.0,0.0,0.0,0.0,0.0,0.0,0.0,0.0,0.0,0.0,0.0,0.0,0.0,0.0,0.0,0.0,0.0,0.0,0.0,0.0,0.0,0.0,0.0,0.0,0.0,0.0,0.0,0.0,0.0,0.0,0.0,0.0,0.0,0.0,0.0,0.0,0.0,0.0,0.0,0.0,0.0,0.0,0.0,0.0,0.0,0.0,0.0,0.0,0.0,0.0,0.0,0.0,0.0,0.0,0.0,0.0,0.0,0.0,0.0,0.0,0.0,0.0,0.0,0.0,0.0,0.0,0.0,0.0,0.0,0.0,0.0,0.0,0.0,0.0,0.0,0.0,0.0,0.0,0.0,0.0,0.0,0.0,0.0,0.0,0.0,0.0,0.0,0.0,0.0,0.0,0.0,0.0,0.0,0.0,0.0,0.0,0.0,0.0,0.0,0.0,0.0,0.0,0.0,0.0,0.0,0.0,0.0,0.0,0.0,0.0,0.0,0.0,0.0,0.0,0.0,0.0,0.0,0.0,0.0,0.0,0.0,0.0,0.0,0.0,0.0,0.0,0.0,0.0,0.0,0.0,0.0,0.0,0.0,0.0,0.0,0.0,0.0,0.0,0.0,0.0,0.0,0.0,0.0,0.0,0.0,0.0,0.0,0.0,0.0,-4.8632,0.0,0.0,0.0,0.0,0.0,0.0,0.0,0.0,0.0,0.0,0.0,0.0,0.0,0.0,0.0,0.0,0.0,0.0,0.0,0.0,0.0,0.0,0.0,0.0,0.0,0.0,0.0,0.0,0.0,0.0,0.0,0.0,0.0,0.0,0.0,0.0,0.0,0.0,0.0,0.0,0.0,0.0,0.0,0.0,0.0,0.0,0.0,0.0,0.0,0.0,0.0,0.0,0.0,0.0,0.0,0.0,0.0,0.0,0.0,0.0,0.0,0.0,0.0,0.0,0.0,0.0,0.0,0.0,0.0,0.0,0.0,0.0,0.0,0.0,0.0,0.0,0.0,0.0,0.0,0.0,0.0,0.0,0.0,0.0,0.0,0.0,0.0,0.0,0.0,0.0,0.0,0.0,0.0,0.0,0.0,0.0,0.0,0.0,0.0,0.0,0.0,0.0,0.0,0.0,0.0,0.0,0.0,0.0,0.0,0.0,0.0,0.0,0.0,0.0,0.0,0.0,-4.8944,0.0,0.0,0.0,0.0,0.0,0.0,0.0,0.0,0.0,0.0,0.0,0.0,0.0,0.0,0.0,0.0,0.0,0.0,0.0,0.0,0.0,0.0,0.0,0.0,0.0,0.0,0.0,0.0,0.0,0.0,0.0,0.0,0.0,0.0,0.0,0.0,0.0,0.0,0.0,0.0,0.0,0.0,0.0,0.0,0.0,0.0,0.0,0.0,0.0,0.0,0.0,0.0,0.0,0.0,0.0,0.0,0.0,0.0,0.0,0.0,0.0,0.0,0.0,0.0,0.0,0.0,0.0,0.0,0.0,0.0,0.0,0.0,0.0,0.0,0.0,0.0,0.0,0.0,0.0,0.0,0.0,0.0,0.0,0.0,0.0,0.0,0.0,0.0,0.0,0.0,0.0,0.0,0.0,0.0,0.0,0.0,0.0,0.0,0.0,0.0,0.0,0.0,0.0,0.0,0.0,0.0,0.0,0.0,-5.3064,-5.2578,-5.1989,-5.0664,-4.9822,-4.959,-4.959,-4.9249,-4.8803,-4.8368,0.0,0.0,0.0,0.0,0.0,0.0,0.0,0.0,0.0,0.0,0.0,0.0,0.0,0.0,0.0,0.0,0.0,0.0,0.0,0.0,0.0,0.0,0.0,0.0,0.0,0.0,0.0,0.0,0.0,0.0,0.0,0.0,0.0,0.0,0.0,0.0,0.0,0.0,-5.6588,-5.66,-5.6992,-5.7656,-5.6756,0.0,0.0,0.0,0.0,0.0,0.0,0.0,0.0,0.0,0.0,0.0,0.0,0.0,0.0,0.0,0.0,0.0,0.0,0.0,0.0,0.0,0.0,0.0,0.0,0.0,0.0,0.0,0.0,0.0,0.0,0.0,0.0,0.0,0.0,0.0,0.0,0.0,0.0,0.0,0.0,0.0,0.0,0.0,-5.3427,-5.473,0.0,0.0,0.0,0.0,0.0,0.0,0.0,0.0,0.0,0.0,0.0,0.0,0.0,-5.476,-5.4362,-5.5811,-5.5771,-5.4276,-5.5503,-5.4713,-5.1989,-5.1741,-5.0916,-4.959,-4.959,0.0,-5.0846,-4.8964,0.0,0.0,0.0,0.0,0.0,0.0,0.0,0.0,0.0,0.0,0.0,0.0,0.0,0.0,0.0,0.0,0.0,0.0,0.0,0.0,0.0,0.0,0.0,0.0,0.0,0.0,0.0,0.0,0.0,0.0,0.0,0.0,0.0,0.0,0.0,0.0,-5.6601,-5.6836,-5.7344,-5.7344,-5.7812,-5.8594,-5.8164,-5.7969,-5.8008,-5.8183,0.0,0.0,0.0,0.0,0.0,0.0,0.0,0.0,0.0,0.0,0.0,0.0,0.0,0.0,0.0,0.0,0.0,0.0,0.0,0.0,0.0,0.0,0.0,0.0,0.0,0.0,0.0,0.0,0.0,0.0,0.0,0.0,0.0,0.0,0.0,0.0,0.0,0.0,0.0,-5.2529,-5.3427,-5.473,-5.4451,-5.443,0.0,0.0,0.0,0.0,0.0,0.0,0.0,0.0,0.0,-5.5179,-5.5179,-5.5291,-5.5554,-5.6571,-5.6906,-5.647,-5.6676,-5.6022,-5.4595,-5.2795,-5.1616,-5.0916,-4.995,-5.0243,-5.1272,-5.0394,-5.0627,-5.1303,0.0,0.0,0.0,0.0,-4.4977,-4.4096,0.0,0.0,0.0,0.0,0.0,0.0,0.0,0.0,0.0,0.0,0.0,0.0,0.0,0.0,0.0,-5.6484,0.0,0.0,0.0,0.0,0.0,0.0,0.0,0.0,0.0,0.0,0.0,0.0,-5.6836,-5.7265,-5.789,-5.8125,-5.8672,-5.9492,-5.9492,-5.9375,-5.9219,-5.9258,-5.9258,0.0,0.0,0.0,0.0,0.0,0.0,0.0,0.0,0.0,0.0,0.0,0.0,0.0,0.0,0.0,0.0,0.0,0.0,0.0,0.0,0.0,0.0,0.0,0.0,0.0,0.0,0.0,0.0,0.0,0.0,0.0,0.0,0.0,0.0,0.0,0.0,0.0,0.0,-5.3233,-5.3703,-5.5187,-5.4947,-5.4805,0.0,0.0,0.0,0.0,0.0,0.0,-5.5179,-5.5179,-5.5179,-5.5179,-5.5179,-5.5598,-5.6406,-5.6855,-5.7513,-5.8381,-5.768,-5.7075,-5.6593,-5.424,-5.2822,-5.1989,-5.079,-5.0608,-5.1272,-5.1272,-5.1925,-5.2767,-5.0717,-5.0269,-5.0551,-4.8506,-4.6882,-4.5552,0.0,0.0,0.0,0.0,0.0,0.0,0.0,0.0,0.0,0.0,0.0,0.0,0.0,0.0,-5.5586,-5.6523,-5.6601,-5.6601,0.0,0.0,0.0,0.0,0.0,0.0,0.0,0.0,0.0,-5.6601,-5.7422,-5.7851,-5.793,-5.875,-5.957,-6.0351,-6.0351,-5.9922,-5.9258,-6.0,-6.0234,-6.0195,0.0,0.0,0.0,0.0,0.0,0.0,0.0,0.0,0.0,0.0,0.0,0.0,0.0,0.0,0.0,0.0,0.0,0.0,0.0,0.0,0.0,0.0,0.0,0.0,0.0,0.0,0.0,0.0,0.0,0.0,0.0,0.0,0.0,0.0,0.0,0.0,0.0,0.0,0.0,-5.6225,-5.5097,0.0,0.0,0.0,0.0,-5.5179,-5.5179,-5.5179,-5.5179,-5.5179,-5.5179,-5.5179,-5.5179,-5.5777,-5.7034,-5.7064,-5.7752,-5.9069,-5.8961,-5.8166,-5.6736,-5.648,-5.4831,-5.1989,-5.1865,-5.1689,-5.1272,-5.1272,-5.1925,-5.2767,-5.0717,-5.1138,-5.2491,-5.0551,-4.9819,-4.9391,0.0,0.0,0.0,0.0,0.0,0.0,0.0,0.0,0.0,0.0,0.0,0.0,0.0,-5.4765,-5.5664,-5.6523,-5.6601,-5.6601,-5.6601,0.0,0.0,0.0,0.0,0.0,0.0,0.0,-5.6588,-5.712,-5.7432,-5.8141,-5.9279,-5.9678,-6.0312,-6.1094,-6.1211,-6.1094,-6.082,-6.1094,-6.1211,-6.1172,-6.1484,-6.1557,0.0,0.0,0.0,0.0,0.0,0.0,0.0,0.0,0.0,0.0,0.0,0.0,0.0,0.0,0.0,0.0,0.0,0.0,0.0,0.0,0.0,0.0,0.0,0.0,0.0,0.0,0.0,0.0,0.0,0.0,0.0,0.0,0.0,0.0,0.0,0.0,0.0,-5.4483,-5.5627,0.0,-5.532,-5.5179,-5.5179,-5.5179,-5.5179,-5.5179,-5.5179,-5.5179,-5.5179,-5.5179,-5.5179,-5.5807,-5.7094,-5.7094,-5.7782,-5.9099,-5.9099,-5.8743,-5.8166,-5.7187,-5.556,-5.3429,-5.2455,-5.1689,-5.1272,-5.1272,-5.1925,-5.2792,-5.2189,-5.2327,-5.2792,-5.2189,-5.0998,-4.9961,0.0,0.0,0.0,0.0,0.0,0.0,0.0,0.0,0.0,0.0,0.0,-5.3476,-5.4336,-5.5234,-5.5976,-5.6562,-5.6601,-5.6601,-5.6601,0.0,0.0,0.0,0.0,0.0,0.0,-5.6239,-5.6597,-5.7381,-5.7692,-5.8583,-6.0011,-6.0399,-6.0895,-6.1484,-6.1601,-6.164,-6.1719,-6.1719,-6.1719,-6.1719,-6.1719,-6.164,-6.1562,0.0,0.0,0.0,0.0,0.0,0.0,0.0,0.0,0.0,0.0,0.0,0.0,0.0,0.0,0.0,0.0,0.0,0.0,0.0,0.0,0.0,0.0,0.0,0.0,0.0,0.0,0.0,0.0,0.0,0.0,0.0,0.0,0.0,0.0,0.0,-5.6413,-5.4514,-5.6184,-5.684,-5.532,-5.5179,-5.5179,-5.5179,-5.5179,-5.5179,-5.5179,-5.5179,-5.5179,-5.5179,-5.5179,-5.5807,-5.7094,-5.7094,-5.7782,-5.9099,-5.9099,-5.9099,-5.9099,-5.8026,-5.6394,-5.4268,-5.3308,-5.2297,-5.1272,-5.1272,-5.1925,-5.2929,-5.2929,-5.2929,-5.2929,-5.2929,-5.205,-5.0857,0.0,0.0,0.0,0.0,0.0,0.0,0.0,0.0,0.0,0.0,-5.3476,-5.4336,-5.5195,-5.6094,-5.6601,-5.6601,-5.6601,-5.6601,-5.6601,-5.6601,0.0,0.0,0.0,0.0,-5.6186,-5.6225,-5.6626,-5.745,-5.8312,-5.9158,-6.0027,-6.0896,-6.1361,-6.1484,-6.1484,-6.1562,-6.168,-6.1719,-6.1719,-6.1719,-6.1719,-6.1719,-6.168,0.0,0.0,0.0,0.0,0.0,0.0,0.0,0.0,0.0,0.0,0.0,0.0,0.0,0.0,0.0,0.0,0.0,0.0,0.0,0.0,0.0,0.0,0.0,0.0,0.0,0.0,0.0,0.0,0.0,0.0,0.0,0.0,0.0,-5.636,-5.6561,-5.6701,-5.6495,-5.6866,-5.6541,-5.528,-5.5179,-5.5179,-5.5179,-5.5179,-5.5179,-5.5179,-5.5179,-5.5179,-5.5179,-5.5179,-5.5807,-5.7094,-5.7094,-5.7782,-5.9099,-5.9099,-5.9099,-5.9099,-5.9099,-5.744,-5.4505,-5.4386,-5.3272,-5.1405,-5.1272,-5.1925,-5.2929,-5.2929,-5.2929,-5.2929,-5.2929,-5.2929,-5.2629,0.0,0.0,0.0,0.0,0.0,0.0,0.0,0.0,0.0,0.0,-5.3476,-5.4336,-5.5195,-5.6094,-5.6601,-5.6601,-5.6601,-5.6601,-5.6601,0.0,0.0,0.0,0.0,0.0,-5.5994,-5.6533,-5.7203,-5.805,-5.8873,-5.9719,-6.0589,-6.0896,-6.1113,-6.1142,-6.1403,-6.1523,-6.1562,-6.164,-6.1719,-6.1719,-6.1719,-6.1719,-6.1719,0.0,0.0,0.0,0.0,0.0,0.0,0.0,0.0,0.0,0.0,0.0,0.0,0.0,0.0,0.0,0.0,0.0,0.0,0.0,0.0,0.0,0.0,0.0,0.0,0.0,0.0,0.0,0.0,0.0,0.0,0.0,0.0,-5.748,-5.636,-5.7885,-5.8216,-5.5642,-5.705,-5.7465,-5.5381,-5.5179,-5.5179,-5.5179,-5.5179,-5.5179,-5.5179,-5.5179,-5.5179,-5.5179,-5.5179,-5.5807,-5.7094,-5.7094,-5.7782,-5.9099,-5.9099,-5.9099,-5.9099,-5.9099,-5.8026,-5.6022,-5.4859,-5.3862,-5.2855,-5.1778,-5.1925,-5.2929,-5.2929,-5.2929,-5.2929,-5.2929,-5.2929,-5.2629,0.0,0.0,0.0,0.0,0.0,0.0,0.0,0.0,0.0,0.0,-5.3672,-5.4453,-5.5703,-5.6289,-5.6601,-5.6601,-5.6601,-5.6591,-5.658,0.0,0.0,0.0,0.0,-5.6049,-5.6357,-5.678,-5.7588,-5.8819,-5.9281,-5.9935,-6.0781,-6.0858,-6.0935,-6.102,-6.12,-6.1381,-6.1523,-6.1562,-6.164,-6.1719,-6.1719,-6.1719,-6.1719,-6.1719,-6.164,-6.1562,-6.1523,-6.1465,-6.1327,-6.1079,0.0,0.0,0.0,0.0,0.0,0.0,0.0,0.0,0.0,0.0,0.0,0.0,0.0,0.0,0.0,0.0,0.0,0.0,0.0,0.0,0.0,0.0,0.0,0.0,-5.7137,-5.7628,-5.7039,-5.8724,-5.9164,-5.6614,-5.7771,-5.8085,-5.6183,-5.5451,-5.5179,-5.5179,-5.5179,-5.5179,-5.5179,-5.5179,-5.5179,-5.5179,-5.5179,-5.5807,-5.7094,-5.7094,-5.7782,-5.9099,-5.9099,-5.9099,-5.9099,-5.9099,-5.8276,-5.6593,-5.5791,-5.4688,-5.3576,-5.262,-5.2546,0.0,0.0,0.0,0.0,0.0,-5.2929,-5.2767,0.0,0.0,0.0,0.0,0.0,0.0,0.0,0.0,0.0,0.0,0.0,-5.4765,-5.6406,-5.6601,-5.6601,-5.6601,-5.6598,-5.6605,0.0,0.0,0.0,-5.5895,-5.5895,-5.6203,-5.6973,-5.7088,-5.7934,-5.9511,-5.9588,-6.005,-6.0781,-6.0781,-6.0858,-6.0973,-6.0973,-6.119,-6.1472,-6.1483,-6.1562,-6.1719,-6.1719,-6.1719,-6.1719,-6.1719,-6.1719,-6.168,-6.1562,-6.1523,-6.1481,-6.1178,0.0,0.0,0.0,0.0,0.0,0.0,0.0,0.0,0.0,0.0,0.0,0.0,0.0,0.0,0.0,0.0,0.0,0.0,0.0,0.0,0.0,0.0,0.0,0.0,-5.7408,-5.7915,-5.8017,-5.9201,-5.9665,-5.8459,-5.8734,-5.8451,-5.7181,-5.5986,-5.5381,-5.5179,-5.5179,-5.5179,-5.5179,0.0,0.0,0.0,0.0,-5.5807,-5.7094,-5.7094,-5.7782,-5.9099,-5.9099,-5.9099,-5.9099,-5.9099,-5.8276,-5.6962,-5.6736,-5.5765,-5.406,-5.3704,-5.3266,-5.2929,-5.2929,-5.2929,-5.2929,-5.2929,-5.2929,-5.2929,0.0,0.0,0.0,0.0,0.0,0.0,0.0,0.0,0.0,-5.3867,-5.4609,-5.543,-5.6484,-5.6601,-5.6601,-5.6601,-5.6591,-5.6559,0.0,0.0,-5.5994,-5.5895,-5.578,-5.6126,-5.6973,-5.7703,-5.855,-5.9511,-6.0204,-6.0627,-6.0781,-6.0781,-6.0819,-6.0819,-6.0935,-6.1109,-6.1366,-6.1437,-6.1562,-6.1719,-6.1719,-6.1719,-6.1719,-6.1719,-6.1719,-6.1719,-6.168,-6.164,-6.164,-6.1475,-6.1316,-6.1166,-6.0902,0.0,0.0,0.0,0.0,0.0,0.0,0.0,0.0,0.0,0.0,0.0,0.0,0.0,0.0,0.0,0.0,0.0,0.0,0.0,0.0,-5.6799,-5.7408,-5.8084,-5.8693,-5.9539,-5.9665,-5.8459,-5.9446,-5.9434,-5.7245,-5.68,-5.628,-5.528,-5.5179,-5.5179,-5.5179,-5.5179,-5.5179,-5.5179,-5.5179,-5.5807,-5.7094,-5.7094,-5.7782,-5.9099,0.0,0.0,-5.9099,-5.9099,-5.8991,-5.8525,-5.7299,-5.7081,-5.7366,-5.4692,-5.3266,-5.2929,-5.2929,-5.2929,-5.2929,-5.2929,-5.2929,-5.2929,0.0,0.0,0.0,0.0,0.0,0.0,0.0,0.0,0.0,0.0,-5.5039,-5.5625,-5.6484,-5.6601,-5.6601,-5.6601,-5.655,0.0,0.0,-5.6071,-5.5857,-5.578,-5.5742,-5.6319,-5.7627,-5.8088,-5.8896,-6.0165,-6.0589,-6.0781,-6.0781,-6.0781,-6.0781,-6.0781,-6.0858,-6.0973,-6.1158,-6.1323,-6.1463,-6.1601,-6.168,-6.1719,-6.1719,-6.1719,-6.1719,-6.1719,-6.1719,-6.1719,-6.168,-6.1562,-6.1476,-6.1357,-6.1095,-6.08,-6.0506,0.0,0.0,0.0,0.0,0.0,0.0,0.0,0.0,0.0,0.0,0.0,0.0,0.0,0.0,-5.7588,0.0,0.0,-5.7397,-5.7345,-5.7645,-5.8152,-5.8896,-5.9641,-5.9987,-5.9777,-6.0291,-5.987,-5.8085,-5.7339,-5.6541,-5.528,-5.5179,-5.5179,-5.5179,-5.5179,-5.5179,-5.5179,-5.5179,-5.5807,-5.7094,-5.7094,-5.7782,-5.9099,-5.9099,-5.9099,-5.9099,-5.9099,-5.9099,-5.9099,-5.8276,-5.8169,-5.8284,-5.5564,-5.3915,-5.2929,-5.2929,-5.2929,-5.2929,-5.2929,-5.2929,-5.2929,0.0,0.0,0.0,0.0,0.0,0.0,0.0,0.0,0.0,0.0,-5.5469,-5.582,-5.6523,-5.6601,-5.6601,0.0,0.0,0.0,0.0,-5.5994,-5.5818,-5.5703,-5.5857,-5.6703,-5.828,-5.8473,-5.9281,-6.0781,-6.0781,-6.0781,-6.0781,-6.0781,-6.0781,-6.0781,-6.0781,-6.0896,-6.1058,-6.1242,-6.14,-6.1562,-6.164,-6.1719,-6.1719,-6.1719,-6.1719,-6.1719,-6.1719,-6.1719,-6.168,-6.1562,-6.1523,-6.1436,-6.1182,-6.1057,-6.0887,-6.0414,-6.0255,0.0,0.0,0.0,0.0,0.0,0.0,0.0,0.0,0.0,-5.9685,-6.0456,-6.0071,-5.9473,-5.9419,-5.8794,-5.8185,-5.7925,-5.8017,-5.8355,-5.9133,-5.9877,-6.0622,-6.1434,-6.1146,-6.0417,-5.8902,-5.79,-5.6704,-5.528,-5.5179,-5.5179,-5.5179,-5.5179,-5.5179,-5.5179,-5.5179,-5.5807,-5.7094,-5.7094,-5.7782,-5.9099,-5.9099,-5.9099,-5.9099,-5.9099,-5.9099,-5.9129,-5.9011,-5.8629,-5.7837,-5.6057,-5.4433,-5.2929,-5.2929,-5.2929,-5.2929,-5.2929,-5.2929,-5.2929,0.0,0.0,0.0,0.0,0.0,0.0,0.0,0.0,0.0,0.0,0.0,0.0,0.0,0.0,0.0,0.0,0.0,0.0,-5.6207,-5.5895,-5.5703,-5.5703,-5.6434,-5.7319,-5.828,-5.9011,-5.9858,-6.0781,-6.0781,-6.0781,-6.0781,-6.0781,-6.0781,-6.0781,-6.0781,-6.0973,-6.1266,-6.1296,-6.1447,-6.168,-6.168,-6.1719,-6.1719,-6.1719,-6.1719,-6.1719,-6.1719,-6.1719,-6.1719,-6.168,-6.1601,-6.1484,-6.1477,-6.1226,-6.0973,-6.0911,0.0,-6.0734,-6.0647,-6.0647,-6.0533,-6.0132,-6.0194,-6.0304,0.0,0.0,-6.0493,-6.13,-6.082,-6.03,-6.0271,-5.9564,-5.8703,-5.7993,-5.8457,-5.9133,-5.9877,-6.0655,-6.1434,-6.2178,-6.2234,-6.1317,-5.8992,-5.8722,-5.7621,-5.5381,-5.5179,-5.5179,-5.5179,-5.5179,-5.5179,-5.5179,-5.5179,-5.5807,-5.7094,-5.7094,-5.7782,-5.9099,-5.9099,-5.9099,-5.9099,-5.9099,-5.9099,-5.905,-5.8749,-5.7729,-5.6237,-5.5698,-5.4433,-5.2929,-5.2929,-5.2929,-5.2929,-5.2929,-5.2929,-5.2929,0.0,0.0,0.0,0.0,0.0,0.0,0.0,0.0,0.0,0.0,0.0,0.0,0.0,0.0,0.0,0.0,0.0,0.0,-5.621,-5.5955,-5.578,-5.5703,-5.6511,-5.7396,-5.828,-5.9088,-5.9935,-6.0781,-6.0781,-6.0781,-6.0781,-6.0781,-6.0781,-6.0781,-6.0781,-6.0896,-6.1135,-6.1253,-6.1423,-6.1603,-6.1658,-6.1719,-6.1719,-6.1719,-6.1719,-6.1719,-6.1719,-6.1719,0.0,0.0,-6.164,-6.16,-6.1515,-6.134,-6.1152,-6.1048,-6.0896,-6.0896,-6.1396,-6.155,-6.1603,-6.1876,-6.1666,-6.143,-6.1693,-6.144,-6.1337,-6.2144,-6.2004,-6.1623,-6.1193,-6.0784,-6.0254,0.0,-5.9595,-6.0032,-6.0698,-6.1095,-6.1569,-6.2313,-6.2381,-6.148,-5.8992,-5.8177,-5.6991,-5.528,-5.5179,-5.5179,-5.5179,-5.5179,-5.5179,-5.5179,-5.5179,-5.5807,-5.7094,-5.7094,-5.7782,-5.9099,-5.9099,-5.9099,-5.9099,-5.9099,-5.9099,-5.905,-5.8666,-5.7485,-5.5991,-5.5568,-5.4433,-5.2929,-5.2929,-5.2929,-5.2929,-5.2929,-5.2929,-5.2929,0.0,0.0,0.0,0.0,0.0,0.0,0.0,0.0,0.0,0.0,0.0,0.0,0.0,0.0,0.0,0.0,0.0,0.0,0.0,-5.6078,-5.5895,-5.5742,-5.684,-5.7665,-5.828,-5.9319,-6.0165,-6.0781,-6.0781,-6.0781,-6.0781,-6.0781,-6.0781,-6.0781,-6.0819,-6.0935,-6.1097,-6.1286,-6.1407,-6.1562,-6.1642,-6.1719,-6.1719,-6.1719,-6.1719,-6.1719,-6.1719,-6.1719,0.0,0.0,-6.1719,-6.1715,-6.188,-6.1783,-6.1641,-6.173,-6.1627,-6.1627,-6.2243,-6.2435,-6.2551,-6.3166,-6.2833,-6.2513,-6.2974,-6.2636,-6.2266,-6.2745,-6.2805,-6.2567,-6.177,-6.1604,-6.1306,-6.0421,-6.0497,-6.077,-6.1249,-6.1467,-6.1806,-6.2347,-6.211,-6.1235,-5.9434,-5.8177,-5.68,-5.528,-5.5179,-5.5179,-5.5179,-5.5179,-5.5179,-5.5179,-5.5179,-5.5807,-5.7094,-5.7094,-5.7782,-5.9099,-5.9099,-5.9099,-5.9099,-5.9099,-5.9099,-5.905,-5.8666,-5.7485,-5.5991,-5.5568,-5.4433,-5.2929,-5.2929,-5.2929,-5.2929,-5.2929,-5.2929,-5.2929,0.0,0.0,0.0,0.0,0.0,0.0,0.0,0.0,0.0,0.0,0.0,0.0,0.0,0.0,0.0,0.0,0.0,0.0,0.0,-5.6251,-5.6109,-5.5895,-5.7533,-5.8418,-5.8319,-5.9935,-6.0781,-6.0781,-6.0781,-6.0781,-6.0781,-6.0781,-6.0781,-6.0819,-6.0935,-6.1112,-6.1304,-6.1443,-6.156,-6.1679,-6.1718,-6.1719,-6.1719,-6.1719,-6.1719,-6.1719,-6.1719,0.0,0.0,0.0,-6.1719,-6.1832,-6.2689,-6.2743,0.0,-6.3467,-6.3474,0.0,0.0,0.0,-6.3281,-6.3281,-6.3532,-6.3638,-6.3198,-6.3338,-6.3371,-6.2867,-6.2805,-6.2567,-6.177,-6.1604,-6.1306,-6.0421,-6.0947,-6.139,-6.1316,-6.1907,-6.2347,-6.2381,-6.1399,-6.0586,0.0,-5.9434,-5.7714,-5.5381,-5.5179,-5.5179,-5.5179,-5.5179,-5.5179,-5.5179,-5.5179,-5.5807,-5.7094,-5.7094,-5.7782,-5.9099,-5.9099,-5.9099,-5.9099,-5.9099,-5.9099,-5.905,-5.8666,-5.7485,-5.5991,-5.5568,-5.4433,-5.2929,-5.2929,-5.2929,-5.2929,-5.2929,-5.2929,-5.2929,0.0,0.0,0.0,0.0,0.0,0.0,0.0,0.0,0.0,0.0,0.0,0.0,0.0,0.0,0.0,0.0,0.0,0.0,0.0,-5.6367,-5.6514,-5.6859,-5.8027,-5.8886,-5.9419,-6.0419,-6.0935,-6.0935,-6.0819,-6.0781,-6.0781,-6.0781,-6.0781,-6.0819,-6.0935,-6.1116,-6.1314,-6.1422,-6.156,-6.1719,-6.1719,-6.1719,-6.1719,-6.1719,-6.1719,-6.1797,0.0,0.0,0.0,0.0,0.0,0.0,-6.367,0.0,0.0,-6.3444,0.0,0.0,0.0,0.0,-6.432,-6.4897,-6.4824,-6.461,-6.4448,-6.3991,-6.3543,-6.3363,-6.3062,-6.2705,-6.2464,-6.285,-6.2911,-6.1976,-6.2459,-6.2788,-6.2106,-6.2245,-6.2381,-6.2381,-6.203,0.0,0.0,0.0,0.0,-5.6445,-5.5651,-5.5179,-5.5179,-5.5179,-5.5179,-5.5179,-5.5179,-5.5807,-5.7094,-5.7094,-5.7782,-5.9099,-5.9099,-5.9099,-5.9099,-5.9099,-5.9099,-5.905,-5.8666,-5.7485,-5.5991,-5.5568,-5.4433,-5.2929,-5.2929,-5.2929,-5.2929,-5.2929,-5.2929,-5.2929,0.0,0.0,0.0,0.0,0.0,0.0,0.0,0.0,0.0,0.0,0.0,0.0,0.0,0.0,0.0,0.0,0.0,0.0,0.0,0.0,-5.6788,-5.7499,-5.832,-5.9157,-5.9976,-6.0712,-6.1116,-6.1112,-6.0935,-6.0896,-6.0973,-6.0858,-6.0858,-6.0973,-6.105,-6.1193,-6.1368,-6.1516,-6.1616,-6.1719,-6.1719,-6.1719,-6.1719,-6.1719,-6.1875,0.0,0.0,0.0,0.0,0.0,0.0,0.0,0.0,0.0,0.0,0.0,0.0,0.0,0.0,-6.5051,-6.5205,-6.5743,-6.5663,-6.5321,-6.513,-6.4626,-6.4019,-6.368,-6.3576,-6.3456,-6.3296,-6.3943,-6.431,-6.3607,-6.3894,-6.3917,-6.3021,-6.2855,-6.2736,-6.2459,-6.2381,-6.211,0.0,0.0,0.0,-5.7714,-5.6541,-5.5819,-5.5819,-5.5451,-5.5179,-5.5179,-5.5179,-5.5807,-5.7094,-5.7094,-5.7782,-5.9099,-5.9099,-5.9099,-5.9099,-5.9099,-5.9099,-5.905,-5.9295,-5.8108,-5.5991,-5.6212,-5.4942,-5.2929,-5.2929,-5.2929,-5.2929,-5.2929,-5.2929,-5.2929,0.0,0.0,0.0,0.0,0.0,0.0,0.0,0.0,0.0,0.0,0.0,0.0,0.0,0.0,0.0,0.0,0.0,0.0,0.0,0.0,0.0,-5.7734,-5.8515,-5.928,-6.0059,-6.0895,-6.1313,-6.1318,-6.1119,-6.1097,-6.1304,-6.0981,-6.102,-6.1304,-6.1304,-6.1381,-6.1489,-6.1641,-6.1719,-6.1719,-6.1719,-6.1719,-6.1719,-6.1719,0.0,0.0,0.0,0.0,0.0,0.0,0.0,0.0,0.0,0.0,0.0,0.0,0.0,-6.5897,-6.5897,-6.5897,-6.5897,-6.5897,-6.5897,-6.5781,-6.5261,-6.513,-6.4833,-6.3888,-6.4301,-6.4679,0.0,0.0,-6.5294,-6.5055,-6.5082,-6.4724,-6.3724,-6.3647,-6.3314,0.0,0.0,0.0,0.0,0.0,0.0,-5.9081,0.0,-5.7086,-5.7086,-5.5918,-5.5179,-5.528,-5.5179,-5.5807,-5.7094,-5.7154,-5.7842,-5.9099,-5.9099,-5.9099,-5.9099,-5.9099,-5.9099,-5.9189,-6.0394,-5.9132,-5.6114,-5.7354,-5.5841,-5.2929,-5.2929,-5.2929,-5.2929,-5.2929,-5.2929,-5.2929,0.0,0.0,0.0,0.0,0.0,0.0,0.0,0.0,0.0,0.0,0.0,0.0,0.0,0.0,0.0,0.0,0.0,0.0,0.0,0.0,0.0,0.0,0.0,0.0,0.0,0.0,0.0,-6.1465,-6.1289,-6.1268,-6.1304,-6.1208,-6.1212,-6.1304,-6.142,-6.1458,-6.1489,-6.1641,-6.1719,-6.1719,0.0,-6.1719,-6.1719,0.0,0.0,0.0,0.0,0.0,0.0,0.0,0.0,0.0,0.0,-6.6379,-6.6373,0.0,0.0,-6.6051,-6.6051,-6.5974,-6.5897,-6.5897,-6.5897,-6.5872,-6.5717,-6.5388,-6.509,-6.5085,-6.4935,-6.4819,-6.4963,-6.5668,-6.5715,-6.4341,-6.465,0.0,-6.2973,-6.2736,0.0,-6.2459,0.0,-6.2381,-6.2381,-6.211,0.0,0.0,-5.869,-5.7339,-5.8268,-5.6378,-5.5651,-5.6541,-5.5651,-5.5807,-5.7094,-5.8082,-5.877,-5.9099,-5.9099,-5.9099,-5.9099,-5.9099,-5.9099,-5.905,-5.9152,-5.799,-5.5991,-5.6084,-5.4809,-5.2929,-5.2929,-5.2929,-5.2929,-5.2929,-5.2929,-5.2929,0.0,0.0,0.0,0.0,0.0,0.0,0.0,0.0,0.0,0.0,0.0,0.0,0.0,0.0,0.0,0.0,0.0,0.0,0.0,0.0,0.0,0.0,0.0,0.0,0.0,0.0,0.0,0.0,0.0,0.0,-6.146,-6.1343,-6.1343,-6.1486,-6.1484,-6.1544,-6.1603,-6.1655,0.0,0.0,0.0,0.0,0.0,0.0,0.0,0.0,0.0,0.0,0.0,0.0,0.0,-6.6719,-6.6719,-6.6625,-6.6502,-6.6504,0.0,-6.6097,-6.6101,-6.5974,-6.5897,-6.5897,-6.5897,-6.5897,-6.5897,-6.5931,-6.5879,-6.5653,-6.5902,-6.615,-6.586,-6.6476,-6.6683,0.0,0.0,0.0,-6.3757,-6.324,-6.2855,0.0,-6.2381,0.0,-6.2381,-6.2381,-6.2381,0.0,-6.0043,-5.887,-5.9522,-5.7276,-5.625,-5.6991,-5.5819,-5.5807,-5.7094,-5.8441,-5.9099,-5.9099,-5.9099,-5.9099,-5.9099,-5.9099,-5.9249,-5.9469,0.0,-5.7655,-5.6376,-5.5675,-5.4433,-5.2929,-5.2929,-5.2929,-5.2929,-5.2929,-5.2929,-5.2929,0.0,0.0,0.0,0.0,0.0,0.0,0.0,0.0,0.0,0.0,0.0,0.0,0.0,0.0,0.0,0.0,0.0,0.0,0.0,0.0,0.0,0.0,0.0,0.0,0.0,0.0,0.0,0.0,0.0,0.0,0.0,0.0,0.0,0.0,0.0,0.0,0.0,0.0,0.0,0.0,0.0,0.0,0.0,0.0,0.0,0.0,0.0,0.0,0.0,0.0,-6.6914,-6.6914,-6.6914,-6.6797,-6.664,-6.664,-6.6408,-6.6151,-6.6121,-6.6051,-6.5897,-6.5897,-6.5897,-6.5936,-6.6013,-6.6564,-6.6778,-6.6105,-6.697,-6.7648,-6.6846,-6.721,-6.7687,-6.7542,0.0,-6.5904,-6.4933,-6.4113,-6.3274,-6.2459,-6.2381,-6.2381,-6.2381,-6.2381,-6.2381,-6.2381,-6.1399,-6.087,-6.087,-5.8419,-5.6927,-5.6954,-5.5932,-5.6017,-5.7214,-5.8471,-5.9099,-5.9099,-5.9099,-5.9099,-5.9099,-5.9099,-5.9458,-6.0006,-5.8697,-5.7733,-5.6899,-5.5575,-5.4164,-5.2929,-5.2929,-5.2929,-5.2929,-5.2929,-5.2929,-5.2929,0.0,0.0,0.0,0.0,0.0,0.0,0.0,0.0,0.0,0.0,0.0,0.0,0.0,0.0,0.0,0.0,0.0,0.0,0.0,0.0,0.0,0.0,0.0,0.0,0.0,0.0,0.0,0.0,0.0,0.0,0.0,0.0,0.0,0.0,0.0,0.0,0.0,0.0,0.0,0.0,0.0,0.0,0.0,0.0,0.0,0.0,0.0,0.0,0.0,0.0,-6.6914,-6.6914,-6.6914,-6.6875,-6.6836,-6.6836,-6.6677,-6.6499,-6.6355,-6.623,-6.6051,-6.5936,-6.5897,-6.6051,-6.6744,-6.6653,0.0,-6.7429,-6.7428,-6.7374,-6.7479,-6.7614,-6.7488,-6.6736,-6.5842,-6.4933,-6.4042,-6.3199,-6.2581,0.0,-6.2381,-6.2381,-6.2381,-6.2381,0.0,0.0,-6.2223,-6.211,-6.211,-5.887,-5.6787,-5.6334,-5.6599,-5.7154,-5.7932,-5.871,-5.9099,-5.9099,-5.9099,-5.9099,-5.9099,-5.9099,-5.9458,-6.0006,-5.7468,0.0,-5.6773,-5.4334,-5.3179,-5.2929,-5.2929,-5.2929,-5.2929,-5.2929,-5.2929,-5.2929,0.0,0.0,0.0,0.0,0.0,0.0,0.0,0.0,0.0,0.0,0.0,0.0,0.0,0.0,0.0,0.0,0.0,0.0,0.0,0.0,0.0,0.0,0.0,0.0,0.0,0.0,0.0,0.0,0.0,0.0,0.0,0.0,0.0,0.0,0.0,0.0,0.0,0.0,0.0,0.0,0.0,0.0,0.0,0.0,0.0,0.0,0.0,0.0,0.0,0.0,-6.6914,-6.6914,-6.6914,-6.6914,-6.6914,-6.6914,-6.6758,-6.655,-6.6431,-6.6234,-6.6051,-6.5936,-6.5897,-6.609,-6.6898,0.0,0.0,-6.7844,-6.7947,-6.7826,-6.7736,-6.7687,-6.7542,-6.7174,-6.5868,-6.4866,-6.4427,-6.324,-6.2381,-6.2381,-6.2381,-6.2381,-6.2381,-6.2381,-6.2381,-6.2381,-6.2381,-6.2381,-6.2381,-5.961,-5.7397,-5.6239,-5.6765,-5.7423,-5.8112,-5.877,-5.9099,-5.9099,-5.9099,-5.9099,-5.9099,-5.9099,-5.9668,-6.0403,-5.7372,-5.6555,-5.7339,-5.4221,-5.2929,-5.2929,-5.2929,-5.2929,-5.2929,-5.2929,-5.2929,-5.2929,0.0,0.0,0.0,0.0,0.0,0.0,0.0,0.0,0.0,0.0,0.0,0.0,0.0,0.0,0.0,0.0,0.0,0.0,0.0,0.0,0.0,0.0,0.0,0.0,0.0,0.0,0.0,0.0,0.0,0.0,0.0,0.0,0.0,0.0,0.0,0.0,0.0,0.0,0.0,0.0,0.0,0.0,0.0,0.0,0.0,0.0,0.0,0.0,0.0,0.0,-6.6914,-6.6874,-6.6848,-6.6862,-6.6914,-6.6914,-6.6797,-6.6635,-6.6429,-6.6283,-6.6128,-6.5936,-6.5897,-6.6103,-6.6984,-6.7317,-6.7574,-6.8025,-6.8257,-6.821,-6.7757,-6.7687,-6.7687,0.0,-6.6332,-6.5196,-6.4999,-6.3612,-6.2581,-6.2381,-6.2381,0.0,-6.2381,-6.2381,0.0,-6.2381,-6.2381,-6.2189,-6.1676,-5.9946,-5.8154,-5.6449,-5.6974,-5.7633,-5.8321,-5.886,-5.9099,-5.9099,-5.9099,-5.9099,-5.9099,-5.9249,-5.9967,-6.0992,-5.8013,-5.7231,-5.7751,-5.4701,-5.3179,-5.2929,-5.2929,-5.2929,-5.2929,-5.2929,-5.2929,-5.2929,0.0,0.0,0.0,0.0,0.0,0.0,0.0,0.0,0.0,0.0,0.0,0.0,0.0,0.0,0.0,0.0,0.0,0.0,0.0,0.0,0.0,0.0,0.0,0.0,0.0,0.0,0.0,0.0,0.0,0.0,0.0,0.0,0.0,0.0,0.0,0.0,0.0,0.0,0.0,0.0,0.0,0.0,0.0,0.0,0.0,0.0,0.0,0.0,0.0,0.0,0.0,-6.6865,-6.6669,-6.675,-6.6914,-6.6914,0.0,0.0,-6.6468,-6.6399,-6.6307,-6.5974,-6.5897,-6.6204,-6.7286,0.0,-6.7156,-6.8211,-6.8074,-6.7794,-6.7687,-6.7687,-6.7687,0.0,0.0,-6.5966,-6.5131,-6.4148,-6.3314,-6.2537,0.0,0.0,-6.2381,-6.2381,-6.2381,-6.2381,-6.2381,-6.1399,-5.9258,-5.9511,-5.8875,-5.7079,-5.7663,-5.8351,-5.9009,-5.9069,-5.9099,-5.9099,-5.9099,-5.9099,-5.9129,-5.9727,-6.0416,-6.1022,-5.9713,-5.873,0.0,-5.5945,-5.4299,-5.2929,-5.2929,-5.2929,-5.2929,-5.2929,-5.2929,-5.2929,0.0,0.0,0.0,0.0,0.0,0.0,0.0,0.0,0.0,0.0,0.0,0.0,0.0,0.0,0.0,0.0,0.0,0.0,0.0,0.0,0.0,0.0,0.0,0.0,0.0,0.0,0.0,0.0,0.0,0.0,0.0,0.0,0.0,0.0,0.0,0.0,0.0,0.0,0.0,0.0,0.0,0.0,0.0,0.0,0.0,0.0,0.0,0.0,0.0,0.0,0.0,0.0,-6.6631,-6.6629,0.0,0.0,-6.6797,-6.683,-6.6468,-6.6399,-6.6346,-6.5974,-6.5897,-6.6178,-6.7337,0.0,-6.7112,-6.8232,-6.8047,-6.7687,-6.7687,-6.7687,-6.7687,0.0,0.0,0.0,-6.5131,-6.4218,-6.3388,-6.2537,-6.2381,-6.2381,0.0,0.0,-6.2381,-6.2381,-6.2381,-6.1517,-5.9511,-5.9617,-5.8969,-5.7169,-5.7752,-5.8441,-5.9099,-5.9099,-5.9099,-5.9099,-5.9099,-5.9099,-5.9129,-5.9787,-6.0475,-6.1022,-5.8942,-5.8048,0.0,-5.5075,-5.3563,-5.2929,-5.2929,-5.2929,-5.2929,-5.2929,-5.2929,-5.2929,0.0,0.0,0.0,0.0,0.0,0.0,0.0,0.0,0.0,0.0,0.0,0.0,0.0,0.0,0.0,0.0,0.0,0.0,0.0,0.0,0.0,0.0,0.0,0.0,0.0,0.0,0.0,0.0,0.0,0.0,0.0,0.0,0.0,0.0,0.0,0.0,0.0,0.0,0.0,0.0,0.0,0.0,0.0,0.0,0.0,0.0,0.0,0.0,0.0,0.0,0.0,0.0,0.0,0.0,0.0,0.0,-6.6719,-6.6752,-6.6468,-6.6399,-6.6346,-6.5974,-6.5897,-6.6151,-6.7136,-6.7089,-6.7071,-6.8034,-6.7982,-6.7687,-6.7687,-6.7687,-6.7687,0.0,0.0,-6.6064,-6.5131,-6.4218,-6.3388,-6.2537,0.0,-6.2381,-6.2381,-6.2381,-6.2381,-6.2381,-6.2381,-6.165,-5.9928,-5.9968,-5.9251,-5.7468,-5.8052,-5.865,-5.9099,-5.9099,-5.9099,-5.9099,-5.9099,-5.9099,-5.9129,-5.9997,-6.0655,-6.1052,-5.8902,-5.7966,0.0,-5.4809,-5.3291,-5.2929,-5.2929,-5.2929,-5.2929,-5.2929,-5.2929,-5.2929,0.0,0.0,0.0,0.0,0.0,0.0,0.0,0.0,0.0,0.0,0.0,0.0,0.0,0.0,0.0,0.0,0.0,0.0,0.0,0.0,0.0,0.0,0.0,0.0,0.0,0.0,0.0,0.0,0.0,0.0,0.0,0.0,0.0,0.0,0.0,0.0,0.0,0.0,0.0,0.0,0.0,0.0,0.0,0.0,0.0,0.0,0.0,0.0,0.0,0.0,0.0,0.0,0.0,0.0,0.0,0.0,-6.6601,-6.6557,-6.6429,-6.6399,-6.6346,-6.5974,-6.5897,-6.6057,-6.6673,-6.6821,-6.6946,-6.7598,-6.7687,-6.7687,-6.7687,-6.7687,-6.7687,-6.7687,-6.6967,0.0,-6.5131,-6.4218,-6.3388,0.0,-6.2381,-6.2381,-6.2381,-6.2381,-6.2381,-6.2381,-6.2381,0.0,-5.9928,-6.0384,-5.9844,-5.8188,-5.874,-5.9099,-5.9099,-5.9099,-5.9099,-5.9099,-5.9099,-5.9099,-5.9159,-6.0475,-6.1104,-6.1052,-6.0704,-5.9475,0.0,-5.6076,-5.4433,-5.2929,-5.2929,-5.2929,-5.2929,-5.2929,-5.2929,-5.2929,0.0,0.0,0.0,0.0,0.0,0.0,0.0,0.0,0.0,0.0,0.0,0.0,0.0,0.0,0.0,0.0,0.0,0.0,0.0,0.0,0.0,0.0,0.0,0.0,0.0,0.0,0.0,0.0,0.0,0.0,0.0,0.0,0.0,0.0,0.0,0.0,0.0,0.0,0.0,0.0,0.0,0.0,0.0,0.0,0.0,0.0,0.0,0.0,0.0,0.0,0.0,0.0,0.0,0.0,0.0,0.0,0.0,0.0,-6.6225,-6.6183,-6.6128,-6.5936,-6.5897,-6.6057,-6.6673,-6.6821,-6.6946,-6.7546,-6.7687,-6.7687,-6.7687,-6.7687,-6.7687,-6.7687,-6.6967,-6.6064,0.0,0.0,0.0,-6.2537,-6.2381,-6.2381,0.0,0.0,-6.2381,-6.2381,-6.2029,-6.1435,-6.0508,-6.0263,-5.951,-5.8112,-5.877,-5.9099,-5.9099,-5.9099,-5.9099,-5.9099,-5.9099,-5.9338,-5.9787,-6.0715,-6.1373,-6.1709,-5.9651,-5.8509,-5.7751,-5.4809,-5.3427,-5.2929,-5.2929,-5.2929,-5.2929,-5.2929,-5.2929,-5.298,0.0,0.0,0.0,0.0,0.0,0.0,0.0,0.0,0.0,0.0,0.0,0.0,0.0,0.0,0.0,0.0,0.0,0.0,0.0,0.0,0.0,0.0,0.0,0.0,0.0,0.0,0.0,0.0,0.0,0.0,0.0,0.0,0.0,0.0,0.0,0.0,0.0,0.0,0.0,0.0,0.0,0.0,-6.1679,0.0,0.0,0.0,0.0,0.0,0.0,0.0,0.0,0.0,0.0,0.0,0.0,0.0,0.0,0.0,0.0,-6.609,-6.6051,-6.5936,-6.5897,-6.6057,-6.6673,-6.6821,-6.6946,-6.7546,-6.7687,-6.7687,-6.7687,-6.7687,-6.7596,-6.723,-6.6427,-6.5554,0.0,0.0,0.0,-6.2459,0.0,0.0,0.0,-6.2381,-6.2381,-6.2381,-6.19,-6.1327,-6.0703,-6.0188,-5.9471,-5.8471,-5.889,-5.9099,-5.9099,-5.9099,-5.9099,-5.9099,-5.9099,-5.9458,-6.0116,-6.0805,-6.1094,-6.0998,-5.8879,-5.7624,0.0,-5.4081,-5.2929,-5.2929,-5.2929,-5.2929,-5.2929,-5.2929,-5.2929,-5.3005,0.0,0.0,0.0,0.0,0.0,0.0,0.0,0.0,0.0,0.0,0.0,0.0,0.0,0.0,0.0,0.0,0.0,0.0,0.0,0.0,0.0,0.0,0.0,0.0,0.0,0.0,0.0,-6.1719,-6.1719,-6.1719,-6.1719,0.0,0.0,0.0,0.0,0.0,0.0,0.0,0.0,0.0,0.0,0.0,0.0,0.0,0.0,0.0,0.0,0.0,0.0,0.0,0.0,0.0,0.0,0.0,0.0,0.0,0.0,0.0,0.0,0.0,0.0,0.0,-6.5872,0.0,-6.6673,-6.6781,0.0,-6.7546,-6.7687,-6.7687,-6.7687,-6.7687,-6.7433,-6.6523,-6.5617,-6.4665,0.0,-6.2931,0.0,0.0,-6.2381,0.0,-6.2381,-6.2381,-6.2415,-6.2448,-6.1883,-6.1303,-6.0799,-6.0183,-5.9613,-5.9069,-5.9099,-5.9099,-5.9099,-5.9099,-5.9099,-5.9099,-5.9159,-5.9518,-6.0176,-6.0864,-6.0524,0.0,-5.8507,-5.6956,0.0,-5.3538,-5.2929,-5.2929,-5.2929,-5.2929,-5.2929,-5.2929,-5.2955,-5.3055,0.0,0.0,0.0,0.0,0.0,0.0,0.0,0.0,0.0,0.0,0.0,0.0,0.0,0.0,0.0,0.0,0.0,0.0,0.0,0.0,0.0,0.0,0.0,0.0,0.0,0.0,0.0,-6.1719,-6.1719,-6.1719,-6.1719,-6.1719,0.0,0.0,0.0,0.0,0.0,0.0,0.0,0.0,0.0,0.0,0.0,0.0,0.0,0.0,-6.2095,-6.2937,0.0,0.0,0.0,0.0,0.0,0.0,0.0,0.0,-6.5897,0.0,0.0,0.0,0.0,0.0,0.0,0.0,0.0,0.0,0.0,0.0,0.0,0.0,0.0,-6.7687,-6.7433,-6.6523,-6.5617,-6.4665,-6.3829,0.0,0.0,-6.2381,-6.2381,-6.2381,-6.2381,-6.2381,-6.2618,-6.3193,-6.1775,-6.111,-6.1628,-6.0157,-5.9242,-5.9099,-5.9099,-5.9099,-5.9099,-5.9099,-5.9099,-5.9099,-5.9608,-6.0206,-6.0894,-6.1553,-6.1318,-6.0157,-5.8675,-5.6956,-5.5287,-5.3538,-5.2929,-5.2929,-5.2929,-5.2929,-5.2929,-5.2929,-5.3181,-5.3607,0.0,0.0,0.0,0.0,0.0,0.0,0.0,0.0,0.0,0.0,0.0,0.0,0.0,0.0,0.0,0.0,0.0,0.0,0.0,0.0,0.0,0.0,0.0,0.0,0.0,0.0,0.0,0.0,0.0,-6.1719,0.0,0.0,0.0,0.0,0.0,0.0,0.0,0.0,0.0,0.0,-6.1497,0.0,0.0,0.0,0.0,0.0,-6.1512,-6.2397,0.0,-6.3897,-6.4859,-6.5897,0.0,0.0,0.0,0.0,-6.5897,0.0,0.0,0.0,0.0,-6.5597,-6.5321,-6.5356,0.0,0.0,0.0,0.0,0.0,0.0,0.0,0.0,-6.6852,-6.5904,-6.5035,0.0,0.0,0.0,-6.2381,-6.2381,-6.2381,-6.2381,0.0,-6.1917,-6.1896,-6.2549,-6.0935,-6.0231,-6.0924,-5.9814,-5.9099,-5.9099,-5.9099,-5.9099,-5.9099,-5.9099,-5.9099,-5.9129,-5.9757,-6.0446,-6.1134,-6.1019,-6.0291,-5.9228,-5.7596,-5.5841,-5.4164,-5.3291,-5.2929,-5.2929,-5.2929,-5.2929,-5.2929,-5.2929,-5.3256,-5.3783,0.0,0.0,0.0,0.0,0.0,0.0,0.0,0.0,0.0,0.0,0.0,0.0,0.0,0.0,0.0,0.0,0.0,0.0,0.0,0.0,0.0,0.0,0.0,0.0,0.0,0.0,0.0,0.0,0.0,0.0,0.0,0.0,-6.1719,0.0,0.0,-6.1719,-6.1719,-6.1719,0.0,-6.1477,-6.1466,0.0,0.0,0.0,0.0,0.0,0.0,0.0,0.0,-6.3281,-6.4308,-6.5628,-6.5859,0.0,0.0,0.0,0.0,0.0,0.0,-6.5291,-6.5542,-6.5099,-6.4932,-6.5078,-6.5864,0.0,0.0,0.0,0.0,0.0,0.0,-6.691,0.0,0.0,0.0,0.0,-6.2537,-6.2381,-6.2381,-6.2381,-6.2223,0.0,-6.211,-6.1036,-6.066,-6.1393,-5.9886,-5.9247,-6.002,-5.9455,-5.9099,-5.9099,-5.9099,-5.9099,-5.9099,-5.9099,-5.9099,-5.9129,-5.9877,-6.0565,-6.1022,-6.0122,-5.8993,-5.7878,0.0,0.0,-5.2929,-5.2929,-5.2929,-5.2929,-5.2929,-5.2929,-5.2929,-5.2929,-5.3306,-5.3793,0.0,0.0,0.0,0.0,0.0,0.0,0.0,0.0,0.0,0.0,0.0,0.0,0.0,0.0,0.0,0.0,0.0,0.0,0.0,0.0,0.0,0.0,0.0,0.0,0.0,0.0,0.0,0.0,0.0,0.0,-6.1719,-6.1719,-6.1719,-6.1719,0.0,-6.1719,-6.1719,-6.1719,-6.1554,-6.1342,-6.1348,0.0,0.0,0.0,0.0,0.0,0.0,0.0,0.0,-6.3089,-6.3652,-6.4335,-6.5525,0.0,0.0,0.0,0.0,0.0,-6.4626,-6.4554,-6.4628,-6.4518,-6.4178,-6.422,-6.5642,-6.5705,0.0,0.0,0.0,0.0,0.0,-6.6464,-6.5842,0.0,0.0,-6.2503,0.0,0.0,-6.2381,-6.2381,0.0,-6.087,-6.087,-5.9784,-5.9595,-6.0913,-5.9693,-5.9433,-6.0772,-5.9698,-5.9099,-5.9099,-5.9099,-5.9099,-5.9099,-5.9099,-5.9099,-5.9129,-6.0356,-6.1014,-6.1022,-6.0588,-5.9513,-5.7878,0.0,-5.4433,-5.2929,-5.2929,-5.2929,-5.2929,-5.2929,-5.2929,-5.2929,-5.2929,-5.3557,-5.411,0.0,0.0,0.0,0.0,0.0,0.0,0.0,0.0,0.0,0.0,0.0,0.0,0.0,0.0,0.0,0.0,0.0,0.0,0.0,0.0,0.0,0.0,0.0,0.0,0.0,0.0,0.0,0.0,0.0,-6.1719,-6.1719,-6.1719,-6.1719,-6.1719,0.0,-6.1719,-6.1718,-6.1616,-6.146,-6.1292,0.0,0.0,0.0,0.0,0.0,0.0,0.0,0.0,0.0,0.0,-6.3341,-6.3955,-6.4839,0.0,0.0,0.0,0.0,0.0,-6.4099,-6.3975,-6.3892,-6.3593,-6.3885,-6.451,-6.5397,-6.5764,0.0,0.0,0.0,0.0,0.0,0.0,-6.5035,-6.3314,0.0,-6.2381,-6.2381,-6.2381,-6.2381,0.0,0.0,-6.0586,-6.0586,-5.8902,-5.8373,-5.9726,-5.8608,-5.8541,-5.9879,-5.9392,-5.9099,-5.9099,-5.9099,-5.9099,-5.9099,-5.9099,-5.9279,-5.9638,-6.0625,-6.1313,-6.1559,-5.9956,-5.8731,-5.7878,0.0,-5.3538,-5.2929,-5.2929,-5.2929,-5.2929,-5.2929,-5.2929,-5.3005,-5.3582,-5.4135,-5.4116,0.0,0.0,0.0,0.0,0.0,0.0,0.0,0.0,0.0,0.0,0.0,0.0,0.0,0.0,0.0,0.0,0.0,0.0,0.0,0.0,0.0,0.0,0.0,0.0,0.0,0.0,-6.1719,-6.1719,-6.1719,-6.1719,-6.1719,-6.1719,-6.1719,0.0,-6.1719,-6.1719,-6.1678,-6.1552,-6.1427,-6.1298,0.0,0.0,0.0,0.0,0.0,0.0,0.0,0.0,0.0,0.0,0.0,0.0,0.0,0.0,0.0,-6.4217,-6.4217,-6.4136,-6.3587,-6.3408,-6.3317,-6.2904,0.0,-6.4493,-6.5147,-6.5778,0.0,0.0,0.0,0.0,0.0,-6.5035,0.0,-6.2581,-6.2381,-6.2302,-6.203,-6.1951,-6.1837,-6.1595,-6.0501,-5.9784,-5.9784,-5.7933,-5.7248,-5.8416,-5.7734,-5.7842,-5.9039,-5.9099,-5.9099,-5.9099,-5.9099,-5.9099,-5.9099,-5.9099,-5.9428,-6.0086,-6.0775,-6.1463,-6.2007,-5.9248,-5.8005,-5.7751,-5.4325,-5.2929,-5.2929,-5.2929,-5.2929,-5.2929,-5.2929,-5.2929,-5.3055,-5.416,-5.4561,-5.4116,0.0,0.0,0.0,0.0,0.0,0.0,0.0,0.0,0.0,0.0,0.0,0.0,0.0,0.0,0.0,0.0,0.0,0.0,0.0,0.0,0.0,0.0,0.0,0.0,0.0,-6.1719,-6.1719,-6.1719,-6.1719,-6.1719,-6.1719,-6.1719,-6.1719,-6.1719,-6.1719,-6.1719,-6.1678,-6.1552,-6.1405,-6.1273,-6.1074,0.0,0.0,0.0,0.0,0.0,0.0,0.0,0.0,0.0,0.0,0.0,0.0,0.0,0.0,-6.3637,-6.3637,-6.3543,-6.3014,-6.2855,-6.2855,-6.2805,-6.2842,0.0,-6.4934,-6.5338,0.0,-6.6351,0.0,0.0,0.0,-6.3199,-6.2503,-6.2381,-6.2381,-6.203,-6.087,0.0,-6.0332,-5.917,-5.7993,-5.7245,-5.7245,-5.6663,-5.6582,-5.7139,-5.7693,-5.8351,-5.9069,-5.9099,-5.9099,-5.9099,-5.9099,-5.9099,-5.9099,-5.9099,-5.9428,-6.0086,-6.0775,-6.1463,-6.2007,-5.9248,-5.8005,-5.7751,-5.4325,-5.2929,-5.2929,-5.2929,-5.2929,-5.2929,-5.2929,-5.2929,-5.3055,-5.416,-5.4561,-5.4116,0.0,0.0,0.0,0.0,0.0,0.0,0.0,0.0,0.0,0.0,0.0,0.0,0.0,0.0,0.0,0.0,0.0,0.0,0.0,0.0,0.0,0.0,0.0,-6.1719,-6.1719,-6.1719,-6.1719,-6.1719,-6.1719,-6.1719,-6.1719,-6.1719,0.0,0.0,-6.1719,-6.1719,-6.1679,-6.1456,-6.135,-6.1304,-6.0973,-6.0858,0.0,0.0,0.0,0.0,0.0,0.0,0.0,0.0,-6.1657,-6.139,-6.2933,-6.3262,-6.3073,-6.3073,-6.3073,-6.3062,-6.2855,-6.2805,-6.2805,-6.2805,-6.3209,0.0,0.0,-6.4819,-6.5207,-6.5466,-6.5554,0.0,0.0,0.0,-6.2381,-6.2381,-6.2381,-6.1951,-6.0787,-6.0586,-6.0161,-5.8902,-5.7714,-5.6991,-5.6991,-5.6495,-5.6436,-5.7034,-5.7723,-5.8411,-5.9069,-5.9099,-5.9099,-5.9099,-5.9099,-5.9099,-5.9099,-5.9099,-5.9668,-6.0715,-6.0984,-6.1045,-6.1027,-5.8896,-5.7369,-5.6206,-5.3945,-5.2929,-5.2929,-5.2929,-5.2929,-5.2929,-5.2929,-5.313,-5.3507,-5.4285,-5.4022,-5.2887,0.0,0.0,0.0,0.0,0.0,0.0,0.0,0.0,0.0,0.0,0.0,0.0,0.0,0.0,0.0,0.0,0.0,0.0,0.0,0.0,0.0,0.0,0.0,-6.1719,-6.1719,-6.1719,-6.1719,-6.1719,-6.1719,-6.1719,-6.1719,0.0,0.0,0.0,0.0,-6.1719,-6.1679,-6.14,-6.1314,-6.1266,-6.0935,-6.0781,0.0,0.0,0.0,0.0,0.0,0.0,0.0,0.0,-6.1384,-6.1078,-6.2353,-6.2805,-6.2805,-6.2805,-6.2805,-6.2805,-6.2805,-6.2805,-6.2755,0.0,0.0,0.0,-6.3203,-6.4111,-6.5022,-6.4658,-6.4357,-6.4042,-6.3388,0.0,0.0,0.0,-6.211,-6.1399,-6.0247,-5.9697,-5.8992,-5.7807,-5.6896,-5.6445,-5.6445,-5.6405,-5.6645,-5.7064,-5.7932,-5.862,-5.9069,-5.9099,-5.9099,-5.9099,-5.9099,-5.9099,-5.9099,-5.9099,-5.9787,-6.1104,-6.0482,-6.0413,-6.048,-5.8731,-5.7085,-5.5287,-5.3674,-5.2929,-5.2929,-5.2929,-5.2929,-5.2929,-5.2929,-5.3256,-5.3758,-5.4361,-5.3689,-5.2088,0.0,0.0,0.0,0.0,0.0,0.0,0.0,0.0,0.0,0.0,0.0,0.0,0.0,0.0,0.0,0.0,0.0,0.0,0.0,0.0,0.0,0.0,0.0,-6.1719,-6.1719,-6.1719,-6.1719,-6.1719,-6.1719,-6.1719,-6.1719,-6.1719,0.0,0.0,0.0,0.0,-6.1679,-6.14,-6.1314,-6.1266,-6.0935,-6.0781,-6.0781,0.0,0.0,0.0,0.0,0.0,0.0,0.0,-6.1177,-6.0676,-6.2291,-6.2805,-6.2805,-6.2805,-6.2805,-6.2805,-6.2805,-6.2805,-6.2567,0.0,0.0,0.0,-6.1603,-6.33,-6.4839,-6.3868,-6.2973,-6.2381,-6.2381,-6.2381,0.0,-6.2381,-6.1399,-6.0161,-5.8992,-5.7807,-5.6541,-5.5381,-5.5179,-5.5179,-5.5179,-5.6346,-5.7094,-5.7094,-5.8351,-5.9099,-5.9099,-5.9099,-5.9099,-5.9099,-5.9099,-5.9099,-5.9099,-5.9099,-5.9787,-6.1104,-5.9364,-5.9151,-6.048,-5.8731,-5.6956,-5.5287,-5.3674,-5.2929,-5.2929,-5.2929,-5.2929,-5.2929,-5.2929,-5.3256,-5.3758,-5.4361,-5.3544,-5.2088,0.0,0.0,0.0,0.0,0.0,0.0,0.0,0.0,0.0,0.0,0.0,0.0,0.0,0.0,0.0,0.0,0.0,0.0,0.0,0.0,0.0,0.0,0.0,0.0,0.0,0.0,-6.1719,-6.1719,-6.1719,-6.1719,0.0,0.0,0.0,-6.1719,0.0,0.0,-6.1679,-6.1511,-6.139,-6.1304,-6.1012,-6.0858,-6.0781,0.0,0.0,0.0,0.0,0.0,0.0,0.0,0.0,0.0,-6.163,-6.2365,-6.2805,-6.2805,-6.2805,-6.2805,-6.2805,-6.2376,0.0,-6.1659,0.0,0.0,0.0,-6.2335,0.0,0.0,-6.2581,-6.2381,-6.2381,-6.2381,0.0,-6.2381,-6.1399,-6.0161,-5.8992,-5.7807,-5.6541,-5.5381,-5.5179,-5.5179,-5.5179,-5.6346,-5.7094,-5.7094,-5.8351,-5.9099,-5.9099,-5.9099,-5.9099,-5.9099,-5.9099,-5.9099,-5.9099,-5.9099,-5.9787,-6.1104,-5.9364,-5.8526,-5.8606,-5.6956,-5.5181,-5.3538,-5.3179,-5.2929,-5.2929,-5.2929,-5.2929,-5.2929,-5.2929,-5.3256,-5.3758,-5.4361,-5.2622,-5.0079,0.0,0.0,0.0,0.0,0.0,0.0,0.0,0.0,0.0,0.0,0.0,0.0,0.0,0.0,0.0,0.0,0.0,0.0,0.0,0.0,0.0,0.0,0.0,0.0,0.0,-6.1719,-6.1719,0.0,0.0,0.0,0.0,0.0,0.0,-6.1719,0.0,-6.1719,-6.168,-6.1562,-6.1432,-6.1292,-6.1087,-6.0896,-6.0781,0.0,0.0,0.0,0.0,0.0,0.0,0.0,0.0,0.0,0.0,0.0,-6.2805,-6.2805,-6.2805,-6.2805,-6.2805,-6.2219,0.0,-6.1171,-6.1441,-6.1698,-6.1459,0.0,0.0,0.0,-6.2381,-6.2381,-6.2381,-6.2381,0.0,-6.2381,-6.0953,-5.961,-5.8902,-5.7371,-5.5986,-5.528,-5.5179,-5.5179,-5.5179,-5.6346,-5.7094,-5.7094,-5.8351,-5.9099,-5.9099,-5.9099,-5.9099,-5.9099,-5.9099,-5.9099,-5.9099,-5.9099,-5.9428,-6.0111,-5.8373,-5.7283,-5.6956,-5.5945,-5.4567,-5.2929,-5.2929,-5.2929,-5.2929,-5.2929,-5.2929,-5.2929,-5.2929,-5.3256,-5.3758,-5.4361,-5.2305,-4.916,0.0,0.0,0.0,0.0,0.0,0.0,0.0,0.0,0.0,0.0,0.0,0.0,0.0,0.0,0.0,0.0,0.0,0.0,0.0,0.0,0.0,0.0,0.0,0.0,0.0,0.0,0.0,0.0,0.0,0.0,0.0,0.0,-6.1719,-6.1719,0.0,-6.1719,-6.168,-6.1559,-6.1426,-6.1292,-6.1098,-6.0896,-6.0781,-6.0781,0.0,0.0,0.0,0.0,0.0,0.0,0.0,0.0,-6.1263,-6.2108,-6.2805,-6.2805,-6.2805,-6.2755,-6.2705,-6.2076,-6.1286,-6.0458,-6.0303,0.0,-6.1155,-6.1873,-6.2381,-6.2381,0.0,-6.2381,-6.2381,-6.2381,-6.2381,-6.2381,-6.0332,-5.8812,-5.8812,-5.6735,-5.5179,-5.5179,-5.5179,-5.5179,-5.5179,-5.6286,-5.7034,-5.7094,-5.8291,-5.9039,-5.9099,-5.9099,-5.9099,-5.9099,-5.9099,-5.8991,-5.8882,-5.8991,-5.8785,-5.814,-5.6735,-5.5762,-5.534,-5.5287,-5.4299,-5.2929,-5.2929,-5.2929,-5.2929,-5.2929,-5.2929,-5.2929,-5.2929,-5.3231,-5.3708,-5.4169,-5.2134,-4.9093,0.0,0.0,0.0,0.0,0.0,0.0,0.0,0.0,0.0,0.0,0.0,0.0,0.0,0.0,0.0,0.0,0.0,0.0,0.0,0.0,0.0,0.0,0.0,0.0,0.0,-6.1719,0.0,0.0,0.0,0.0,0.0,0.0,0.0,-6.1719,0.0,-6.1719,-6.1678,-6.1538,-6.1407,-6.1292,-6.1098,-6.0896,-6.0781,-6.0781,-6.0781,0.0,0.0,0.0,0.0,0.0,0.0,0.0,-6.0603,-6.163,-6.2805,-6.2805,-6.2805,-6.2654,-6.2023,-6.1229,0.0,0.0,-5.977,-6.0306,-6.1138,-6.1873,-6.2381,-6.2381,-6.2381,-6.2381,-6.2381,-6.2381,-6.2381,-6.2381,-6.0332,-5.8812,-5.8812,-5.6735,-5.5179,-5.5179,-5.5179,-5.5179,-5.5179,-5.5897,-5.6585,-5.7064,-5.7872,-5.856,-5.9069,-5.9099,-5.9099,-5.9099,-5.9099,-5.8495,-5.7187,-5.8495,-5.8073,0.0,-5.6055,-5.5545,-5.476,-5.3849,-5.3316,-5.2929,-5.2929,-5.2929,-5.2929,-5.2929,-5.2929,-5.2929,-5.2929,-5.3005,-5.3067,-5.2379,-5.0522,-4.8319,0.0,0.0,0.0,0.0,0.0,0.0,0.0,0.0,0.0,0.0,0.0,0.0,0.0,0.0,0.0,0.0,0.0,0.0,0.0,0.0,0.0,0.0,-6.1322,-6.1523,-6.1601,-6.168,-6.1719,0.0,0.0,0.0,0.0,0.0,0.0,-6.1719,0.0,-6.1719,-6.1718,-6.1625,-6.1497,-6.1307,-6.1186,-6.1012,-6.0781,-6.0781,-6.0781,-6.0757,-6.0572,0.0,0.0,0.0,0.0,0.0,0.0,0.0,-6.2805,-6.2805,-6.2805,-6.2618,0.0,0.0,0.0,-5.8806,0.0,-6.0216,-6.0622,-6.1603,-6.2381,-6.2381,-6.2381,-6.2381,-6.2381,-6.2381,-6.2381,-6.2381,-6.0332,-5.8812,-5.8812,-5.6735,-5.5179,-5.5179,-5.5179,-5.5179,-5.5179,-5.5777,-5.6436,-5.7034,-5.7723,-5.8411,-5.9069,-5.9099,-5.9099,-5.9099,-5.9099,-5.8386,-5.6736,-5.7552,-5.668,-5.4051,-5.4646,-5.4538,-5.3752,-5.3164,-5.2929,-5.2929,-5.2929,-5.2929,-5.2929,-5.2929,-5.2929,-5.2929,-5.2929,-5.2929,-5.2754,-5.173,-5.0156,-4.8186,0.0,0.0,0.0,0.0,0.0,0.0,0.0,0.0,0.0,0.0,0.0,0.0,0.0,0.0,0.0,0.0,0.0,0.0,0.0,0.0,0.0,0.0,-6.1284,-6.1433,-6.1484,-6.1601,-6.168,0.0,0.0,0.0,0.0,0.0,0.0,-6.1719,0.0,-6.1719,-6.1719,-6.168,-6.1549,-6.1331,-6.1257,-6.1074,-6.0819,-6.0819,-6.0781,-6.0757,-6.0365,-5.9885,-5.9319,0.0,0.0,0.0,0.0,0.0,-6.2805,-6.2805,-6.2705,0.0,0.0,0.0,-5.9674,-5.828,-5.8998,0.0,-6.0114,-6.1298,-6.2381,-6.2381,-6.2381,-6.2381,-6.2381,-6.2381,-6.2381,-6.2381,-6.0332,-5.8812,-5.8812,-5.6735,-5.5179,-5.5179,-5.5179,-5.5179,-5.5179,-5.5688,-5.6316,-5.7034,-5.7633,-5.8291,-5.9069,-5.9099,-5.9099,-5.9099,-5.9099,-5.8166,-5.6366,-5.6593,-5.52,-5.2223,-5.2903,-5.3082,-5.2929,-5.2929,-5.2929,-5.2929,-5.2929,-5.2929,-5.2929,-5.2929,-5.2929,-5.2929,-5.2929,-5.2629,-5.2313,-5.1272,-4.956,-4.7597,0.0,0.0,0.0,0.0,0.0,0.0,0.0,0.0,0.0,0.0,0.0,0.0,0.0,0.0,0.0,0.0,0.0,0.0,0.0,0.0,0.0,0.0,-6.1053,-6.12,-6.1484,-6.1523,-6.1562,0.0,0.0,0.0,0.0,0.0,0.0,-6.1719,0.0,0.0,-6.168,-6.1562,-6.1521,-6.1451,-6.1173,-6.1012,-6.0935,-6.0819,-6.0781,-6.0781,-6.0734,-6.0132,-5.9389,-5.9319,-5.9793,0.0,0.0,0.0,-6.2805,-6.2805,-6.2324,0.0,0.0,0.0,-5.8209,0.0,-5.8998,-6.0114,0.0,0.0,-6.2381,0.0,-6.2381,-6.2381,-6.2381,-6.2381,-6.2381,-6.2381,-6.0332,-5.8812,-5.8812,-5.6735,-5.5179,-5.5179,-5.5179,-5.5179,-5.5179,-5.5269,-5.5807,-5.7004,-5.7184,-5.7782,-5.9039,-5.9099,-5.9099,-5.9099,-5.9099,-5.7693,-5.4741,-5.6022,-5.4505,-5.0077,-5.114,-5.2119,-5.2929,-5.2929,-5.2929,-5.2929,-5.2929,-5.2929,-5.2929,-5.2929,-5.2929,-5.2929,-5.2929,-5.1886,-5.0246,-4.9193,-4.7444,-4.5628,0.0,0.0,0.0,0.0,0.0,0.0,0.0,0.0,0.0,0.0,0.0,0.0,0.0,0.0,0.0,0.0,0.0,0.0,0.0,0.0,0.0,0.0,0.0,-6.1059,-6.1227,-6.1412,0.0,0.0,0.0,0.0,0.0,-6.1719,-6.1719,0.0,0.0,0.0,0.0,-6.164,-6.1562,-6.1484,-6.1346,-6.1229,-6.1151,-6.0973,-6.0896,-6.0873,-6.0546,-5.9977,-5.9354,-5.9103,-5.9329,-5.9832,-6.0272,0.0,0.0,0.0,-6.2219,0.0,-5.9988,-5.8841,-5.7881,0.0,-5.8998,-6.0114,-6.0114,-6.1298,-6.2381,-6.2381,-6.2381,-6.2381,-6.2381,-6.2381,-6.2381,-6.2381,-6.0332,-5.8812,-5.8812,-5.6735,-5.5179,-5.5179,-5.5179,-5.5179,-5.5179,-5.5179,-5.5718,-5.7004,-5.7094,-5.7693,-5.9039,-5.9099,-5.8743,-5.7804,-5.7804,-5.6251,-5.3066,-5.3763,-5.2738,-5.0067,-5.0896,-5.1699,-5.2477,-5.2779,-5.2929,-5.2929,-5.2929,-5.2929,-5.2792,-5.1747,-5.1303,-5.1163,-4.9985,-4.9081,-4.8186,-4.7093,-4.6103,-4.5179,0.0,0.0,0.0,0.0,0.0,0.0,0.0,0.0,0.0,0.0,0.0,0.0,0.0,0.0,0.0,0.0,0.0,0.0,0.0,0.0,0.0,0.0,0.0,0.0,-6.0973,-6.1238,0.0,0.0,0.0,0.0,-6.164,-6.168,-6.1719,0.0,-6.1719,0.0,0.0,0.0,0.0,0.0,-6.1523,-6.1439,-6.1346,-6.1098,-6.0988,-6.095,-6.0468,0.0,0.0,-5.9065,-5.9107,-5.9504,-6.0173,-6.0933,0.0,0.0,0.0,0.0,0.0,0.0,-5.7881,-5.7881,-5.8998,-6.0114,0.0,0.0,-6.2381,0.0,-6.2381,-6.2381,-6.2381,-6.2381,-6.2381,-6.2381,-6.0586,-5.917,-5.8812,-5.6991,-5.5551,-5.5179,-5.5179,-5.5179,-5.5179,-5.5179,-5.5658,-5.6765,-5.7004,-5.7603,-5.88,-5.9009,-5.8386,-5.6736,-5.6736,-5.5182,-5.1962,-5.1616,-5.1073,-5.0419,-5.0996,-5.1574,-5.2126,-5.2678,-5.2929,-5.2929,-5.2929,-5.2929,-5.2767,-5.0857,-4.9961,-4.9819,-4.7781,-4.6735,-4.6129,-4.5608,-4.5055,-4.455,0.0,0.0,0.0,0.0,0.0,0.0,0.0,0.0,0.0,0.0,0.0,0.0,0.0,0.0,0.0,0.0,0.0,0.0,0.0,0.0,0.0,0.0,0.0,0.0,0.0,0.0,0.0,0.0,0.0,0.0,-6.1523,-6.164,-6.1719,-6.1719,-6.1719,-6.1719,-6.1719,0.0,0.0,0.0,0.0,-6.1484,-6.1436,-6.111,0.0,-6.0973,-6.0796,0.0,0.0,0.0,-5.959,-5.9924,-6.0314,-6.0933,-6.1741,0.0,0.0,0.0,0.0,-5.7954,0.0,-5.7881,-5.8998,-6.0114,0.0,0.0,-6.2381,-6.2381,-6.2381,-6.2381,-6.2381,-6.2381,-6.2381,-6.2381,-6.1317,-6.0161,-5.8992,-5.7714,-5.6445,-5.5381,-5.5179,-5.5179,-5.5179,-5.5179,-5.5478,-5.6166,-5.6765,-5.7423,-5.8141,-5.877,-5.8386,-5.6736,-5.6736,-5.5182,-5.1962,-5.0563,-4.9996,-5.0419,-5.0996,-5.1574,-5.2126,-5.2678,-5.2929,-5.2929,-5.2929,-5.2929,-5.2767,-5.0857,-4.9961,-4.9819,-4.7781,-4.5849,-4.4352,-4.5167,-4.4112,-4.27,0.0,0.0,0.0,0.0,0.0,0.0,0.0,0.0,0.0,0.0,0.0,0.0,0.0,0.0,0.0,0.0,0.0,0.0,0.0,0.0,0.0,0.0,0.0,0.0,0.0,0.0,0.0,0.0,0.0,-6.1432,-6.1484,-6.1562,-6.1601,-6.1719,-6.1719,-6.1719,-6.1719,-6.1719,0.0,0.0,0.0,0.0,0.0,0.0,0.0,0.0,0.0,0.0,0.0,0.0,-5.929,-5.926,-6.013,-6.0603,-6.0896,-6.1187,-6.082,0.0,0.0,0.0,0.0,-5.7881,-5.866,-5.9539,-5.9979,-6.0926,-6.1839,-6.2279,-6.2381,-6.2381,-6.2381,-6.2381,-6.2381,-6.2381,-6.0787,-5.9258,-5.8902,-5.7086,-5.562,-5.528,-5.5179,-5.5179,-5.5179,-5.5179,-5.5478,-5.6137,-5.6735,-5.7393,-5.8082,-5.874,-5.7915,-5.5327,-5.5211,-5.367,-5.0563,-4.9822,-4.969,-4.9891,-5.0845,-5.1398,-5.1599,-5.2528,-5.2929,-5.2929,-5.2929,-5.2189,-5.0857,-4.8938,-4.7321,-4.5998,-4.4117,-4.279,-4.2296,-4.3178,-4.3042,-4.2539,0.0,0.0,0.0,0.0,0.0,0.0,0.0,0.0,0.0,0.0,0.0,0.0,0.0,0.0,0.0,0.0,0.0,0.0,0.0,0.0,0.0,0.0,0.0,0.0,0.0,0.0,0.0,0.0,0.0,0.0,0.0,-6.1398,-6.1511,-6.164,-6.164,-6.164,0.0,0.0,0.0,-6.1719,0.0,0.0,-6.1679,0.0,0.0,0.0,0.0,0.0,0.0,0.0,-6.0028,-6.0154,-6.0826,-6.1161,-6.1126,-6.0884,-6.058,0.0,-5.8703,0.0,0.0,0.0,-5.8457,-5.9201,-5.9945,-6.0723,-6.1501,-6.2245,-6.2381,-6.2381,-6.2381,-6.203,-6.1951,-6.2302,-6.067,-5.9258,-5.8812,-5.7086,-5.562,-5.528,-5.5179,-5.5179,-5.5179,-5.5179,-5.5359,-5.5807,-5.6436,0.0,-5.7752,-5.7951,-5.6647,-5.367,-5.3093,-5.1767,-4.959,-4.959,-4.959,-4.9615,-5.0544,-5.1096,-5.1322,-5.2226,-5.2316,-5.1886,-5.1886,-5.1163,-4.9819,-4.7781,-4.5849,-4.3945,-4.1907,-4.1172,-4.1269,-4.2109,-4.2422,-4.2539,0.0,0.0,0.0,0.0,0.0,0.0,0.0,0.0,0.0,0.0,0.0,0.0,0.0,0.0,0.0,0.0,0.0,0.0,0.0,0.0,0.0,0.0,0.0,0.0,0.0,0.0,0.0,0.0,0.0,0.0,0.0,0.0,-6.1448,-6.1562,-6.1562,-6.164,-6.1758,0.0,-6.1719,-6.1719,0.0,-6.1719,-6.168,0.0,0.0,0.0,-6.1112,-6.1512,0.0,-6.1583,0.0,-6.2573,-6.2438,-6.2595,-6.2618,-6.1824,-6.0997,0.0,0.0,0.0,0.0,0.0,0.0,0.0,-5.9911,0.0,-6.1467,-6.2212,-6.2381,-6.2381,-6.2381,-6.1399,-6.0953,-6.211,-6.1317,-6.0043,-5.8902,-5.7714,-5.6541,-5.5381,-5.5179,-5.5179,-5.5179,-5.5179,-5.5179,-5.5179,-5.5807,-5.6436,-5.7034,-5.6129,-5.4594,-5.2086,-5.0436,-4.959,-4.959,-4.959,-4.959,-4.9615,-5.0142,-5.072,-5.1297,-5.185,-5.1368,-4.9961,-4.9961,-4.9961,-4.9677,-4.7781,-4.5701,-4.3794,-4.1907,-4.1172,-4.1269,-4.2109,-4.2422,-4.2539,0.0,0.0,0.0,0.0,0.0,0.0,0.0,0.0,0.0,0.0,0.0,0.0,0.0,0.0,0.0,0.0,0.0,0.0,0.0,0.0,0.0,0.0,0.0,0.0,0.0,0.0,0.0,0.0,0.0,0.0,0.0,0.0,0.0,0.0,-6.3169,-6.3266,-6.3359,-6.2187,0.0,-6.1719,-6.1719,-6.1719,0.0,0.0,0.0,0.0,0.0,-6.2497,-6.3103,0.0,-6.2421,-6.2573,0.0,0.0,0.0,0.0,0.0,0.0,-5.9311,0.0,0.0,0.0,0.0,0.0,0.0,0.0,-6.0655,-6.1434,-6.2009,-6.211,-6.1235,-6.087,-6.0417,-5.987,-5.878,-5.79,-5.7527,-5.6445,-5.5551,-5.528,-5.5179,-5.5179,-5.5179,-5.5179,-5.5179,0.0,-5.5807,-5.5783,-5.4788,-5.3354,-5.2352,-5.1962,-5.0436,-4.959,-4.959,-4.959,-4.959,-4.9615,-5.0142,-5.072,-5.1297,-5.185,-5.1368,-4.9961,-4.9961,-4.8361,-4.5701,-4.5127,-4.3815,-4.1907,-4.1463,-4.1172,-4.1269,-4.2109,-4.2422,-4.2539,0.0,0.0,0.0,0.0,0.0,0.0,0.0,0.0,0.0,0.0,0.0,0.0,0.0,0.0,0.0,0.0,0.0,0.0,0.0,0.0,0.0,0.0,0.0,0.0,0.0,0.0,0.0,0.0,0.0,0.0,0.0,0.0,0.0,0.0,0.0,0.0,0.0,0.0,0.0,0.0,-6.2226,0.0,0.0,-6.2578,-6.2961,0.0,0.0,0.0,-6.3589,-6.3499,-6.3375,0.0,0.0,0.0,0.0,0.0,0.0,0.0,0.0,0.0,0.0,0.0,0.0,0.0,-5.9235,-5.981,-6.0419,-6.1535,-6.211,-6.203,-6.087,-6.0161,-5.9434,-5.8268,-5.6991,-5.6445,-5.6896,-5.6017,-5.5179,-5.5179,-5.5179,-5.5179,-5.5179,-5.5179,-5.5179,-5.5179,-5.5538,-5.507,-5.3326,-5.1927,-5.1189,-5.1016,-5.0078,-4.959,-4.959,-4.959,-4.959,-4.959,-4.9084,-4.9785,-5.1297,-5.0035,-4.9131,-4.865,-4.7904,-4.5701,-4.2922,-4.2922,-4.2196,-4.1172,-4.1172,-4.1289,-4.1523,-4.2187,-4.2539,-4.2793,0.0,0.0,0.0,0.0,0.0,0.0,0.0,0.0,0.0,0.0,0.0,0.0,0.0,0.0,0.0,0.0,0.0,0.0,0.0,0.0,0.0,0.0,0.0,0.0,0.0,0.0,0.0,0.0,0.0,0.0,0.0,0.0,0.0,0.0,0.0,0.0,0.0,0.0,0.0,-6.3242,-6.3164,-6.3125,0.0,0.0,-6.4301,-6.4232,-6.404,-6.394,-6.3998,-6.4551,-6.4619,0.0,0.0,0.0,0.0,0.0,-6.1715,0.0,0.0,0.0,0.0,0.0,-5.7881,0.0,-5.9573,-5.9979,-6.0486,-6.1839,-6.2279,-6.203,-6.067,-5.9522,-5.836,-5.6991,-5.5918,-5.5551,-5.6638,-5.5918,-5.5179,-5.5179,-5.5179,-5.5179,-5.5179,-5.5179,-5.5179,-5.5179,-5.4845,-5.3936,-5.2168,-5.1296,-5.0369,-4.949,-4.9565,-4.959,-4.959,-4.959,-4.959,-4.959,-4.7641,-4.8197,-5.0846,-4.7284,-4.5966,-4.6588,-4.4827,-4.2922,-4.1172,-4.1172,-4.1172,-4.1172,-4.1172,-4.1426,-4.1855,-4.2266,-4.2695,-4.3144,0.0,0.0,0.0,0.0,0.0,0.0,0.0,0.0,0.0,0.0,0.0,0.0,0.0,0.0,0.0,0.0,0.0,0.0,0.0,0.0,0.0,0.0,0.0,0.0,0.0,0.0,0.0,0.0,0.0,0.0,0.0,0.0,0.0,0.0,0.0,0.0,0.0,0.0,0.0,-6.4805,-6.4258,0.0,-6.4062,-6.4258,-6.4725,-6.5282,-6.5061,-6.538,-6.5846,-6.5667,-6.536,-6.4866,0.0,0.0,0.0,-6.2953,0.0,0.0,0.0,0.0,0.0,0.0,0.0,0.0,-5.8254,-5.9235,-6.0182,-6.0486,-6.1535,-6.1756,-5.9522,-5.8992,-5.8085,-5.5918,-5.5381,-5.528,-5.5551,-5.5381,-5.5179,-5.5179,-5.5179,-5.5179,-5.5179,-5.5179,-5.5179,-5.5179,-5.2934,-5.1128,-4.9924,-4.9057,-4.8685,-4.8912,-4.9364,-4.959,-4.959,-4.959,-4.959,-4.959,-4.7641,-4.7504,-4.8803,-4.6561,-4.5244,-4.4677,-4.4247,-4.2922,-4.1172,-4.1172,-4.1172,-4.1172,-4.1172,-4.1426,-4.1855,-4.2266,-4.2695,-4.3144,0.0,0.0,0.0,0.0,0.0,0.0,0.0,0.0,0.0,0.0,0.0,0.0,0.0,0.0,0.0,0.0,0.0,0.0,0.0,0.0,0.0,0.0,0.0,0.0,0.0,0.0,0.0,0.0,0.0,0.0,0.0,0.0,0.0,0.0,0.0,0.0,0.0,0.0,-6.5546,-6.5633,-6.5059,0.0,-6.5,-6.543,-6.5859,-6.6207,-6.6033,-6.608,-6.6128,-6.5474,-6.5158,0.0,0.0,-6.4019,-6.3498,0.0,-6.2219,-6.14,0.0,0.0,0.0,-5.8137,0.0,0.0,0.0,-5.9302,-6.0216,-6.0622,-6.1603,-6.1676,-5.9258,-5.8812,-5.7993,-5.5551,-5.5179,-5.5179,-5.5179,-5.5179,-5.5179,-5.5179,-5.5179,-5.5179,-5.5179,-5.5179,-5.4845,-5.4171,-5.1291,-4.9522,-4.9323,-4.8416,-4.8184,-4.8761,-4.9314,-4.959,-4.959,-4.959,-4.9177,-4.8191,-4.6264,-4.5849,-4.6473,-4.3911,-4.311,-4.376,-4.2973,-4.2042,-4.1172,-4.1172,-4.1172,-4.1172,-4.1172,-4.1562,-4.2129,-4.2344,-4.2832,-4.3418,0.0,0.0,0.0,0.0,0.0,0.0,0.0,0.0,0.0,0.0,0.0,0.0,0.0,0.0,0.0,0.0,0.0,0.0,0.0,0.0,0.0,0.0,0.0,-6.4971,0.0,0.0,0.0,0.0,0.0,0.0,0.0,0.0,0.0,0.0,0.0,0.0,0.0,0.0,0.0,-6.6112,0.0,-6.5612,-6.5859,-6.6601,-6.6914,-6.6873,-6.6654,-6.6397,-6.6013,-6.5166,-6.5022,-6.5161,-6.4661,-6.4178,0.0,0.0,0.0,0.0,0.0,0.0,0.0,0.0,0.0,-5.8084,0.0,0.0,0.0,-6.1129,-6.1873,-6.1756,-5.9522,0.0,0.0,-5.5584,0.0,0.0,0.0,-5.5029,0.0,-5.5179,-5.5179,-5.5179,-5.5179,-5.4976,-5.4171,-5.2615,-5.0099,-4.8626,-4.8721,-4.8141,-4.8033,-4.8586,-4.9138,-4.9336,-4.9023,-4.9047,-4.806,-4.6264,-4.4368,-4.3808,-4.4295,-4.1264,-4.0983,-4.287,-4.1728,-4.1172,-4.1172,-4.1172,-4.1172,-4.1172,-4.1172,-4.168,-4.2422,-4.2422,-4.2969,-4.3711,-6.1619,-6.2146,0.0,0.0,0.0,0.0,0.0,0.0,0.0,0.0,0.0,0.0,0.0,0.0,0.0,0.0,0.0,0.0,-6.3637,0.0,0.0,0.0,0.0,0.0,-6.4481,0.0,0.0,0.0,0.0,0.0,0.0,0.0,0.0,0.0,-6.5897,0.0,0.0,0.0,-6.609,0.0,-6.6298,-6.6361,0.0,-6.6797,-6.6914,-6.6873,-6.6537,-6.6397,-6.6307,0.0,-6.5795,-6.5717,0.0,-6.4696,-6.4178,-6.3637,0.0,0.0,0.0,0.0,0.0,0.0,-5.8458,0.0,-5.8829,0.0,-6.0317,-6.1129,0.0,0.0,0.0,0.0,0.0,0.0,0.0,0.0,-5.3563,-5.4431,-5.5179,-5.5179,-5.5179,-5.5179,-5.5179,-5.3964,-5.2615,-5.1044,-4.9395,-4.8003,-4.6737,-4.7025,-4.7456,-4.7983,-4.856,-4.8268,-4.7088,-4.7088,-4.6264,-4.4368,-4.257,-4.1862,-4.2327,-4.0692,-4.0269,-4.0833,-4.1131,-4.1172,-4.1172,-4.1172,-4.1172,-4.1172,-4.1172,-4.168,-4.2422,-4.2422,-4.2969,-4.3711,-6.2164,-6.256,0.0,0.0,0.0,0.0,0.0,0.0,0.0,0.0,0.0,0.0,0.0,0.0,0.0,0.0,0.0,-6.2904,0.0,0.0,0.0,0.0,0.0,0.0,0.0,0.0,0.0,0.0,-6.5321,0.0,0.0,0.0,0.0,0.0,-6.5897,0.0,-6.5897,0.0,-6.5974,0.0,0.0,0.0,0.0,-6.6791,-6.6914,-6.6873,-6.6537,-6.6397,-6.6346,0.0,-6.5897,0.0,0.0,0.0,0.0,-6.3363,0.0,0.0,0.0,0.0,0.0,0.0,0.0,0.0,-5.9078,0.0,-6.0892,0.0,0.0,0.0,0.0,0.0,0.0,0.0,-5.5621,0.0,0.0,0.0,-5.5179,-5.5179,0.0,0.0,-5.3964,-5.2509,-5.1044,-4.9508,-4.8094,-4.6968,-4.6301,-4.6828,-4.738,-4.7883,-4.846,-4.8194,-4.6798,-4.6798,-4.5298,-4.2452,-4.1749,-4.0882,-3.9976,-3.9998,-4.0,-4.0195,-4.0879,-4.1172,-4.1172,-4.1172,-4.1172,-4.1172,-4.1172,-4.168,-4.2422,-4.2422,-4.2969,-4.3711,0.0,0.0,0.0,0.0,0.0,0.0,0.0,0.0,0.0,0.0,0.0,0.0,-6.2805,-6.2805,0.0,0.0,-6.2805,-6.2805,0.0,0.0,-6.3062,0.0,0.0,0.0,0.0,0.0,0.0,0.0,0.0,0.0,0.0,0.0,0.0,0.0,0.0,-6.609,-6.5897,0.0,-6.5936,-6.6063,-6.6283,-6.6478,-6.6564,-6.6828,-6.6914,-6.6873,-6.6564,-6.6422,-6.6346,-6.6051,-6.5936,0.0,-6.5041,0.0,-6.4255,0.0,0.0,0.0,-6.2076,0.0,0.0,0.0,0.0,0.0,0.0,0.0,0.0,0.0,0.0,0.0,0.0,0.0,0.0,0.0,0.0,-5.5059,0.0,-5.497,-5.5179,0.0,0.0,0.0,0.0,-5.1618,-5.0045,-4.8647,-4.7087,-4.6301,-4.6301,-4.6165,-4.6439,-4.7107,-4.7121,-4.6573,-4.5298,-4.5298,-4.3658,-4.0514,-4.0514,-3.9818,-3.8613,-3.9492,-3.9902,-3.9941,-4.0801,-4.1172,-4.1172,-4.1172,-4.1172,-4.1172,-4.1172,-4.168,-4.2422,-4.2422,-4.2969,-4.3711,-6.2768,-6.3224,0.0,0.0,0.0,0.0,0.0,0.0,0.0,0.0,0.0,0.0,0.0,0.0,0.0,0.0,0.0,-6.2805,-6.2805,0.0,-6.3686,0.0,0.0,-6.4912,0.0,0.0,0.0,0.0,0.0,0.0,0.0,0.0,0.0,0.0,-6.7051,-6.6628,-6.5897,-6.5897,-6.609,-6.6384,-6.6409,-6.6601,-6.6875,0.0,-6.6914,-6.6875,-6.6679,0.0,0.0,-6.6167,-6.6013,0.0,0.0,0.0,0.0,0.0,0.0,0.0,0.0,0.0,0.0,-6.1441,0.0,0.0,0.0,0.0,-6.1501,0.0,0.0,0.0,0.0,0.0,0.0,0.0,0.0,0.0,0.0,0.0,-5.5179,-5.5179,0.0,0.0,0.0,-5.1618,-5.0045,-4.8647,-4.7087,-4.6301,-4.6301,-4.4767,-4.423,-4.5253,-4.3716,-4.2298,-4.1467,-4.1467,-4.0514,-3.872,-3.872,-3.872,-3.8613,-3.9492,-3.9902,-3.9941,-4.0801,-4.1172,-4.1172,-4.1172,-4.1172,-4.1172,-4.1172,-4.168,-4.2422,-4.2422,-4.2969,-4.3711,0.0,0.0,0.0,0.0,0.0,0.0,0.0,-6.4746,0.0,0.0,0.0,0.0,0.0,-6.4457,-6.4457,0.0,0.0,-6.4457,-6.4457,-6.4751,0.0,0.0,0.0,-6.5191,0.0,0.0,0.0,0.0,0.0,0.0,0.0,0.0,0.0,0.0,0.0,-6.7475,0.0,0.0,0.0,0.0,0.0,-6.6595,-6.6914,0.0,-6.6914,-6.6875,-6.668,-6.6518,0.0,-6.6159,-6.6013,-6.5833,-6.5475,-6.4938,-6.4332,-6.3937,-6.3363,0.0,0.0,0.0,-6.3238,-6.3163,0.0,0.0,0.0,0.0,0.0,0.0,0.0,0.0,0.0,0.0,0.0,0.0,0.0,0.0,0.0,0.0,-5.5179,-5.5179,0.0,0.0,0.0,0.0,-4.8621,-4.7205,-4.6541,-4.5793,-4.462,-4.3979,-4.3537,-4.3059,-4.2722,-4.2009,-4.0885,-4.1179,-4.0371,-3.8574,-3.8574,-3.8574,-3.8613,-3.9492,-3.9902,-3.9941,-4.0801,-4.1172,-4.1172,-4.1172,-4.1172,-4.1172,-4.1172,-4.168,-4.2422,-4.2422,-4.2969,-4.3711,-6.453,0.0,0.0,0.0,0.0,0.0,0.0,0.0,0.0,0.0,-6.5301,0.0,-6.5301,0.0,-6.5301,0.0,-6.5301,-6.5301,-6.5301,-6.5595,0.0,-6.5301,-6.5852,0.0,0.0,0.0,0.0,0.0,0.0,-6.7358,0.0,0.0,0.0,0.0,0.0,-6.8398,-6.7552,-6.7244,-6.6821,0.0,0.0,-6.6627,0.0,0.0,-6.6914,-6.6875,0.0,-6.6556,-6.6373,-6.6229,-6.6051,-6.5833,-6.5475,-6.4938,-6.4407,-6.4312,-6.3808,-6.3466,-6.431,-6.453,0.0,-6.4432,-6.4107,0.0,-6.31,0.0,0.0,0.0,0.0,0.0,0.0,0.0,0.0,0.0,0.0,0.0,0.0,-5.4743,0.0,0.0,-5.3623,-5.2402,0.0,-4.9395,-4.786,-4.6421,-4.5671,-4.489,-4.3731,-4.258,-4.164,-4.0979,-4.0791,-4.0446,-3.9695,-4.0146,-3.9818,-3.8574,-3.8574,-3.8574,-3.8613,-3.9492,-3.9902,-3.9941,-4.0801,-4.1172,-4.1172,-4.1172,-4.1172,-4.1172,-4.1172,-4.168,-4.2422,-4.2422,-4.2969,-4.3711,0.0,0.0,0.0,0.0,-6.6035,0.0,0.0,0.0,-6.5411,0.0,-6.5411,-6.5411,-6.5411,-6.5411,-6.5411,-6.5411,-6.5411,-6.5411,-6.5411,-6.6145,0.0,0.0,-6.688,-6.732,-6.6586,0.0,0.0,0.0,0.0,0.0,0.0,0.0,0.0,0.0,-6.9744,0.0,-6.8398,-6.759,-6.7308,-6.7422,-6.6943,-6.6822,-6.6953,-6.6953,-6.6953,-6.6914,-6.6914,-6.6673,-6.6411,-6.6405,-6.6167,-6.5897,-6.5936,-6.5276,-6.4634,-6.5426,-6.4979,-6.4361,-6.5154,-6.5375,-6.5364,-6.5265,0.0,0.0,0.0,0.0,-6.2381,0.0,0.0,0.0,0.0,0.0,0.0,0.0,0.0,0.0,0.0,0.0,-5.3069,0.0,-5.2963,-5.2295,-5.0713,-4.9308,-4.7743,-4.6421,-4.4645,-4.3606,0.0,-4.0386,-3.8807,-3.8958,-3.7848,-3.748,-3.7891,-3.834,-3.8574,-3.8574,-3.8574,-3.8574,-3.8613,-3.9473,-3.9883,-3.9941,-4.0781,-4.1152,-4.1172,-4.1172,-4.1172,-4.1172,-4.1172,-4.168,-4.2441,-4.248,-4.3008,-4.3711,-6.6182,-6.6659,-6.7116,0.0,-6.6773,-6.6537,0.0,0.0,0.0,0.0,-6.7063,-6.7063,-6.7063,-6.7063,-6.7063,-6.7063,-6.7063,0.0,0.0,0.0,0.0,-6.71,-6.7467,-6.7577,-6.7393,-6.7577,0.0,-6.7687,0.0,0.0,-6.875,0.0,0.0,0.0,0.0,-7.0129,-6.936,-6.9129,-6.877,-6.8308,-6.8302,-6.8039,-6.7656,0.0,-6.7461,-6.6914,-6.6914,-6.6673,-6.6411,-6.6405,-6.6167,-6.6013,-6.659,-6.6404,-6.5973,-6.6371,-6.6031,-6.5652,-6.6081,-6.6182,-6.6313,-6.6884,-6.5826,-6.4685,0.0,0.0,0.0,0.0,0.0,0.0,0.0,0.0,0.0,0.0,0.0,0.0,0.0,0.0,0.0,-5.3069,-5.1943,-5.0713,-4.9194,-4.7743,-4.6755,-4.6301,-4.4645,-4.3208,-4.1947,0.0,-3.8017,-3.6833,-3.7173,-3.7344,-3.7461,-3.8203,-3.8574,-3.8574,-3.8574,-3.8574,-3.8594,-3.9141,-3.957,-3.9922,-4.0449,-4.0879,-4.1172,-4.1172,-4.1172,-4.1172,-4.1172,-4.168,-4.25,-4.3144,-4.3516,-4.3711,-6.7026,0.0,0.0,-6.7687,0.0,0.0,-6.7614,-6.7687,0.0,-6.7687,-6.7687,0.0,-6.7687,-6.7687,-6.7687,-6.7687,-6.7687,0.0,-6.7687,0.0,0.0,-6.7687,-6.7687,-6.7687,-6.7687,-6.7687,0.0,-6.7687,0.0,0.0,-6.8847,0.0,0.0,0.0,0.0,-7.0667,-7.0206,-6.986,-6.9283,-6.8642,-6.8798,-6.8717,0.0,-6.8672,-6.8476,-6.8047,-6.8008,-6.7526,-6.6903,-6.6923,-6.6974,-6.7051,-6.7513,-6.7343,-6.6978,-6.7241,-6.7021,-6.6705,-6.6979,-6.7026,-6.7136,-6.7577,-6.6332,-6.4999,-6.4999,-6.3612,-6.2381,0.0,0.0,0.0,0.0,0.0,0.0,0.0,0.0,0.0,0.0,0.0,0.0,0.0,-5.0602,-4.9194,-4.7652,-4.6755,-4.5914,-4.5281,-4.3606,-4.182,-4.0148,0.0,-3.7059,-3.6016,-3.668,-3.7109,-3.7305,-3.7949,-3.8379,-3.8574,-3.8574,-3.8574,-3.8594,-3.9004,-3.9453,-3.9922,-4.0332,-4.0781,-4.1172,-4.1172,-4.1172,-4.1211,-4.1582,-4.1356,-4.1009,-4.1839,-4.2844,-4.3361,-6.7687,0.0,0.0,0.0,0.0,0.0,0.0,-6.7687,0.0,-6.7687,0.0,-6.7687,-6.7687,-6.7687,-6.7687,-6.7687,0.0,-6.7687,-6.7687,-6.7687,-6.7687,-6.7687,-6.7687,-6.7687,-6.7687,-6.7687,-6.7687,0.0,0.0,-6.8259,-6.9106,0.0,0.0,0.0,0.0,0.0,0.0,-7.0167,-6.9513,-6.8975,-6.9167,-6.9278,-6.9397,-6.9569,-6.9609,-6.9492,-6.9414,-6.8697,-6.7767,-6.7764,-6.8064,-6.8436,-6.8552,-6.8254,-6.7921,-6.8111,-6.7889,-6.757,-6.7642,-6.7687,-6.7687,-6.7687,-6.6332,-6.4999,-6.4999,-6.3612,-6.2381,-6.2381,-6.2381,-6.2381,0.0,0.0,0.0,0.0,0.0,0.0,0.0,0.0,0.0,0.0,0.0,0.0,-4.6421,-4.6059,-4.5281,-4.3855,-4.1947,-4.0148,-3.8729,0.0,-3.6016,-3.6016,-3.6445,-3.6875,-3.7285,-3.7715,-3.8144,-3.8574,-3.8574,-3.8574,-3.8594,-3.8945,-3.9414,-3.9922,-3.9969,-4.0395,-4.1172,-4.0841,-4.0841,-4.0762,-4.1273,-4.0247,-3.8665,-3.9112,-4.0764,-4.2159,-6.7687,0.0,0.0,0.0,0.0,-6.7687,-6.7687,-6.7687,-6.7687,-6.7687,-6.7687,-6.7687,-6.7687,-6.7687,-6.7687,-6.7687,-6.7687,0.0,0.0,0.0,0.0,-6.7687,-6.7687,-6.7687,-6.7687,-6.7687,-6.7687,-6.7687,-6.8148,-6.821,-6.8033,0.0,0.0,0.0,0.0,0.0,-7.0898,-7.0744,0.0,-7.0744,-7.0964,-7.0747,-7.0289,-7.042,-7.0039,-6.9414,-6.9414,-6.9087,-6.8676,-6.869,-6.8564,-6.8552,-6.9244,-6.9382,-6.9327,-6.9134,-6.9005,-6.8784,-6.7945,-6.7687,-6.7687,-6.7687,-6.6332,-6.4999,-6.4999,-6.3612,-6.2381,-6.2381,-6.2381,-6.2381,-6.2381,0.0,0.0,0.0,0.0,0.0,0.0,0.0,0.0,0.0,0.0,-4.786,-4.6421,-4.5013,-4.3979,-4.3731,-4.0795,-3.8861,-3.8597,0.0,-3.6016,0.0,-3.6445,0.0,0.0,0.0,-3.8144,-3.8574,-3.8574,-3.8574,-3.8574,-3.8652,-3.9121,-3.9751,-3.8061,-3.8836,-4.1016,-3.9216,-3.8548,-3.8304,-3.7257,-3.6558,-3.6142,-3.502,-3.5967,-3.7861,0.0,0.0,0.0,0.0,0.0,0.0,0.0,-6.7687,0.0,-6.7687,-6.7687,-6.7687,-6.7687,-6.7687,-6.7687,-6.7687,-6.7687,-6.7687,-6.7687,-6.7687,-6.7687,-6.7687,-6.7687,-6.7687,-6.7687,-6.7687,-6.7687,-6.7687,-6.7982,-6.8097,0.0,0.0,0.0,-6.9738,0.0,-7.0898,0.0,0.0,0.0,-7.1222,-7.1424,-7.1379,-7.1133,-7.1299,-7.1094,-7.0742,-7.0742,-7.0531,-7.0168,-6.9755,-6.964,-6.9783,-7.0206,-7.0321,-7.0182,-6.9512,-6.9313,-6.9064,-6.7982,-6.7687,-6.7687,-6.7687,-6.67,-6.5617,-6.5131,-6.4042,-6.2931,-6.2537,-6.2381,-6.2223,-6.1595,-5.9989,0.0,0.0,0.0,0.0,0.0,0.0,-5.2402,0.0,0.0,0.0,0.0,0.0,0.0,0.0,0.0,-3.8221,-3.7307,0.0,-3.6016,0.0,0.0,0.0,-3.7285,0.0,0.0,-3.8574,-3.8574,-3.8117,-3.7032,-3.7032,-3.6886,-3.6569,-3.5469,-3.6062,-3.7737,-3.6602,-3.6281,-3.619,-3.5775,-3.5054,-3.397,-3.3475,-3.4082,-3.494,0.0,-6.7687,0.0,0.0,-6.7687,0.0,-6.7687,-6.7687,-6.7687,-6.7687,-6.7687,-6.7687,-6.7687,-6.7687,-6.7687,-6.7687,-6.7687,-6.7687,-6.7687,-6.7687,-6.7687,-6.7687,-6.7687,-6.7687,-6.7687,-6.7687,-6.7687,-6.7687,-6.7687,-6.7856,0.0,0.0,0.0,0.0,0.0,0.0,0.0,0.0,-7.1052,-7.1287,-7.143,-7.162,-7.1765,-7.1948,-7.1992,-7.1992,-7.1992,-7.1786,-7.1388,-7.0706,-7.0667,-7.0898,-7.0898,-7.0898,-7.0681,-6.9626,-6.9313,-6.9064,-6.7982,-6.7687,-6.7687,-6.7687,-6.7024,-6.6186,-6.549,-6.4495,-6.3535,-6.2779,-6.2537,-6.203,-6.087,-5.961,0.0,0.0,0.0,0.0,0.0,0.0,0.0,0.0,0.0,0.0,-4.6421,0.0,0.0,0.0,0.0,-3.7441,-3.6016,-3.6016,-3.6016,0.0,0.0,-3.6426,-3.7285,0.0,-3.7124,-3.7951,-3.7511,-3.6442,-3.49,-3.49,-3.4416,-3.3578,-3.3106,-3.3354,-3.4002,-3.4002,-3.4002,-3.4083,-3.4279,-3.3214,-3.1626,-3.2456,-3.269,-3.2351,0.0,0.0,0.0,0.0,0.0,0.0,-6.7687,-6.7687,-6.7687,-6.7687,-6.7687,-6.7687,-6.7687,-6.7687,-6.7687,-6.7687,-6.7687,-6.7687,-6.7687,-6.7687,-6.7687,-6.7687,-6.7687,-6.7687,-6.7687,-6.7687,-6.7687,0.0,-6.7687,-6.7373,0.0,0.0,0.0,0.0,0.0,0.0,0.0,-7.0898,-7.1129,-7.1479,-7.1469,-7.1672,-7.1984,-7.1991,-7.1992,-7.1992,-7.1992,-7.1786,-7.1505,-7.14,-7.1168,-7.0898,-7.0898,-7.0898,-7.0681,-6.9626,-6.9313,-6.9064,-6.7982,-6.7687,-6.7687,-6.7687,-6.7024,-6.6404,-6.6247,-6.4937,-6.3647,-6.3574,-6.2931,-6.203,-6.087,-5.961,-5.8451,0.0,0.0,0.0,0.0,0.0,-5.0823,-5.0713,0.0,0.0,-4.6301,-4.3232,0.0,0.0,-3.8088,-3.6152,-3.6016,-3.6016,-3.6016,-3.6016,-3.6016,-3.6426,-3.7285,-3.5364,-3.4867,-3.5812,-3.4001,-3.2961,-3.2809,-3.2809,-3.3039,-3.3421,-3.1523,-3.0956,-3.1722,-3.1722,-3.1722,-3.1632,-3.0139,-2.9539,-2.9447,-3.0042,-3.0272,-3.0258,0.0,0.0,0.0,0.0,0.0,0.0,0.0,-6.7687,-6.7687,-6.7687,-6.7687,-6.7687,-6.7687,-6.7687,-6.7687,-6.7687,-6.7687,-6.7687,-6.7687,-6.7687,-6.7687,-6.7687,-6.7687,-6.7687,-6.7687,-6.7687,-6.7687,0.0,0.0,0.0,0.0,0.0,0.0,0.0,0.0,-7.0681,-7.0898,-7.0898,-7.1129,-7.1518,-7.1508,-7.1698,-7.1992,-7.1992,-7.1992,-7.1989,-7.1848,-7.1684,-7.1466,-7.1362,-7.1129,-7.0898,-7.0898,-7.0681,-7.0266,-6.9511,-6.9064,-6.866,-6.7878,-6.7687,-6.7687,-6.7687,-6.7433,-6.7024,-6.6523,-6.5361,-6.4357,-6.3791,-6.2973,-6.1837,-5.9903,-5.917,-5.8177,0.0,0.0,0.0,0.0,0.0,0.0,-5.0713,0.0,-4.6301,-4.6301,-4.3232,0.0,0.0,0.0,-3.6016,-3.6016,-3.6016,-3.6016,-3.6016,0.0,-3.6426,-3.7285,-3.5222,-3.4576,-3.5497,-3.3398,-3.1896,-3.0669,-3.0669,-3.0263,-2.9822,-2.925,-2.9215,-2.9453,-2.9453,-2.9453,-2.9495,-2.8947,-2.8885,-2.9085,-2.9499,-2.9766,-2.9913,-6.7687,0.0,-6.7687,0.0,-6.7687,-6.7687,-6.7687,-6.7687,-6.7687,-6.7687,-6.7687,-6.7687,-6.7687,-6.7687,-6.7687,-6.7687,-6.7687,-6.7687,-6.7687,-6.7687,-6.7687,-6.7687,-6.7687,0.0,-6.7687,-6.7687,-6.7687,-6.7687,-6.7687,0.0,0.0,0.0,0.0,0.0,-7.0266,-7.0748,-7.0898,-7.0898,-7.1129,-7.1518,-7.1508,-7.1698,-7.1992,-7.1992,-7.1992,-7.1984,-7.1763,-7.1611,-7.1474,-7.1274,-7.1052,-7.0898,-7.0898,-7.0524,-6.9988,-6.9472,-6.8891,-6.8368,-6.7863,-6.7687,-6.7687,-6.7687,-6.7687,-6.7542,-6.691,-6.5904,-6.4665,-6.3574,-6.2855,-6.1676,-5.9258,-5.8812,-5.7993,-5.5551,0.0,0.0,0.0,-5.2615,0.0,-5.0713,-4.8068,-4.6301,-4.6301,-4.3232,0.0,0.0,0.0,-3.6016,-3.6016,-3.6016,-3.5743,0.0,0.0,0.0,-3.6398,-3.4342,-3.3828,-3.4601,-3.2032,-2.9913,-2.853,-2.8718,-2.8283,-2.7295,-2.7883,-2.8136,-2.8136,-2.8136,-2.8136,-2.8177,-2.8484,-2.8778,-2.9072,-2.9379,-2.9673,-2.9913,-6.7687,-6.7687,-6.7687,-6.7687,-6.7687,-6.7687,-6.7687,-6.7687,-6.7687,-6.7687,-6.7687,-6.7687,-6.7687,-6.7687,-6.7687,-6.7687,-6.7687,-6.7687,-6.7687,-6.7687,-6.7687,0.0,0.0,-6.7687,-6.7687,-6.7687,-6.7687,-6.7687,0.0,0.0,-6.6512,0.0,-6.8009,-6.9313,-6.9847,-7.0394,-7.0898,-7.0898,-7.1129,-7.1518,-7.1508,-7.1698,-7.1992,-7.1992,-7.1992,-7.1984,-7.1763,-7.1618,-7.1464,-7.1272,-7.1052,-7.0898,-7.0898,-7.0524,-6.9988,-6.9472,-6.8891,-6.8368,-6.7863,-6.7687,-6.7687,-6.7687,-6.7687,-6.7687,-6.7687,-6.6271,-6.446,-6.2779,-6.2381,-6.1676,-5.9258,-5.8812,-5.7993,-5.5551,0.0,0.0,0.0,-5.2615,0.0,-5.0713,-4.8068,-4.6301,-4.6301,-4.3232,0.0,0.0,0.0,0.0,0.0,0.0,0.0,-3.3309,-3.5021,0.0,-3.4486,-3.2278,-3.1614,-3.2505,-2.8374,-2.6386,-2.6413,-2.6987,-2.7255,-2.7295,-2.7883,-2.8136,-2.8136,-2.8136,-2.8136,-2.8177,-2.8484,-2.8778,-2.9072,-2.9379,-2.9673,-2.9913,-6.7687,-6.7687,-6.7687,-6.7687,-6.7687,-6.7687,-6.7687,-6.7687,-6.7687,-6.7687,-6.7687,-6.7687,-6.7687,-6.7687,-6.7687,0.0,-6.7687,-6.7687,0.0,-6.7687,-6.7687,-6.7687,-6.7687,-6.7687,-6.7687,-6.7687,-6.7687,-6.7687,0.0,0.0,0.0,-6.824,-6.8884,-6.9353,-7.0266,-7.0748,-7.0898,-7.0898,-7.1129,-7.1518,-7.1508,-7.1698,-7.1992,-7.1992,-7.1992,-7.1949,-7.1679,-7.1562,-7.1464,-7.1091,-7.0937,-7.0898,-7.0898,-7.0298,-6.9511,-6.9353,-6.866,-6.793,-6.7741,-6.7687,-6.7687,-6.7687,-6.7687,-6.7687,-6.7687,-6.6271,-6.446,-6.2779,-6.2381,-6.1676,-5.9258,-5.8812,-5.7993,-5.5551,-5.5179,0.0,-5.5179,0.0,-5.0713,-5.0713,-4.8068,-4.6301,-4.6301,-4.3232,0.0,0.0,0.0,0.0,0.0,0.0,0.0,0.0,-3.3743,0.0,-3.2407,-3.0383,-2.9698,-3.0361,-2.7619,-2.6386,-2.6413,-2.7001,-2.7268,-2.7295,-2.7883,-2.8136,-2.8136,-2.8136,-2.8136,-2.815,-2.8257,-2.8604,-2.9045,-2.9152,-2.9499,-2.9913,-6.7687,-6.7687,-6.7687,-6.7687,-6.7687,-6.7687,-6.7687,-6.7687,-6.7687,-6.7687,-6.7687,-6.7687,-6.7687,-6.7687,0.0,-6.7687,-6.7687,-6.7687,-6.7687,-6.7687,-6.7687,-6.7687,-6.7687,-6.7687,-6.7687,-6.7687,0.0,-6.7687,-6.7687,-6.7687,-6.7741,-6.8795,-6.9313,-6.9353,-7.0432,-7.0898,-7.0898,-7.0898,-7.1129,-7.1518,-7.1508,-7.1698,-7.1992,-7.1992,-7.1967,-7.1866,-7.1589,-7.1436,-7.1321,-7.1014,-7.0898,-7.0871,-7.0652,-6.9992,-6.9313,-6.9313,-6.8558,-6.7687,-6.7687,-6.7687,-6.7687,-6.7687,-6.7687,-6.7542,-6.6874,-6.5554,-6.4078,-6.2736,-6.2381,-6.1676,-5.9258,-5.8812,-5.7993,-5.5551,-5.5179,-5.5179,-5.5179,0.0,-5.0713,0.0,0.0,0.0,0.0,-4.2832,-4.0924,0.0,0.0,0.0,0.0,0.0,0.0,-3.2158,-3.2874,0.0,-3.0367,-2.9061,-2.8806,-2.9449,-2.7305,-2.6386,-2.64,-2.6881,-2.7161,-2.7295,-2.7762,-2.8043,-2.8136,-2.8136,-2.8136,-2.8136,-2.8136,-2.8511,-2.9045,-2.9045,-2.9406,-2.9913,-6.7687,-6.7687,-6.7687,0.0,-6.7687,0.0,-6.7687,-6.7687,-6.7687,-6.7687,-6.7687,-6.7687,-6.7687,-6.7687,-6.7687,-6.7687,0.0,0.0,0.0,-6.7687,-6.7687,-6.7687,-6.7687,-6.7687,-6.7687,-6.7687,-6.7687,-6.7687,-6.7687,-6.7687,-6.7741,-6.8795,-6.9313,-6.9353,-7.0432,-7.0898,-7.0898,-7.0898,-7.1129,-7.1518,-7.1508,-7.1698,-7.1992,-7.1992,-7.1883,-7.1698,-7.1529,-7.1358,-7.1168,-7.0975,-7.0898,-7.0805,-7.0266,-6.9738,-6.9313,-6.9272,-6.8511,-6.7687,-6.7687,-6.7687,-6.7687,-6.7687,-6.7687,-6.7137,-6.539,-6.4357,-6.3462,-6.2581,-6.2381,-6.1676,-5.9258,-5.8812,-5.7993,-5.5551,-5.5179,-5.5179,-5.5078,-5.248,-5.0713,0.0,0.0,0.0,0.0,-4.2201,-4.0537,0.0,0.0,0.0,0.0,0.0,-3.4296,-3.0451,-3.2018,-3.1531,-2.8477,-2.8327,-2.8502,-2.9138,-2.7305,-2.6386,-2.64,-2.6694,-2.6987,-2.7281,-2.7575,-2.7869,-2.8136,-2.8136,-2.8136,-2.8136,-2.8136,-2.8511,-2.9045,-2.9045,-2.9406,-2.9913,0.0,0.0,-6.7687,-6.7687,-6.7687,-6.7687,-6.7687,-6.7687,-6.7687,-6.7687,-6.7687,-6.7687,-6.7687,-6.7687,-6.7687,-6.7687,-6.7687,-6.7687,-6.7687,-6.7687,-6.7687,-6.7687,-6.7687,-6.7687,-6.7687,-6.7687,-6.7687,-6.7687,-6.7687,-6.7687,-6.7741,-6.8795,-6.9313,-6.9353,-7.0432,-7.0898,-7.0898,-7.0898,-7.1129,-7.1518,-7.1508,-7.1698,-7.1992,-7.1992,-7.1883,-7.1684,-7.1569,-7.1364,-7.1168,-7.0975,-7.0898,-7.0805,-7.0266,-6.9738,-6.9231,-6.884,-6.821,-6.7687,-6.7687,-6.7687,-6.7687,-6.7687,-6.7174,-6.6368,-6.5261,-6.4357,-6.3462,-6.2581,-6.2381,-6.1676,-5.9258,-5.8812,-5.7993,-5.5551,-5.5179,-5.4845,-5.3623,-5.1943,-5.0268,0.0,-4.7416,-4.618,-4.5671,-4.2958,-4.1052,0.0,0.0,0.0,0.0,-3.6016,-3.4296,-3.0451,-3.0734,-2.952,-2.6254,-2.6254,-2.6556,-2.7162,-2.6702,-2.6386,-2.64,-2.6694,-2.6987,-2.7281,-2.7575,-2.7869,-2.8136,-2.8136,-2.8136,-2.8136,-2.8136,-2.8511,-2.9045,-2.9045,-2.9406,-2.9913,-6.7542,-6.7687,-6.7687,-6.7687,-6.7687,-6.7687,-6.7687,-6.7687,-6.7687,-6.7687,-6.7687,-6.7687,-6.7687,-6.7687,-6.7687,-6.7687,-6.7687,-6.7687,-6.7687,-6.7687,-6.7687,-6.7687,-6.7687,-6.7687,-6.7687,-6.7687,-6.7687,-6.7687,-6.7687,-6.7687,-6.7741,-6.8795,-6.9313,-6.9353,-7.0432,-7.0898,-7.0898,-7.0898,-7.1129,-7.1518,-7.1508,-7.1698,-7.1992,-7.1992,-7.1837,-7.1584,-7.1531,-7.1283,-7.1052,-7.0937,-7.0748,-7.0463,-6.9883,-6.9393,-6.884,-6.8308,-6.793,-6.7687,-6.7687,-6.7687,-6.7596,-6.723,-6.6427,-6.549,-6.4632,-6.3719,-6.2973,-6.2537,-6.2381,-6.1676,-5.9258,-5.8812,-5.7993,-5.5551,-5.5179,-5.4641,-5.3203,-5.1727,-5.0157,-4.8647,-4.7205,-4.5671,-4.4127,-4.2328,-4.0537,-3.8993,-3.7059,0.0,-3.6016,-3.6016,-3.4296,-3.0451,-3.031,-2.8795,-2.5504,-2.5785,-2.6079,-2.6386,-2.6386,-2.6386,-2.6386,-2.6547,-2.6854,-2.7268,-2.7428,-2.7749,-2.8136,-2.8136,-2.8136,-2.8136,-2.8136,-2.843,-2.8858,-2.8991,-2.9325,-2.974,-6.7341,-6.7633,-6.7687,-6.7687,-6.7687,-6.7687,-6.7687,-6.7687,-6.7687,-6.7687,-6.7687,-6.7687,-6.7687,-6.7687,-6.7687,-6.7687,-6.7687,-6.7687,-6.7687,-6.7687,-6.7687,-6.7687,-6.7687,-6.7687,-6.7687,-6.7687,-6.7687,-6.7687,-6.7687,-6.7687,-6.7741,-6.8795,-6.9313,-6.9353,-7.0432,-7.0898,-7.0898,-7.0937,-7.1168,-7.1518,-7.1513,-7.1702,-7.1992,-7.1992,-7.1786,-7.1505,-7.1502,-7.1245,-7.0898,-7.0898,-7.0524,-7.0026,-6.9472,-6.8935,-6.8368,-6.7863,-6.7687,-6.7687,-6.7687,-6.7687,-6.7488,-6.6582,-6.5681,-6.4732,-6.39,-6.3049,-6.2381,-6.2381,-6.2302,-6.148,-5.917,-5.8632,-5.7807,-5.5551,-5.5179,-5.4611,-5.2857,0.0,-5.0045,-4.8416,-4.7087,-4.5159,-4.2201,-4.1437,-4.0018,-3.7059,-3.6268,-3.6016,-3.6016,-3.6016,-3.4433,-3.0876,-3.0501,-2.8873,-2.5571,-2.6119,-2.6386,-2.6386,-2.6386,-2.6386,-2.6386,-2.6386,-2.6707,-2.7268,-2.7268,-2.7602,-2.8136,-2.8136,-2.8136,-2.8136,-2.8136,-2.8337,-2.8644,-2.8938,-2.9232,-2.9526,-6.6464,-6.7174,-6.7687,-6.7687,-6.7687,-6.7687,-6.7687,-6.7687,-6.7687,-6.7687,-6.7687,-6.7687,-6.7687,-6.7687,-6.7687,-6.7687,-6.7687,-6.7687,-6.7687,-6.7687,-6.7687,-6.7687,-6.7687,-6.7687,-6.7687,-6.7687,-6.7687,-6.7687,-6.7687,-6.7687,-6.7741,-6.8795,-6.9313,-6.9353,-7.0432,-7.0898,-7.0898,-7.1091,-7.1283,-7.1503,-7.1609,-7.1816,-7.1992,-7.1992,-7.1786,-7.1505,-7.1502,-7.1245,-7.0898,-7.0898,-7.0524,-7.0026,-6.9472,-6.8935,-6.8368,-6.7863,-6.7687,-6.7687,-6.7687,-6.7687,-6.7488,-6.6582,-6.5681,-6.4732,-6.39,-6.3049,-6.2381,-6.2381,-6.1595,-6.0417,-5.9081,-5.7993,-5.68,-5.5481,-5.5179,-5.4171,-5.1481,0.0,-4.9707,-4.6968,-4.6421,-4.6059,-4.555,-4.2855,-4.0924,-4.0408,-3.7709,-3.6016,-3.6016,-3.6016,-3.5021,-3.2874,-3.148,-2.9229,-2.5879,-2.6226,-2.6386,-2.6386,-2.6386,-2.6386,-2.6386,-2.6386,-2.6707,-2.7268,-2.7268,-2.7602,-2.8136,-2.8136,-2.8136,-2.8136,-2.8136,-2.8337,-2.8644,-2.8938,-2.9232,-2.9526,-6.6125,-6.67,-6.7174,-6.7633,-6.7687,-6.7687,-6.7687,-6.7687,-6.7687,-6.7687,-6.7687,-6.7687,-6.7687,-6.7687,-6.7687,-6.7687,-6.7687,-6.7687,-6.7687,-6.7687,-6.7687,-6.7687,-6.7687,-6.7687,-6.7687,-6.7687,-6.7687,-6.7687,-6.7687,-6.7687,-6.7741,-6.8795,-6.9313,-6.9353,-7.0432,-7.0898,-7.0898,-7.1091,-7.1323,-7.1492,-7.1634,-7.1831,-7.199,-7.1895,-7.169,-7.1505,-7.1386,-7.1129,-7.0898,-7.0898,-7.033,-6.9626,-6.9393,-6.875,-6.7996,-6.7757,-6.7687,-6.7687,-6.7687,-6.7378,-6.6758,-6.5904,-6.4968,-6.4113,-6.3165,-6.2659,-6.2381,-6.2381,-6.1399,-6.0247,-5.8992,-5.7807,-5.6638,-5.5381,-5.5179,0.0,0.0,-5.0713,-4.9621,-4.6636,-4.6301,-4.5914,-4.5013,-4.2706,-4.0795,-3.9888,-3.7441,-3.6016,-3.6016,-3.6016,-3.5587,-3.4746,-3.1304,-2.8327,-2.5959,-2.6239,-2.6386,-2.6386,-2.6386,-2.6386,-2.6386,-2.6386,-2.6707,-2.7268,-2.7268,-2.7602,-2.8136,-2.8136,-2.8136,-2.8136,-2.8136,-2.823,-2.8417,-2.8871,-2.9125,-2.9312,-6.5779,-6.6247,-6.6641,-6.7542,-6.7687,-6.7687,-6.7687,-6.7687,-6.7687,-6.7687,-6.7687,-6.7687,-6.7687,-6.7687,-6.7687,-6.7687,-6.7687,-6.7687,-6.7687,-6.7687,-6.7687,-6.7687,-6.7687,-6.7687,-6.7687,-6.7687,-6.7687,-6.7687,-6.7687,-6.7757,-6.7878,-6.8884,-6.9393,-6.955,-7.0463,-7.0898,-7.0937,-7.1168,-7.1369,-7.151,-7.1707,-7.1835,-7.1986,-7.1784,-7.1611,-7.149,-7.1299,-7.1052,-7.0898,-7.0898,-7.02,-6.9313,-6.9313,-6.8567,-6.7687,-6.7687,-6.7687,-6.7687,-6.7687,-6.7024,-6.6186,-6.5196,-6.4357,-6.3462,-6.2581,-6.2381,-6.2302,-6.203,-6.1036,-5.9784,-5.8632,-5.7339,-5.628,-5.5381,0.0,0.0,0.0,-5.0713,-4.9621,-4.6636,-4.6301,-4.5671,-4.3855,-4.2201,-4.0537,-3.8729,-3.6924,-3.6016,-3.6016,-3.6016,-3.5821,-3.5582,-3.1264,-2.8369,-2.6818,-2.6581,-2.6386,-2.6386,-2.6386,-2.6386,-2.6386,-2.6386,-2.6707,-2.7268,-2.7268,-2.7602,-2.8136,-2.8136,-2.8136,-2.8136,-2.8136,-2.8136,-2.8203,-2.8738,-2.8978,-2.9112,-6.4933,-6.5842,-6.6641,-6.7542,-6.7687,-6.7687,-6.7687,-6.7687,-6.7687,-6.7687,-6.7687,-6.7687,-6.7687,-6.7687,-6.7687,-6.7687,-6.7687,-6.7687,-6.7687,-6.7687,-6.7687,-6.7687,-6.7687,-6.7687,-6.7687,-6.7687,-6.7687,-6.7687,-6.7687,-6.793,-6.8464,-6.9021,-6.9588,-7.0061,-7.0652,-7.0898,-7.0937,-7.1283,-7.1485,-7.155,-7.1836,-7.1989,-7.1986,-7.1784,-7.1607,-7.1479,-7.1272,-7.1052,-7.0898,-7.0898,-7.02,-6.9313,-6.9313,-6.8567,-6.7687,-6.7687,-6.7687,-6.7687,-6.7687,-6.7024,-6.6186,-6.5196,-6.4357,-6.3462,-6.2581,-6.2381,-6.211,-6.0953,-5.9784,-5.8542,-5.7339,-5.6183,-5.528,-5.5179,0.0,0.0,-5.1153,-5.0713,-4.9621,-4.6636,-4.6301,-4.5671,-4.3855,-4.2201,-4.0537,-3.8729,-3.6924,-3.6016,-3.6016,-3.6016,-3.5501,-3.436,-3.2098,-3.0403,-2.9094,-2.7291,-2.6386,-2.6386,-2.6386,-2.6386,-2.6386,-2.6386,-2.6707,-2.7268,-2.7268,-2.7602,-2.8136,-2.8136,-2.8136,-2.8136,-2.8136,-2.8136,-2.8177,-2.8524,-2.8804,-2.9085,-6.3979,-6.4949,-6.5842,-6.67,-6.7341,-6.7687,-6.7687,-6.7687,-6.7687,-6.7687,-6.7687,-6.7687,-6.7687,-6.7687,-6.7687,-6.7687,-6.7687,-6.7687,-6.7687,-6.7687,-6.7687,-6.7687,-6.7687,-6.7687,-6.7687,-6.7687,-6.7687,-6.7687,-6.7996,-6.8308,-6.8511,-6.9393,-6.9883,-7.0129,-7.0652,-7.0975,-7.1091,-7.1387,-7.1557,-7.1626,-7.1903,-7.1924,-7.1797,-7.1648,-7.1463,-7.1283,-7.1091,-7.0975,-7.0871,-7.0524,-6.9883,-6.9231,-6.8891,-6.8308,-6.7687,-6.7687,-6.7687,-6.7542,-6.7024,-6.6247,-6.5297,-6.4427,-6.3501,-6.2779,-6.2459,-6.2381,-6.203,-6.087,-5.961,-5.8451,-5.7245,-5.5986,-5.5179,-5.5179,0.0,-5.4171,-5.1153,-5.0713,-4.9621,-4.6636,-4.6301,-4.5671,-4.3855,-4.2201,-4.0537,-3.8729,-3.6924,-3.6016,-3.6016,-3.6269,-3.5807,-3.4306,-3.2498,-3.0926,-2.9434,-2.7462,-2.6386,-2.6386,-2.6386,-2.6386,-2.6386,-2.6386,-2.6707,-2.7268,-2.7268,-2.7602,-2.8136,-2.8136,-2.8136,-2.8136,-2.8136,-2.8136,-2.8177,-2.8497,-2.8791,-2.9085,-6.3543,-6.4419,-6.5338,-6.6234,-6.714,-6.7687,-6.7687,-6.7687,-6.7687,-6.7687,-6.7687,-6.7687,-6.7687,-6.7687,-6.7687,-6.7687,-6.7687,-6.7687,-6.7687,-6.7687,-6.7687,-6.7687,-6.7687,-6.7687,-6.7687,-6.7687,-6.7687,-6.7687,-6.821,-6.8567,-6.8795,-6.9701,-7.0162,-7.0362,-7.0748,-7.1014,-7.1195,-7.14,-7.1569,-7.1724,-7.1916,-7.1895,-7.171,-7.1551,-7.1369,-7.1168,-7.0975,-7.0898,-7.0805,-7.0298,-6.9738,-6.919,-6.866,-6.8148,-6.7687,-6.7687,-6.7488,-6.7117,-6.6186,-6.5297,-6.4427,-6.3829,-6.3049,-6.2381,-6.2381,-6.211,-6.148,-6.0247,-5.9081,-5.79,-5.6638,-5.572,-5.5179,-5.5179,-5.4845,-5.3623,-5.1044,-5.0268,-4.9053,-4.6636,-4.6301,-4.5671,-4.3855,-4.2201,-4.0537,-3.8729,-3.6924,-3.6016,-3.6016,-3.6562,-3.6412,-3.5203,-3.3066,-3.1485,-3.0361,-2.7762,-2.6386,-2.6386,-2.6386,-2.6386,-2.6386,-2.6386,-2.6707,-2.7268,-2.7268,-2.7602,-2.8136,-2.8136,-2.8136,-2.8136,-2.8136,-2.8136,-2.8163,-2.8377,-2.8711,-2.9072,-6.3543,-6.4438,-6.5286,-6.6207,-6.712,-6.7687,-6.7687,-6.7687,-6.7687,-6.7687,-6.7687,-6.7687,-6.7687,-6.7687,-6.7687,-6.7687,-6.7687,-6.7687,-6.7687,-6.7687,-6.7687,-6.7687,-6.7687,-6.7687,-6.7687,-6.7687,-6.7687,-6.7687,-6.8259,-6.8795,-6.9313,-6.9847,-7.0362,-7.0898,-7.0898,-7.1014,-7.1222,-7.1413,-7.1591,-7.1711,-7.1916,-7.1895,-7.1657,-7.1541,-7.1387,-7.1168,-7.0975,-7.0898,-7.0805,-7.0298,-6.9738,-6.919,-6.866,-6.8148,-6.7687,-6.7687,-6.7117,-6.6186,-6.5261,-6.4357,-6.3719,-6.3719,-6.3049,-6.2381,-6.2381,-6.148,-6.0247,-5.9081,-5.7807,-5.6638,-5.5451,-5.5179,-5.5179,-5.5179,-5.3964,-5.2509,-5.0933,-4.9395,-4.7977,-4.6541,-4.6301,-4.5671,-4.3855,-4.2201,-4.0537,-3.8729,-3.6924,-3.6016,-3.6035,-3.6836,-3.7305,-3.7305,-3.4232,-3.2505,-3.2505,-2.8388,-2.6386,-2.6386,-2.6386,-2.6386,-2.6386,-2.6386,-2.6707,-2.7268,-2.7268,-2.7602,-2.8136,-2.8136,-2.8136,-2.8136,-2.8136,-2.8136,-2.8136,-2.8136,-2.8524,-2.9032,-6.273,-6.3504,-6.4377,-6.5248,-6.6178,-6.701,-6.7614,-6.7687,-6.7687,-6.7687,-6.7687,-6.7687,-6.7687,-6.7687,-6.7687,-6.7687,-6.7687,-6.7687,-6.7687,-6.7687,-6.7687,-6.7687,-6.7687,-6.7687,-6.7687,-6.7687,-6.7878,-6.8259,-6.8795,-6.9353,-6.9847,-7.0432,-7.0748,-7.0898,-7.1052,-7.1206,-7.1426,-7.1555,-7.1741,-7.1891,-7.1833,-7.1687,-7.1532,-7.1351,-7.1168,-7.0975,-7.0937,-7.0898,-7.0777,-6.9847,-6.9433,-6.9148,-6.821,-6.781,-6.7542,-6.6967,-6.6582,-6.6064,-6.4495,-6.39,-6.3574,-6.2931,-6.2581,-6.2381,-6.2381,-6.148,-6.0247,-5.9081,-5.7807,-5.6638,-5.5451,-5.5179,-5.5179,-5.5179,-5.3964,-5.2509,-5.0933,-4.9395,-4.7977,-4.6541,-4.6301,-4.5671,-4.3855,-4.2201,-4.0537,-3.8729,-3.6924,-3.6152,-3.6465,-3.6992,-3.6836,-3.5647,-3.4949,-3.323,-3.0361,-2.7762,-2.6386,-2.6386,-2.6386,-2.6386,-2.6386,-2.6386,-2.6707,-2.7268,-2.7268,-2.7602,-2.8136,-2.8136,-2.8136,-2.8136,-2.8136,-2.8136,-2.8136,-2.8136,-2.839,-2.8764,-6.2381,-6.308,-6.3965,-6.4807,-6.5812,-6.6699,-6.7577,-6.7687,-6.7687,-6.7687,-6.7687,-6.7687,-6.7687,-6.7687,-6.7687,-6.7687,-6.7687,-6.7687,-6.7687,-6.7687,-6.7687,-6.7687,-6.7687,-6.781,-6.7996,-6.781,-6.8047,-6.884,-6.9148,-6.9588,-7.0129,-7.0652,-7.0898,-7.0898,-7.1091,-7.1287,-7.1501,-7.1647,-7.1814,-7.1988,-7.1765,-7.1617,-7.1455,-7.1287,-7.1091,-7.0898,-7.0898,-7.0777,-7.0463,-6.9588,-6.9021,-6.8521,-6.7878,-6.7687,-6.7542,-6.6641,-6.6125,-6.549,-6.4113,-6.3462,-6.3049,-6.2537,-6.2381,-6.2302,-6.1756,-6.0787,-5.9522,-5.836,-5.7181,-5.6085,-5.5381,-5.5179,-5.4976,-5.4406,-5.3069,-5.1618,-5.0045,-4.8505,-4.7324,-4.6421,-4.6301,-4.5671,-4.3855,-4.2201,-4.0148,-3.7709,-3.6539,-3.6211,-3.6641,-3.707,-3.6893,-3.6104,-3.4854,-3.3095,-3.0669,-2.7762,-2.6386,-2.6386,-2.6386,-2.6386,-2.6386,-2.6386,-2.6707,-2.7268,-2.7268,-2.7602,-2.8136,-2.8136,-2.8136,-2.8136,-2.8136,-2.8136,-2.8136,-2.8136,-2.8337,-2.8644,-6.2381,-6.3012,-6.3893,-6.4845,-6.5611,-6.6516,-6.754,-6.7614,-6.7614,-6.7687,-6.7687,-6.7687,-6.7687,-6.7687,-6.7687,-6.7687,-6.7687,-6.7687,-6.7687,-6.7687,-6.7687,-6.7687,-6.7687,-6.7982,-6.8521,-6.8047,-6.8308,-6.9393,-6.9393,-6.9664,-7.0162,-7.0652,-7.0898,-7.0937,-7.1129,-7.1363,-7.1529,-7.1678,-7.1807,-7.1971,-7.1785,-7.1595,-7.1464,-7.1245,-7.1052,-7.0898,-7.0898,-7.0593,-7.0026,-6.9433,-6.8558,-6.7687,-6.7687,-6.7687,-6.7488,-6.6582,-6.5681,-6.4799,-6.3829,-6.2973,-6.2381,-6.2381,-6.2302,-6.1951,-6.087,-5.9697,-5.8451,-5.7245,-5.5986,-5.5179,-5.5179,-5.5179,-5.4743,-5.3203,-5.1727,-5.0157,-4.8762,-4.7205,-4.6301,-4.6301,-4.6301,-4.5671,-4.3855,-4.2074,-3.9649,-3.6287,-3.6055,-3.6269,-3.6699,-3.7129,-3.7539,-3.7969,-3.4592,-3.2657,-3.2505,-2.8686,-2.6544,-2.6386,-2.6386,-2.6386,-2.6386,-2.6413,-2.6734,-2.7268,-2.7295,-2.7629,-2.8136,-2.8136,-2.8136,-2.8136,-2.8136,-2.8136,-2.8136,-2.8136,-2.8323,-2.8617,-6.2381,-6.2595,-6.3192,-6.4698,-6.4628,-6.5057,-6.734,-6.712,-6.6936,-6.7614,-6.7687,-6.7687,-6.7687,-6.7687,-6.7687,-6.7687,-6.7687,-6.7687,-6.7687,-6.7687,-6.7687,-6.7687,-6.7687,-6.8148,-6.9106,-6.8567,-6.8847,-6.9918,-6.9918,-7.0195,-7.0748,-7.0871,-7.0975,-7.1129,-7.1349,-7.1544,-7.1665,-7.1844,-7.188,-7.1743,-7.1607,-7.1433,-7.1245,-7.1052,-7.0937,-7.0898,-7.0898,-7.0593,-6.9954,-6.8978,-6.8259,-6.7687,-6.7687,-6.7687,-6.7396,-6.5743,-6.5131,-6.4665,-6.3124,-6.2503,-6.2381,-6.2381,-6.1676,-6.0953,-6.067,-5.9697,-5.8451,-5.7245,-5.5986,-5.5179,-5.5179,-5.5179,-5.4743,-5.3203,-5.1727,-5.0157,-4.8762,-4.7205,-4.6301,-4.6301,-4.6301,-4.5671,-4.3855,-4.0924,-3.8221,-3.6152,-3.6348,-3.6719,-3.7148,-3.7559,-3.7988,-3.8418,-3.6072,-3.4151,-3.2505,-3.0053,-2.7919,-2.6386,-2.6386,-2.6386,-2.64,-2.6627,-2.6921,-2.7281,-2.7509,-2.7816,-2.8136,-2.8136,-2.8136,-2.8136,-2.8136,-2.8136,-2.8136,-2.8136,-2.819,-2.8323,-6.2381,-6.2381,-6.2798,-6.4176,-6.4002,-6.4452,-6.6725,-6.6677,-6.6699,-6.7577,-6.7687,-6.7687,-6.7687,-6.7687,-6.7687,-6.7687,-6.7687,-6.7687,-6.7687,-6.7687,-6.7687,-6.7687,-6.793,-6.8464,-6.9272,-6.9272,-6.9664,-7.0494,-7.0233,-7.0362,-7.0898,-7.0898,-7.1014,-7.1195,-7.1402,-7.1549,-7.1711,-7.1792,-7.1803,-7.1684,-7.1424,-7.1302,-7.1168,-7.0975,-7.0898,-7.0871,-7.0622,-7.0026,-6.9231,-6.8368,-6.793,-6.7687,-6.7687,-6.7433,-6.6816,-6.539,-6.4665,-6.4113,-6.2779,-6.2381,-6.2381,-6.2381,-6.148,-6.0417,-5.987,-5.8812,-5.7621,-5.6347,-5.5651,-5.5179,-5.5179,-5.5179,-5.4509,-5.2266,-5.1263,-4.9932,-4.7743,-4.6755,-4.6301,-4.6301,-4.555,-4.4103,-4.1542,-3.8861,-3.6924,-3.6016,-3.6426,-3.6855,-3.7266,-3.7695,-3.8125,-3.8555,-3.5682,-3.3549,-3.2505,-2.9449,-2.7462,-2.6386,-2.6386,-2.6386,-2.64,-2.6694,-2.6987,-2.7281,-2.7575,-2.7869,-2.8136,-2.8136,-2.8136,-2.8136,-2.8136,-2.8136,-2.8136,-2.8136,-2.823,-2.843,-6.2381,-6.2381,-6.2662,-6.3577,-6.3545,-6.4135,-6.6125,-6.6268,-6.6553,-6.7577,-6.7687,-6.7687,-6.7687,-6.7687,-6.7687,-6.7687,-6.7687,-6.7687,-6.7687,-6.7687,-6.7741,-6.7863,-6.8259,-6.8758,-6.9433,-6.9847,-7.0362,-7.0898,-7.0463,-7.0463,-7.0898,-7.0937,-7.1052,-7.1233,-7.1436,-7.1609,-7.1745,-7.1706,-7.1695,-7.1657,-7.1321,-7.1168,-7.1129,-7.0975,-7.0832,-7.0719,-7.0266,-6.9433,-6.8416,-6.7878,-6.7687,-6.7687,-6.7687,-6.7117,-6.6186,-6.5297,-6.4357,-6.3501,-6.2659,-6.2381,-6.2381,-6.211,-6.1235,-5.9989,-5.8812,-5.7714,-5.6607,-5.5451,-5.5179,-5.5179,-5.5179,-5.5179,-5.4171,-5.1153,-5.0713,-4.9707,-4.6755,-4.6301,-4.6301,-4.6301,-4.4497,-4.2051,-3.8861,-3.7059,-3.6055,-3.6133,-3.6523,-3.6953,-3.7383,-3.7812,-3.8203,-3.8555,-3.4619,-3.2505,-3.2505,-2.8374,-2.6386,-2.6386,-2.6386,-2.6386,-2.64,-2.6747,-2.7028,-2.7281,-2.7629,-2.7909,-2.8136,-2.8136,-2.8136,-2.8136,-2.8136,-2.8136,-2.8136,-2.8136,-2.831,-2.8564,-6.2381,-6.2381,-6.2662,-6.3577,-6.3094,-6.3426,-6.6014,-6.574,-6.5786,-6.7504,-6.7687,-6.7687,-6.7687,-6.7687,-6.7687,-6.7687,-6.7687,-6.7687,-6.7687,-6.7687,-6.7878,-6.8368,-6.8464,-6.8978,-6.9954,-7.0061,-7.0362,-7.0898,-7.0805,-7.0805,-7.0898,-7.1091,-7.1245,-7.1464,-7.1583,-7.178,-7.1945,-7.1765,-7.1618,-7.1503,-7.1283,-7.1091,-7.0937,-7.0898,-7.0622,-7.0195,-7.0129,-6.9433,-6.8416,-6.7878,-6.7687,-6.7687,-6.7687,-6.7117,-6.6186,-6.5297,-6.4357,-6.3501,-6.2659,-6.2381,-6.211,-6.1119,-5.9989,-5.8722,-5.7527,-5.7086,-5.6607,-5.5451,-5.5179,-5.5179,-5.5179,-5.5179,-5.4171,-5.1153,-5.0713,-4.9707,-4.6755,-4.6301,-4.6301,-4.6301,-4.3482,-4.0795,-3.8729,-3.7059,-3.6172,-3.6543,-3.6973,-3.7402,-3.7812,-3.8262,-3.8516,-3.8574,-3.4619,-3.2505,-3.2505,-2.8374,-2.6386,-2.6386,-2.6386,-2.6386,-2.6413,-2.6961,-2.7228,-2.7295,-2.7843,-2.811,-2.8136,-2.8136,-2.8136,-2.8136,-2.8136,-2.8136,-2.8136,-2.8136,-2.8163,-2.8243,-6.2381,-6.2381,-6.2561,-6.2944,-6.2662,-6.308,-6.5299,-6.5255,-6.5677,-6.7467,-6.7687,-6.7687,-6.7687,-6.7687,-6.7687,-6.7687,-6.7687,-6.7687,-6.7687,-6.7687,-6.793,-6.8464,-6.8795,-6.9313,-7.0095,-7.0394,-7.0652,-7.0898,-7.0898,-7.0898,-7.0898,-7.1091,-7.1299,-7.1533,-7.1621,-7.1767,-7.1801,-7.1648,-7.1479,-7.1283,-7.1091,-7.0975,-7.0898,-7.0898,-7.0593,-7.0026,-6.9433,-6.8705,-6.8033,-6.7757,-6.7687,-6.7596,-6.7117,-6.6368,-6.5426,-6.4564,-6.3647,-6.2931,-6.2537,-6.2381,-6.211,-6.087,-5.9697,-5.8451,-5.7276,-5.6445,-5.5819,-5.528,-5.5179,-5.5179,-5.5179,-5.4509,-5.3279,-5.1044,-5.0045,-4.8736,-4.6636,-4.6301,-4.555,-4.3731,-4.2074,-4.0148,-3.7441,-3.6403,-3.6211,-3.6641,-3.7051,-3.748,-3.791,-3.834,-3.8574,-3.8574,-3.4619,-3.2505,-3.2505,-2.8374,-2.6386,-2.6386,-2.6386,-2.6386,-2.6413,-2.7001,-2.7268,-2.7295,-2.7883,-2.8136,-2.8136,-2.8136,-2.8136,-2.8136,-2.8136,-2.8136,-2.8136,-2.8136,-2.8136,-2.819]}]]